[[{"header":{"parameterUnit":"m.s-1","parameterCategory":1,"la1":30.6,"la2":28.766,"lo1":-90.7593,"lo2":-88.6598,"dy":0.0162,"dx":0.0183,"nx":116,"ny":114,"refTime":"2023-09-21T18:00:00:Z","depth":0,"parameterNumber":2,"parameterNumberName":"U-component_of_WINDS"},"data":[0.0,0.0,0.0,0.0,0.0,0.0,0.0,0.0,0.0,0.0,0.0,0.0,0.0,0.0,0.0,0.0,0.0,0.0,0.0,0.0,0.0,0.0,0.0,0.0,0.0,0.0,0.0,0.0,0.0,0.0,0.0,0.0,0.0,0.0,0.0,0.0,0.0,0.0,0.0,0.0,0.0,0.0,0.0,0.0,0.0,0.0,0.0,0.0,0.0,0.0,0.0,0.0,0.0,0.0,0.0,0.0,0.0,0.0,0.0,0.0,0.0,0.0,0.0,0.0,0.0,0.0,0.0,0.0,0.0,0.0,0.0,0.0,0.0,0.0,0.0,0.0,0.0,0.0,0.0,0.0,0.0,0.0,0.0,0.0,0.0,0.0,0.0,0.0,0.0,0.0,0.0,0.0,0.0,0.0,0.0,0.0,0.0,0.0,0.0,0.0,0.0,0.0,0.0,0.0,0.0,0.0,0.0,0.0,0.0,0.0,0.0,0.0,0.0,0.0,0.0,0.0,0.0,0.0,0.0,0.0,0.0,0.0,0.0,0.0,0.0,0.0,0.0,0.0,0.0,0.0,0.0,0.0,0.0,0.0,0.0,0.0,0.0,0.0,0.0,0.0,0.0,0.0,0.0,0.0,0.0,0.0,0.0,0.0,0.0,0.0,0.0,0.0,0.0,0.0,0.0,0.0,0.0,0.0,0.0,0.0,0.0,0.0,0.0,0.0,0.0,0.0,0.0,0.0,0.0,0.0,0.0,0.0,0.0,0.0,0.0,0.0,0.0,0.0,0.0,0.0,0.0,0.0,0.0,0.0,0.0,0.0,0.0,0.0,0.0,0.0,0.0,0.0,0.0,0.0,0.0,0.0,0.0,0.0,0.0,0.0,0.0,0.0,0.0,0.0,0.0,0.0,0.0,0.0,0.0,0.0,0.0,0.0,0.0,0.0,0.0,0.0,0.0,0.0,0.0,0.0,0.0,0.0,0.0,0.0,0.0,0.0,0.0,0.0,0.0,0.0,0.0,0.0,0.0,0.0,0.0,0.0,0.0,0.0,0.0,0.0,0.0,0.0,0.0,0.0,0.0,0.0,0.0,0.0,0.0,0.0,0.0,0.0,0.0,0.0,0.0,0.0,0.0,0.0,0.0,0.0,0.0,0.0,0.0,0.0,0.0,0.0,0.0,0.0,0.0,0.0,0.0,0.0,0.0,0.0,0.0,0.0,0.0,0.0,0.0,0.0,0.0,0.0,0.0,0.0,0.0,0.0,0.0,0.0,0.0,0.0,0.0,0.0,0.0,0.0,0.0,0.0,0.0,0.0,0.0,0.0,0.0,0.0,0.0,0.0,0.0,0.0,0.0,0.0,0.0,0.0,0.0,0.0,0.0,0.0,0.0,0.0,0.0,0.0,0.0,0.0,0.0,0.0,0.0,0.0,0.0,0.0,0.0,0.0,0.0,0.0,0.0,0.0,0.0,0.0,0.0,0.0,0.0,0.0,0.0,0.0,0.0,0.0,0.0,0.0,0.0,0.0,0.0,0.0,0.0,0.0,0.0,0.0,0.0,0.0,0.0,0.0,0.0,0.0,0.0,0.0,0.0,0.0,0.0,0.0,0.0,0.0,0.0,0.0,0.0,0.0,0.0,0.0,0.0,0.0,0.0,0.0,0.0,0.0,0.0,0.0,0.0,0.0,0.0,0.0,0.0,0.0,0.0,0.0,0.0,0.0,0.0,0.0,0.0,0.0,0.0,0.0,0.0,0.0,0.0,0.0,0.0,0.0,0.0,0.0,0.0,0.0,0.0,0.0,0.0,0.0,0.0,0.0,0.0,0.0,0.0,0.0,0.0,0.0,0.0,0.0,0.0,0.0,0.0,0.0,0.0,0.0,0.0,0.0,0.0,0.0,0.0,0.0,0.0,0.0,0.0,0.0,0.0,0.0,0.0,0.0,0.0,0.0,0.0,0.0,0.0,0.0,0.0,0.0,0.0,0.0,0.0,0.0,0.0,0.0,0.0,0.0,0.0,0.0,0.0,0.0,0.0,0.0,0.0,0.0,0.0,0.0,0.0,0.0,0.0,0.0,0.0,0.0,0.0,0.0,0.0,0.0,0.0,0.0,0.0,0.0,0.0,0.0,0.0,0.0,0.0,0.0,0.0,0.0,0.0,0.0,0.0,0.0,0.0,0.0,0.0,0.0,0.0,0.0,0.0,0.0,0.0,0.0,0.0,0.0,0.0,0.0,0.0,0.0,0.0,0.0,0.0,0.0,0.0,0.0,0.0,0.0,0.0,0.0,0.0,0.0,0.0,0.0,0.0,0.0,0.0,0.0,0.0,0.0,0.0,0.0,0.0,0.0,0.0,0.0,0.0,0.0,0.0,0.0,0.0,0.0,0.0,0.0,0.0,0.0,0.0,0.0,0.0,0.0,0.0,0.0,0.0,0.0,0.0,0.0,0.0,0.0,0.0,0.0,0.0,0.0,0.0,0.0,0.0,0.0,0.0,0.0,0.0,0.0,0.0,0.0,0.0,0.0,0.0,0.0,0.0,0.0,0.0,0.0,0.0,0.0,0.0,0.0,0.0,0.0,0.0,0.0,0.0,0.0,0.0,0.0,0.0,0.0,0.0,0.0,0.0,0.0,0.0,0.0,0.0,0.0,0.0,0.0,0.0,0.0,0.0,0.0,0.0,0.0,0.0,0.0,0.0,0.0,0.0,0.0,0.0,0.0,0.0,0.0,0.0,0.0,0.0,0.0,0.0,0.0,0.0,0.0,0.0,0.0,0.0,0.0,0.0,0.0,0.0,0.0,0.0,0.0,0.0,0.0,0.0,0.0,0.0,0.0,0.0,0.0,0.0,0.0,0.0,0.0,0.0,0.0,0.0,0.0,0.0,0.0,0.0,0.0,0.0,0.0,0.0,0.0,0.0,0.0,0.0,0.0,0.0,0.0,0.0,0.0,0.0,0.0,0.0,0.0,0.0,0.0,0.0,0.0,0.0,0.0,0.0,0.0,0.0,0.0,0.0,0.0,0.0,0.0,0.0,0.0,0.0,0.0,0.0,0.0,0.0,0.0,0.0,0.0,0.0,0.0,0.0,0.0,0.0,0.0,0.0,0.0,0.0,0.0,0.0,0.0,0.0,0.0,0.0,0.0,0.0,0.0,0.0,0.0,0.0,0.0,0.0,0.0,0.0,0.0,0.0,0.0,0.0,0.0,0.0,0.0,0.0,0.0,0.0,0.0,0.0,0.0,0.0,0.0,0.0,0.0,0.0,0.0,0.0,0.0,0.0,0.0,0.0,0.0,0.0,0.0,0.0,0.0,0.0,0.0,0.0,0.0,0.0,0.0,0.0,0.0,0.0,0.0,0.0,0.0,0.0,0.0,0.0,0.0,0.0,0.0,0.0,0.0,0.0,0.0,0.0,0.0,0.0,0.0,0.0,0.0,0.0,0.0,0.0,0.0,0.0,0.0,0.0,0.0,0.0,0.0,0.0,0.0,0.0,0.0,0.0,0.0,0.0,0.0,0.0,0.0,0.0,0.0,0.0,0.0,0.0,0.0,0.0,0.0,0.0,0.0,0.0,0.0,0.0,0.0,0.0,0.0,0.0,0.0,0.0,0.0,0.0,0.0,0.0,0.0,0.0,0.0,0.0,0.0,0.0,0.0,0.0,0.0,0.0,0.0,0.0,0.0,0.0,0.0,0.0,0.0,0.0,0.0,0.0,0.0,0.0,0.0,0.0,0.0,0.0,0.0,0.0,0.0,0.0,0.0,0.0,0.0,0.0,0.0,0.0,0.0,0.0,0.0,0.0,0.0,0.0,0.0,0.0,0.0,0.0,0.0,0.0,0.0,0.0,0.0,0.0,0.0,0.0,0.0,0.0,0.0,0.0,0.0,0.0,0.0,0.0,0.0,0.0,0.0,0.0,0.0,0.0,0.0,0.0,0.0,0.0,0.0,0.0,0.0,0.0,0.0,0.0,0.0,0.0,0.0,0.0,0.0,0.0,0.0,0.0,0.0,0.0,0.0,0.0,0.0,0.0,0.0,0.0,0.0,0.0,0.0,0.0,0.0,0.0,0.0,0.0,0.0,0.0,0.0,0.0,0.0,0.0,0.0,0.0,0.0,0.0,0.0,0.0,0.0,0.0,0.0,0.0,0.0,0.0,0.0,0.0,0.0,0.0,0.0,0.0,0.0,0.0,0.0,0.0,0.0,0.0,0.0,0.0,0.0,0.0,0.0,0.0,0.0,0.0,0.0,0.0,0.0,0.0,0.0,0.0,0.0,0.0,0.0,0.0,0.0,0.0,0.0,0.0,0.0,0.0,0.0,0.0,0.0,0.0,0.0,0.0,0.0,0.0,0.0,0.0,0.0,0.0,0.0,0.0,0.0,0.0,0.0,0.0,0.0,0.0,0.0,0.0,0.0,0.0,0.0,0.0,0.0,0.0,0.0,0.0,0.0,0.0,0.0,0.0,0.0,0.0,0.0,0.0,0.0,0.0,0.0,0.0,0.0,0.0,0.0,0.0,0.0,0.0,0.0,0.0,0.0,0.0,0.0,0.0,0.0,0.0,0.0,0.0,0.0,0.0,0.0,0.0,0.0,0.0,0.0,0.0,0.0,0.0,0.0,0.0,0.0,0.0,0.0,0.0,0.0,0.0,0.0,0.0,0.0,0.0,0.0,0.0,0.0,0.0,0.0,0.0,0.0,0.0,0.0,0.0,0.0,0.0,0.0,0.0,0.0,0.0,0.0,0.0,0.0,0.0,0.0,0.0,0.0,0.0,0.0,0.0,0.0,0.0,0.0,0.0,0.0,0.0,0.0,0.0,0.0,0.0,0.0,0.0,0.0,0.0,0.0,0.0,0.0,0.0,0.0,0.0,0.0,0.0,0.0,0.0,0.0,0.0,0.0,0.0,0.0,0.0,0.0,0.0,0.0,0.0,0.0,0.0,0.0,0.0,0.0,0.0,0.0,0.0,0.0,0.0,0.0,0.0,0.0,0.0,0.0,0.0,0.0,0.0,0.0,0.0,0.0,0.0,0.0,0.0,0.0,0.0,0.0,0.0,0.0,0.0,0.0,0.0,0.0,0.0,0.0,0.0,0.0,0.0,0.0,0.0,0.0,0.0,0.0,0.0,0.0,0.0,0.0,0.0,0.0,0.0,0.0,0.0,0.0,0.0,0.0,0.0,0.0,0.0,0.0,0.0,0.0,0.0,0.0,0.0,0.0,0.0,0.0,0.0,0.0,0.0,0.0,0.0,0.0,0.0,0.0,0.0,0.0,0.0,0.0,0.0,0.0,0.0,0.0,0.0,0.0,0.0,0.0,0.0,0.0,0.0,0.0,0.0,0.0,0.0,0.0,0.0,0.0,0.0,0.0,0.0,0.0,0.0,0.0,0.0,0.0,0.0,0.0,0.0,0.0,0.0,0.0,0.0,0.0,0.0,0.0,0.0,0.0,0.0,0.0,0.0,0.0,0.0,0.0,0.0,0.0,0.0,0.0,0.0,0.0,0.0,0.0,0.0,0.0,0.0,0.0,0.0,0.0,0.0,0.0,0.0,0.0,0.0,0.0,0.0,0.0,0.0,0.0,0.0,0.0,0.0,0.0,0.0,0.0,0.0,0.0,0.0,0.0,0.0,0.0,0.0,0.0,0.0,0.0,0.0,0.0,0.0,0.0,0.0,0.0,0.0,0.0,0.0,0.0,0.0,0.0,0.0,0.0,0.0,0.0,0.0,0.0,0.0,0.0,0.0,0.0,0.0,0.0,0.0,0.0,0.0,0.0,0.0,0.0,0.0,0.0,0.0,0.0,0.0,0.0,0.0,0.0,0.0,0.0,0.0,0.0,0.0,0.0,0.0,0.0,0.0,0.0,0.0,0.0,0.0,0.0,0.0,0.0,0.0,0.0,0.0,0.0,0.0,0.0,0.0,0.0,0.0,0.0,0.0,0.0,0.0,0.0,0.0,0.0,0.0,0.0,0.0,0.0,0.0,0.0,0.0,0.0,0.0,0.0,0.0,0.0,0.0,0.0,0.0,0.0,0.0,0.0,0.0,0.0,0.0,0.0,0.0,0.0,0.0,0.0,0.0,0.0,0.0,0.0,2.2504,0.0,0.0,0.0,0.0,0.0,0.0,0.0,0.0,0.0,0.0,0.0,0.0,0.0,0.0,0.0,0.0,0.0,0.0,0.0,0.0,0.0,0.0,0.0,0.0,0.0,0.0,0.0,0.0,0.0,0.0,0.0,0.0,0.0,0.0,0.0,0.0,0.0,0.0,0.0,0.0,0.0,0.0,0.0,0.0,0.0,0.0,0.0,0.0,0.0,0.0,0.0,0.0,0.0,0.0,0.0,0.0,0.0,0.0,0.0,0.0,0.0,0.0,0.0,0.0,0.0,0.0,0.0,0.0,0.0,0.0,0.0,0.0,0.0,0.0,0.0,0.0,0.0,0.0,0.0,0.0,0.0,0.0,0.0,0.0,0.0,0.0,0.0,0.0,0.0,0.0,0.0,0.0,0.0,0.0,0.0,0.0,0.0,0.0,0.0,0.0,0.0,0.0,0.0,0.0,0.0,0.0,0.0,0.0,0.0,0.0,0.0,0.0,0.0,0.0,0.0,0.0,2.2424,0.0,0.0,0.0,0.0,0.0,0.0,0.0,0.0,0.0,0.0,0.0,0.0,0.0,0.0,0.0,0.0,0.0,0.0,0.0,0.0,0.0,0.0,0.0,0.0,0.0,0.0,0.0,0.0,0.0,0.0,0.0,0.0,0.0,0.0,0.0,0.0,0.0,0.0,0.0,0.0,0.0,0.0,0.0,0.0,0.0,0.0,0.0,0.0,0.0,0.0,0.0,0.0,0.0,0.0,0.0,0.0,0.0,0.0,0.0,0.0,0.0,0.0,0.0,0.0,0.0,0.0,0.0,0.0,0.0,0.0,0.0,0.0,0.0,0.0,0.0,0.0,0.0,0.0,0.0,0.0,0.0,0.0,0.0,0.0,0.0,0.0,0.0,0.0,0.0,0.0,0.0,0.0,0.0,0.0,0.0,0.0,0.0,0.0,0.0,0.0,0.0,0.0,0.0,0.0,0.0,0.0,0.0,0.0,2.3524,2.3524,2.367,2.39,2.3637,2.2987,2.2421,2.2092,2.2007,2.3437,0.0,0.0,0.0,0.0,0.0,0.0,0.0,0.0,0.0,0.0,0.0,0.0,0.0,0.0,0.0,0.0,0.0,0.0,0.0,0.0,0.0,2.5505,2.5446,2.544,2.5492,2.5519,0.0,0.0,0.0,0.0,0.0,0.0,0.0,0.0,0.0,0.0,0.0,0.0,2.5615,2.6372,2.6663,2.6532,2.5779,0.0,0.0,0.0,0.0,0.0,0.0,0.0,0.0,0.0,0.0,0.0,0.0,0.0,0.0,0.0,0.0,0.0,0.0,0.0,0.0,0.0,0.0,0.0,0.0,0.0,0.0,0.0,0.0,0.0,0.0,0.0,0.0,0.0,0.0,0.0,0.0,0.0,0.0,0.0,0.0,0.0,0.0,0.0,2.5187,2.5034,0.0,0.0,0.0,0.0,0.0,0.0,0.0,0.0,0.0,0.0,0.0,0.0,0.0,2.4637,2.5147,2.4823,2.4411,2.3882,2.3654,2.33,2.2786,2.2823,2.2786,2.2676,2.2582,0.0,2.3106,2.3556,0.0,0.0,0.0,0.0,0.0,0.0,0.0,0.0,0.0,0.0,0.0,0.0,0.0,0.0,0.0,0.0,0.0,0.0,0.0,0.0,0.0,2.5445,2.5406,2.5395,2.5437,2.5453,2.5503,0.0,0.0,0.0,0.0,0.0,0.0,0.0,0.0,0.0,2.5642,2.5891,2.6338,2.6712,2.7149,2.7569,2.7086,2.7348,2.8154,2.8411,0.0,0.0,0.0,0.0,0.0,0.0,0.0,0.0,0.0,0.0,0.0,0.0,0.0,0.0,0.0,0.0,0.0,0.0,0.0,0.0,0.0,0.0,0.0,0.0,0.0,0.0,0.0,0.0,0.0,0.0,0.0,0.0,0.0,0.0,0.0,0.0,0.0,0.0,0.0,2.5283,2.5214,2.5063,2.5113,2.5291,0.0,0.0,0.0,0.0,0.0,0.0,0.0,0.0,0.0,2.5004,2.4857,2.4861,2.5,2.5145,2.5126,2.4933,2.5219,2.5195,2.4803,2.4992,2.4967,2.4735,2.4761,2.4895,2.5052,2.441,2.4329,2.4679,0.0,0.0,0.0,0.0,2.5768,2.5851,0.0,0.0,0.0,0.0,0.0,0.0,0.0,0.0,0.0,0.0,0.0,0.0,2.5343,2.5341,2.5321,2.5321,2.5322,2.5341,2.5425,2.5443,0.0,0.0,0.0,0.0,0.0,0.0,0.0,2.5549,2.5813,2.6269,2.688,2.7356,2.7893,2.8508,2.8682,2.8997,2.9419,2.98,2.9752,0.0,0.0,0.0,0.0,0.0,0.0,0.0,0.0,0.0,0.0,0.0,0.0,0.0,0.0,0.0,0.0,0.0,0.0,0.0,0.0,0.0,0.0,0.0,0.0,0.0,0.0,0.0,0.0,0.0,0.0,0.0,0.0,0.0,0.0,0.0,0.0,0.0,0.0,2.5866,2.5795,2.5644,2.5636,2.5849,0.0,0.0,0.0,0.0,0.0,0.0,2.6267,2.6237,2.6063,2.5767,2.5777,2.5802,2.5848,2.6017,2.617,2.6238,2.6636,2.6739,2.6499,2.6748,2.6676,2.638,2.6439,2.6439,2.6419,2.5449,2.5148,2.544,2.6385,2.6887,2.701,2.6975,2.6975,2.6992,0.0,0.0,0.0,0.0,0.0,0.0,0.0,0.0,0.0,0.0,0.0,2.5216,2.5216,2.5145,2.5114,2.5126,2.5118,2.5138,2.5209,2.5271,2.5312,2.5322,2.5369,0.0,0.0,0.0,0.0,2.5414,2.6379,2.6813,2.6841,2.8554,2.9363,2.9389,3.0205,3.0125,2.9381,2.9284,2.9594,3.0139,0.0,0.0,0.0,0.0,0.0,0.0,0.0,0.0,0.0,0.0,0.0,0.0,0.0,0.0,0.0,0.0,0.0,0.0,0.0,0.0,0.0,0.0,0.0,0.0,0.0,0.0,0.0,0.0,0.0,0.0,0.0,0.0,0.0,0.0,0.0,0.0,0.0,0.0,0.0,2.7123,2.7039,0.0,0.0,0.0,0.0,2.6916,2.6802,2.6505,2.5949,2.6451,2.6838,2.6982,2.7572,2.8202,2.8972,2.8423,2.7981,2.7688,2.7237,2.6804,2.6395,2.6425,2.6425,2.638,2.6349,2.6349,2.6425,2.6539,2.6781,2.7079,2.7153,2.7377,2.7624,2.746,2.7501,2.7624,0.0,0.0,0.0,0.0,0.0,0.0,0.0,0.0,0.0,2.5337,2.5225,2.5149,2.513,2.5088,2.5019,2.498,2.4923,2.4904,2.4872,2.4892,2.4967,2.5099,2.5122,0.0,0.0,0.0,2.5302,2.5406,2.6314,2.7066,2.7656,2.8922,2.9786,3.0314,3.0589,3.0536,3.023,3.0047,3.0128,3.0394,3.0279,3.0226,0.0,0.0,0.0,0.0,0.0,0.0,0.0,0.0,0.0,0.0,0.0,0.0,0.0,0.0,0.0,0.0,0.0,0.0,0.0,0.0,0.0,0.0,0.0,0.0,0.0,0.0,0.0,0.0,0.0,0.0,0.0,0.0,0.0,0.0,0.0,0.0,0.0,2.7219,2.7134,0.0,2.7718,2.7698,2.8046,2.9074,2.8847,2.8692,2.8727,2.8741,2.8627,2.8408,2.8592,2.8812,2.9066,2.9037,2.882,2.8378,2.8347,2.8106,2.7688,2.7688,2.7688,2.7688,2.7673,2.7673,2.7688,2.7782,2.7395,2.6764,2.6938,2.7067,2.7195,2.7211,2.7254,2.7296,0.0,0.0,0.0,0.0,0.0,0.0,0.0,0.0,2.5249,2.5229,2.5153,2.5087,2.5063,2.4977,2.4884,2.4851,2.4723,2.4659,2.464,2.4637,2.471,2.4858,2.4885,0.0,0.0,2.5201,2.5332,2.5691,2.6611,2.7554,2.8496,2.9439,3.0195,3.0791,3.0759,3.0722,3.07,3.054,3.0451,3.0428,3.0336,3.0292,3.0196,0.0,0.0,0.0,0.0,0.0,0.0,0.0,0.0,0.0,0.0,0.0,0.0,0.0,0.0,0.0,0.0,0.0,0.0,0.0,0.0,0.0,0.0,0.0,0.0,0.0,0.0,0.0,0.0,0.0,0.0,0.0,0.0,0.0,0.0,0.0,2.8041,2.7922,2.8053,2.8347,2.8866,2.8997,2.9471,3.0387,3.0186,3.0048,3.007,3.0082,2.9886,2.9476,2.9695,2.9681,2.942,2.9435,2.9209,2.8674,2.8715,2.8605,2.8348,2.8314,2.8299,2.8411,2.8348,2.8348,2.8411,2.8411,2.792,2.7179,2.7377,2.7496,2.7585,2.7674,2.7734,2.7822,0.0,0.0,0.0,0.0,0.0,0.0,0.0,2.5153,2.5172,2.5115,2.5091,2.5063,2.501,2.481,2.4685,2.4692,2.451,2.4424,2.4489,2.4489,2.4505,2.4607,2.4666,0.0,2.5082,2.512,2.552,2.6301,2.7326,2.8299,2.9231,3.0157,3.0663,3.0794,3.0794,3.076,3.0697,3.0634,3.0492,3.0317,3.0451,3.0383,3.0213,0.0,0.0,0.0,0.0,0.0,0.0,0.0,0.0,0.0,0.0,0.0,0.0,0.0,0.0,0.0,0.0,0.0,0.0,0.0,0.0,0.0,0.0,0.0,0.0,0.0,0.0,0.0,0.0,0.0,0.0,0.0,0.0,0.0,2.9696,2.9661,2.9551,2.9351,2.9871,3.027,3.0312,3.0881,3.1084,3.0668,3.0657,3.0409,2.9795,3.03,3.0486,3.0241,3.084,3.0878,3.0293,2.9848,2.9316,2.8685,2.822,2.8054,2.8186,2.8054,2.8152,2.8396,2.8235,2.8284,2.8411,2.8411,2.8411,2.8396,2.8541,2.87,2.8904,2.8904,2.8967,2.9121,0.0,0.0,0.0,0.0,0.0,0.0,0.0,2.5115,2.5115,2.5096,2.502,2.4901,2.48,2.4694,2.4554,2.4356,2.4321,2.4266,2.4135,2.4192,2.4321,2.4596,2.4794,0.0,2.5101,2.5627,2.6026,2.6301,2.7834,2.8771,2.9147,3.0094,3.0592,3.0723,3.0739,3.0696,3.0622,3.0664,3.0614,3.053,3.0501,3.046,3.0417,0.0,0.0,0.0,0.0,0.0,0.0,0.0,0.0,0.0,0.0,0.0,0.0,0.0,0.0,0.0,0.0,0.0,0.0,0.0,0.0,0.0,0.0,0.0,0.0,0.0,0.0,0.0,0.0,0.0,0.0,0.0,0.0,3.0208,2.9699,2.994,3.0117,2.9959,3.0601,3.1041,3.0965,3.1644,3.1937,3.1588,3.1769,3.1683,3.1182,3.0967,3.0835,3.0712,3.0891,3.0716,3.0166,2.9673,2.918,2.8685,2.822,2.8005,2.8054,2.8005,2.8069,2.8103,2.8186,2.8235,2.8235,2.8348,2.8411,2.8396,2.8541,2.8668,2.8811,2.8873,2.8967,2.9121,0.0,0.0,0.0,0.0,0.0,0.0,0.0,2.5091,2.5077,2.4989,2.4914,2.4797,2.4635,2.4506,2.4358,2.421,2.4173,2.4134,2.4054,2.4133,2.4266,2.4481,2.4657,2.4823,2.494,2.5679,2.6313,2.6801,2.8151,2.909,2.9619,3.0162,3.0516,3.0695,3.0693,3.0683,3.064,3.0687,3.0691,3.064,3.0595,3.054,3.0492,3.0501,3.0481,3.0498,3.0528,3.0576,3.0632,3.0645,0.0,0.0,0.0,0.0,0.0,0.0,0.0,0.0,0.0,0.0,0.0,0.0,0.0,0.0,0.0,0.0,0.0,0.0,0.0,0.0,0.0,0.0,0.0,0.0,3.0694,3.0813,3.0397,3.0631,3.0772,3.0631,3.1224,3.1637,3.1556,3.2065,3.2276,3.193,3.2249,3.2273,3.1849,3.1837,3.1817,3.1775,3.1775,3.1404,3.0623,3.0332,2.9832,2.9081,2.8824,2.8701,2.8752,2.8701,2.8601,2.843,2.8514,2.8412,2.8186,2.8348,2.8411,0.0,0.0,0.0,0.0,0.0,2.8967,2.9121,0.0,0.0,0.0,0.0,0.0,0.0,0.0,2.5063,2.5022,2.4815,2.4774,2.4691,2.4474,2.4288,2.4162,2.4172,2.4057,2.4034,2.4094,2.421,2.4284,2.4284,2.4355,2.453,2.4839,2.5627,2.6569,2.7646,2.8446,2.9332,3.0287,3.0298,3.0424,3.0676,3.0689,3.0698,3.0698,3.07,3.0709,3.07,3.07,3.0629,3.0528,3.0587,3.0576,3.0532,3.0604,3.0668,3.0719,3.0711,0.0,0.0,0.0,0.0,0.0,0.0,0.0,0.0,0.0,0.0,0.0,0.0,0.0,0.0,0.0,0.0,0.0,0.0,0.0,0.0,0.0,0.0,0.0,0.0,3.1277,3.143,3.1474,3.1565,3.1532,3.1318,3.1799,3.2144,3.2175,3.2367,3.2406,3.21,3.2402,3.2456,3.211,0.0,0.0,0.0,0.0,3.2315,3.1291,3.1193,3.0658,2.9579,2.9579,2.9648,2.9756,2.9633,2.9425,2.9076,2.9061,2.8784,2.8308,2.8406,2.8424,2.8396,2.8396,2.8493,2.8621,2.8826,2.8967,2.9075,0.0,0.0,0.0,0.0,0.0,0.0,0.0,2.5018,2.4945,2.4757,2.4628,2.4468,2.4208,2.4083,2.4032,2.3958,2.3978,2.3996,2.4016,2.4135,2.421,2.421,2.4338,2.4808,2.5646,2.6507,2.7455,2.8483,2.9263,2.9832,3.0128,3.0241,3.0371,3.0462,3.0564,3.0624,3.0611,3.0683,3.0707,3.0692,3.0692,3.0688,3.0651,3.0678,3.0714,3.073,3.076,3.0769,3.0774,3.0784,3.0733,3.0706,3.0757,0.0,0.0,0.0,0.0,0.0,0.0,0.0,0.0,0.0,0.0,0.0,0.0,0.0,0.0,0.0,0.0,0.0,0.0,0.0,0.0,3.1491,3.1961,3.2192,3.1908,3.2441,3.2604,3.1924,3.2498,3.3037,3.3172,3.3247,3.3261,3.3271,3.3247,3.3077,3.2734,3.2763,3.2768,3.2768,3.2177,3.1646,3.1162,3.0592,3.0068,2.9579,0.0,0.0,2.9633,2.9633,2.9574,2.9492,2.9614,2.9275,2.8692,2.8809,2.8641,2.8235,2.8477,2.8573,2.8621,2.8826,2.8904,2.8967,0.0,0.0,0.0,0.0,0.0,0.0,0.0,2.4927,2.4855,2.4582,2.4468,2.4299,2.4039,2.3969,2.3937,2.3896,2.3958,2.3996,2.3996,2.4115,2.4154,2.4057,2.4192,2.4487,2.4984,2.6355,2.7356,2.7956,2.925,2.9969,3.0109,3.024,3.033,3.0414,3.0537,3.0601,3.0603,3.0678,3.0708,3.07,3.0698,3.0717,3.0748,3.0759,3.0765,3.0798,3.0836,3.086,3.0845,3.0818,3.0774,3.0757,3.0796,3.0779,3.0742,0.0,0.0,0.0,0.0,0.0,0.0,0.0,0.0,0.0,0.0,0.0,0.0,0.0,0.0,3.1181,0.0,0.0,3.2122,3.2228,3.2606,3.277,3.2624,3.3188,3.3436,3.3042,3.3301,3.3608,3.3933,3.3746,3.3537,3.3422,3.3506,3.3523,3.335,3.3653,3.3743,3.3604,3.3016,3.2442,3.1862,3.1298,3.084,3.044,3.044,3.0496,3.0552,3.0552,3.0372,3.0043,3.0168,2.9915,2.9267,2.9091,2.886,2.856,2.8373,2.8444,2.8621,2.87,2.8795,2.8858,0.0,0.0,0.0,0.0,0.0,0.0,0.0,0.0,2.4714,2.4408,2.4284,2.4142,2.3886,2.3852,2.3855,2.3876,2.3955,2.3976,2.3976,2.4096,2.4077,2.3917,2.4039,2.4209,2.4412,2.608,2.7119,2.7478,2.912,2.9972,3.0094,3.0207,3.0318,3.039,3.053,3.0583,3.0607,3.0667,3.0702,3.0701,3.0701,3.075,3.0793,3.0793,3.0806,3.0807,3.0873,3.0898,3.0898,3.0825,3.0804,3.0806,3.0798,3.081,3.0796,3.0742,3.0751,0.0,0.0,0.0,0.0,0.0,0.0,0.0,0.0,0.0,3.1688,3.1751,3.1763,3.191,3.2462,3.2919,3.3134,3.2921,3.3057,3.3244,3.3314,3.3698,3.3999,3.4146,3.397,3.3967,3.4363,3.3932,3.3601,3.3406,3.3657,3.3801,3.3738,3.4297,3.4464,3.4168,3.3649,3.3061,3.2477,3.1962,3.1522,3.1234,3.1234,3.1292,3.1424,3.1482,3.1168,3.0645,3.0679,3.0403,2.9892,2.932,2.9152,2.9091,2.841,2.84,2.8711,2.8587,2.8636,2.8779,0.0,0.0,0.0,0.0,0.0,0.0,0.0,0.0,0.0,2.4248,2.4114,2.3953,2.3743,2.3721,2.3743,2.3825,2.3873,2.3917,2.3917,2.3978,2.3996,2.3896,2.4096,2.4598,2.5504,2.6612,2.7627,2.8528,2.9453,2.9972,3.0102,3.018,3.0254,3.0316,3.0441,3.053,3.0595,3.0678,3.0696,3.0702,3.0755,3.0786,3.0796,3.0796,3.0804,3.0814,3.0878,3.0898,3.0895,3.0827,3.081,3.081,3.0804,3.079,3.081,3.0781,0.0,3.071,3.0774,3.0743,0.0,3.1588,3.1261,3.0878,0.0,0.0,3.1751,3.2205,3.2308,3.2411,3.2705,3.2813,3.2914,3.3125,3.3178,3.3319,3.3663,3.3791,3.4075,3.472,3.431,3.4088,3.4381,3.3896,3.3672,3.3958,3.4022,3.3905,3.3486,3.3499,3.3375,3.2902,3.2266,3.1946,3.2003,3.1248,3.0999,3.1132,3.1132,3.1132,3.1146,3.1292,3.1306,3.1187,3.0705,3.0462,3.0357,2.9783,2.9582,2.9629,2.8988,2.887,2.9062,2.8627,2.8493,2.8636,0.0,0.0,0.0,0.0,0.0,0.0,0.0,0.0,0.0,0.0,2.3978,2.3834,2.3721,2.37,2.3743,2.3792,2.3834,2.3876,2.3896,2.3958,2.4036,2.4077,2.4154,2.4432,2.4927,2.5937,2.6685,2.7135,2.8552,2.9311,2.9417,2.9985,3.026,3.0316,3.0477,3.0568,3.0598,3.0665,3.0704,3.0714,3.0777,3.0801,3.081,3.0835,3.0839,3.0801,3.0839,3.0834,0.0,0.0,3.081,3.0806,3.0807,3.0804,3.0791,3.0798,3.0786,0.0,3.071,0.0,0.0,0.0,3.1942,3.2115,3.2305,3.2718,3.3072,3.3085,3.3071,3.3164,3.3486,3.3469,3.333,0.0,3.3445,3.3684,3.3791,3.432,3.4735,3.4885,3.4592,3.4399,3.4522,3.4275,3.4136,3.4118,3.4101,3.3917,3.3443,3.3391,3.3114,3.2485,3.1946,3.1637,3.1537,3.097,3.0762,3.0955,3.0955,3.1014,3.1087,3.1132,3.1234,3.1263,3.1038,3.0991,3.1046,3.0387,3.0173,3.0113,2.9522,2.9373,2.9462,2.8599,2.8396,2.8493,0.0,0.0,0.0,0.0,0.0,0.0,0.0,0.0,0.0,0.0,2.3834,2.3685,2.3656,2.3656,2.37,2.3771,2.3774,2.3837,2.3917,2.4018,2.4134,2.421,2.4321,2.4409,2.4493,2.5493,2.6027,2.611,2.7717,2.8549,2.8636,2.9567,3.0017,3.004,3.046,3.0627,3.0629,3.0691,3.0735,3.0738,3.0795,3.0823,3.0834,3.0879,3.0858,3.08,3.08,3.0793,0.0,0.0,3.0794,3.0807,3.0799,3.0801,3.0849,3.1085,3.1315,3.1514,3.1631,0.0,0.0,3.2464,3.2791,3.3114,3.3229,3.3626,3.3964,3.3866,3.375,3.373,3.3894,3.3823,3.3588,3.319,3.3605,3.3981,3.3917,3.4648,3.5115,3.4865,3.4609,3.4431,3.4251,3.4251,3.4168,3.3899,3.3662,3.3355,3.2848,3.2741,3.236,3.1721,3.1507,3.1306,3.1102,3.0747,3.0642,3.0762,3.0762,3.0821,3.0955,3.1014,3.1132,3.1234,3.1278,3.1351,3.1437,3.0929,3.0791,3.0717,3.0088,2.9958,2.9931,2.9027,2.8679,2.8593,0.0,0.0,0.0,0.0,0.0,0.0,0.0,0.0,0.0,0.0,0.0,0.0,0.0,2.3562,2.3629,2.37,2.3771,2.3876,2.3996,2.4172,2.4284,2.4303,2.4615,2.4757,2.4692,2.574,2.6314,2.6397,2.7286,2.7797,2.7945,2.8811,2.9265,2.9358,3.0289,3.0692,3.0703,3.0778,3.0801,3.0793,3.0879,3.0898,3.0896,3.0891,3.0856,3.0798,3.0798,0.0,0.0,3.0801,3.0801,3.0799,3.0797,3.0796,0.0,3.181,3.2604,3.3394,0.0,0.0,3.3344,3.4138,3.365,3.3207,3.3975,3.3918,3.3863,3.4365,3.4265,3.3961,3.3605,3.3491,3.3375,3.2961,3.3526,3.4056,3.4172,3.4605,3.4848,3.4636,3.4366,3.4002,0.0,3.3346,3.3346,3.3361,3.2625,3.1972,3.1477,3.1102,3.0673,3.0172,3.0462,3.0628,3.0642,3.0628,3.0568,3.0628,3.0628,3.0628,3.0642,3.0762,3.0895,3.1132,3.1234,3.1278,3.1336,3.1437,3.1437,3.1377,3.0746,3.0533,3.0639,3.0137,2.9626,2.9123,0.0,0.0,0.0,0.0,0.0,0.0,0.0,0.0,0.0,0.0,0.0,0.0,0.0,0.0,0.0,0.0,2.3771,2.3876,2.4036,2.421,2.4357,2.4493,2.4731,2.4893,2.4966,2.5409,2.5666,2.5736,2.6612,2.7073,2.7194,2.8009,2.8739,2.9382,2.9747,3.0211,3.0775,3.0845,3.0843,3.0792,3.0813,3.0806,3.0771,3.0777,3.0745,3.0723,0.0,0.0,3.0801,3.08,3.0801,3.0798,3.0801,3.08,3.0951,3.1785,3.3011,3.402,3.3662,0.0,3.4109,3.4281,3.4102,3.4051,3.4712,3.4697,3.4529,3.4383,3.4227,3.3998,3.3698,3.3444,3.3238,3.2993,3.3293,3.3614,3.3882,3.4109,3.4246,3.4333,3.4052,0.0,0.0,0.0,0.0,3.2516,3.2527,3.221,3.1331,3.1507,3.1438,3.0954,3.1069,3.1261,3.1438,3.1438,3.1349,3.1192,3.0771,3.0568,3.0568,3.0642,3.0762,3.0895,3.094,3.1117,3.1278,3.1351,3.1409,3.1452,3.1285,3.1195,3.1177,3.0669,3.0332,3.0091,0.0,0.0,0.0,0.0,0.0,0.0,0.0,0.0,0.0,0.0,0.0,0.0,0.0,0.0,0.0,0.0,0.0,2.3917,2.4113,2.4284,2.4444,2.4591,2.4823,2.4987,2.5099,2.5222,2.5312,2.5441,2.6013,2.6333,2.6437,2.7259,2.7957,2.8554,2.8903,2.9544,3.0334,3.0372,3.0547,3.0754,3.0769,3.0736,3.0704,3.0711,3.0704,0.0,0.0,0.0,3.0804,3.0804,3.0795,3.08,3.0797,3.1216,3.1799,3.2313,3.364,3.4839,3.4225,3.4487,3.4904,3.4825,3.4778,3.4847,3.5128,3.5049,3.4774,3.4325,3.408,3.3895,3.3671,3.3397,3.316,3.3037,3.3489,3.3838,3.3722,3.4037,3.427,3.4053,3.3678,3.3277,0.0,0.0,0.0,3.2338,3.2183,3.1816,3.1389,3.1517,3.1547,3.1244,3.1377,3.1495,3.1744,3.186,3.1754,3.1511,3.0783,3.0467,3.0568,3.0568,3.0642,3.0702,3.0762,3.094,3.1102,3.1219,3.1351,3.1409,3.1467,3.1482,3.148,3.1159,3.1065,3.087,0.0,0.0,0.0,0.0,0.0,0.0,0.0,0.0,0.0,0.0,0.0,0.0,0.0,0.0,0.0,0.0,0.0,0.0,2.4209,2.441,2.4526,2.4623,2.4889,2.5044,2.5102,2.5186,2.5318,2.5504,2.5565,2.5648,2.5718,2.6546,2.696,2.7022,2.7851,2.868,2.943,2.9419,2.9911,3.0622,3.0628,3.0665,3.0704,3.0696,0.0,0.0,0.0,0.0,0.0,3.0804,0.0,0.0,3.0799,3.1925,3.3253,3.3287,3.4451,3.5732,3.5784,3.5747,3.5699,3.5688,3.5643,3.5534,3.5243,3.4943,3.4572,3.4195,3.3884,3.3671,0.0,0.0,3.316,3.3086,3.3997,3.4403,3.3492,3.4263,3.462,0.0,0.0,0.0,0.0,0.0,0.0,3.2673,0.0,3.0991,3.1533,3.1165,3.0991,3.0991,3.126,3.1475,3.1475,3.1735,3.1747,3.1488,3.0566,3.0291,3.0611,3.0582,3.0568,3.0628,3.0702,3.0762,3.0821,3.1176,3.1278,3.1278,3.1424,3.1467,3.1539,3.1727,3.167,3.1402,0.0,0.0,0.0,0.0,0.0,0.0,0.0,0.0,0.0,0.0,0.0,0.0,0.0,0.0,0.0,0.0,0.0,0.0,2.4392,2.4524,2.4678,2.4961,2.5138,2.5245,2.533,2.5441,2.5525,2.5571,2.5632,2.5673,2.5703,2.5937,2.6345,2.6949,2.7159,2.7732,2.8524,2.8531,2.9004,2.9725,0.0,3.0083,3.0629,0.0,0.0,0.0,0.0,0.0,0.0,0.0,0.0,0.0,0.0,3.1529,3.2527,3.3122,3.4027,3.4955,3.5553,3.5708,3.5699,3.5706,3.5651,3.5489,3.5133,3.487,3.4569,3.4111,3.3895,3.3753,3.3671,0.0,0.0,3.2666,3.228,0.0,3.1848,3.2373,0.0,3.266,0.0,3.2226,3.1987,3.097,0.0,0.0,3.1344,3.1244,3.135,3.1676,3.1864,3.1864,3.1921,3.2134,3.2388,3.1834,3.1584,3.162,3.0582,3.0197,3.0425,3.0528,3.0568,3.0568,3.0642,3.0702,3.0821,3.0881,3.1014,3.1132,3.119,3.1249,3.1351,3.1409,3.1467,3.1495,0.0,0.0,0.0,0.0,0.0,0.0,0.0,0.0,0.0,0.0,0.0,0.0,0.0,0.0,0.0,0.0,0.0,0.0,0.0,2.4588,2.479,2.5101,2.5201,2.5303,2.5395,2.5467,2.5542,2.5603,2.5661,2.5679,2.5663,2.5659,2.5894,2.634,2.6324,2.6804,2.7601,2.759,2.8042,0.0,0.0,0.0,0.0,0.0,0.0,0.0,0.0,0.0,0.0,0.0,0.0,3.0807,3.0806,3.1388,3.2219,3.3057,0.0,3.4675,3.5514,3.5728,3.5698,3.5697,3.5565,3.5321,3.4978,3.4676,3.4375,3.3979,3.3842,0.0,3.3671,3.3075,0.0,0.0,0.0,0.0,3.1427,3.2043,3.2353,0.0,3.199,0.0,3.1246,3.0254,3.0003,0.0,3.0894,3.1158,3.1639,3.2006,3.2182,3.2182,3.2182,3.2228,3.2318,3.1387,3.1007,3.1165,3.014,2.9686,2.9783,2.9839,2.9785,2.967,0.0,2.9732,2.9794,3.0176,3.0251,3.0129,3.0493,3.0478,3.0329,3.0404,3.0658,3.1029,0.0,0.0,0.0,0.0,0.0,0.0,0.0,0.0,0.0,0.0,0.0,0.0,0.0,0.0,0.0,0.0,0.0,0.0,0.0,0.0,0.0,2.5118,2.5198,2.5284,2.542,2.5421,2.5483,2.5615,2.5662,2.5664,2.5604,2.56,2.5602,2.5596,2.5592,2.5964,2.6633,2.6633,2.7094,2.7834,0.0,0.0,0.0,0.0,0.0,0.0,0.0,0.0,0.0,0.0,3.0798,3.0794,3.079,3.1266,3.2026,3.3005,3.3786,3.4542,3.5523,3.5747,3.5688,3.5667,3.5432,3.513,3.4851,3.447,3.4104,3.3721,0.0,3.3551,3.3323,3.2691,3.2299,3.2409,0.0,3.1789,3.1423,3.2187,3.2482,3.156,3.154,3.1215,3.0375,2.9766,2.9683,3.031,3.0405,3.0934,3.2114,3.2182,3.2182,3.2182,3.2096,3.1923,3.1723,3.0696,3.0286,3.0355,2.9459,2.9014,2.8972,2.8959,2.8798,2.8427,2.8492,2.8492,2.8556,2.9282,2.9296,2.8853,2.9518,2.9442,2.9016,2.917,2.9594,3.0208,0.0,0.0,0.0,0.0,0.0,0.0,0.0,0.0,0.0,0.0,2.2996,2.3813,0.0,0.0,0.0,0.0,0.0,0.0,0.0,0.0,0.0,0.0,2.535,2.5426,2.557,2.5576,2.56,2.5689,2.5698,2.5663,2.5601,2.5598,2.5579,2.5518,2.5531,2.5587,2.5727,2.573,2.6216,2.7006,0.0,0.0,0.0,0.0,0.0,0.0,0.0,0.0,0.0,0.0,3.0806,3.0784,3.0725,3.0806,3.1242,3.2822,3.3363,3.3757,3.5291,3.5708,3.5657,3.5502,3.5316,3.5098,3.4735,3.4423,0.0,0.0,3.2797,3.2491,3.1745,3.0892,3.0462,3.1044,0.0,0.0,0.0,0.0,3.0783,0.0,0.0,0.0,0.0,0.0,0.0,0.0,0.0,3.0934,3.2114,3.2182,3.2182,3.2182,3.1629,3.1381,3.1294,3.0165,2.9666,2.9847,2.929,2.8855,2.8589,2.886,2.8732,2.8247,2.8427,0.0,2.8492,2.8684,2.8634,2.857,2.8684,2.8762,2.8853,2.8853,2.9107,2.9484,0.0,0.0,0.0,0.0,0.0,0.0,0.0,2.0355,2.088,2.088,2.1876,2.2763,2.318,2.366,0.0,0.0,0.0,0.0,0.0,0.0,0.0,0.0,0.0,0.0,0.0,2.5604,2.5613,0.0,0.0,2.5627,2.5604,2.5551,2.5556,2.5544,2.5524,2.5498,2.5498,2.5492,2.5732,2.6126,0.0,0.0,0.0,0.0,0.0,0.0,0.0,0.0,0.0,0.0,3.0665,3.0656,3.0685,3.0691,3.0944,3.2198,3.2862,3.3458,3.4601,3.5226,3.5507,3.5283,3.5062,3.4718,3.4067,0.0,0.0,0.0,3.1971,3.1741,3.1057,3.0374,0.0,0.0,0.0,0.0,0.0,0.0,0.0,0.0,0.0,0.0,0.0,0.0,0.0,0.0,0.0,3.0569,3.2114,3.1863,3.1542,3.1246,3.0934,3.0545,3.0254,2.9716,2.9263,2.9106,2.8823,2.841,2.7827,2.7974,2.7754,2.7162,2.7297,2.7351,2.7484,2.7868,2.7802,2.7484,2.7868,2.7802,2.763,2.7696,2.8012,2.8454,0.0,0.0,0.0,0.0,0.0,0.0,0.0,1.963,2.0047,2.0047,2.0735,2.1477,2.2129,2.3077,2.3775,0.0,0.0,0.0,0.0,0.0,0.0,0.0,0.0,0.0,0.0,0.0,0.0,0.0,0.0,0.0,0.0,0.0,0.0,0.0,0.0,0.0,0.0,2.5525,2.5518,0.0,0.0,0.0,0.0,0.0,0.0,0.0,0.0,0.0,0.0,0.0,3.0539,3.053,3.061,3.0637,3.0789,3.1599,3.2326,3.3016,3.3704,3.436,3.4801,3.456,3.4282,3.3855,3.3112,3.2669,0.0,0.0,3.1102,3.0903,3.0297,0.0,2.9362,0.0,2.8622,2.8319,0.0,0.0,0.0,0.0,0.0,0.0,0.0,0.0,0.0,0.0,0.0,0.0,3.1736,3.1307,3.0771,3.0317,3.0165,2.9871,2.9419,2.9263,2.8961,2.851,2.839,2.7915,2.7124,2.7089,2.6663,2.6062,2.6131,2.627,2.6465,2.6973,2.6905,2.6521,2.7095,2.6973,2.6533,2.6589,2.704,2.7484,0.0,0.0,0.0,0.0,0.0,0.0,0.0,1.9159,1.9214,1.9214,1.9902,2.0445,2.0518,2.1953,2.327,0.0,0.0,0.0,0.0,0.0,0.0,0.0,0.0,0.0,0.0,0.0,0.0,0.0,0.0,0.0,0.0,0.0,0.0,0.0,0.0,0.0,0.0,0.0,0.0,0.0,0.0,0.0,0.0,0.0,0.0,0.0,0.0,0.0,0.0,0.0,0.0,3.0492,3.0443,3.0433,3.0597,3.1386,0.0,0.0,3.2653,3.2947,3.2962,3.2627,3.2392,3.2177,3.1916,0.0,0.0,3.0485,3.0204,2.9799,2.8711,2.8085,0.0,0.0,0.0,2.8434,0.0,0.0,0.0,0.0,0.0,0.0,0.0,0.0,0.0,0.0,0.0,0.0,3.0443,3.0406,3.0317,3.0317,2.9793,2.9496,2.9419,2.8895,2.859,2.8498,2.8029,2.7488,2.6911,2.6627,2.6165,2.5688,2.5828,2.605,0.0,2.627,2.6396,2.6533,2.6589,2.6521,2.6533,2.6533,2.6658,2.6782,0.0,0.0,0.0,0.0,0.0,0.0,1.9087,1.9087,1.9087,1.9087,1.9377,1.9757,2.0246,2.0934,2.1917,2.3271,0.0,0.0,0.0,0.0,0.0,0.0,0.0,0.0,0.0,0.0,0.0,2.5641,2.5644,0.0,0.0,0.0,0.0,0.0,0.0,0.0,0.0,0.0,0.0,0.0,0.0,0.0,0.0,0.0,0.0,0.0,0.0,0.0,0.0,0.0,0.0,0.0,3.0328,3.0279,0.0,0.0,3.1234,3.1667,3.1824,3.2199,3.2502,3.2241,3.2045,3.1768,3.1129,0.0,3.043,2.9344,2.9062,2.8773,2.7858,2.7512,2.7327,0.0,0.0,0.0,2.7535,0.0,0.0,0.0,0.0,0.0,0.0,0.0,0.0,0.0,0.0,0.0,2.8731,2.9387,2.9561,2.9263,2.8961,2.8895,2.8895,2.8264,2.8041,2.8029,2.75,2.6959,2.6418,2.6275,2.5961,2.5606,2.5676,2.5828,0.0,2.6131,2.627,2.6339,2.6465,2.6533,2.6533,2.6533,2.6521,2.6589,0.0,0.0,0.0,0.0,0.0,1.9087,1.9087,1.9087,1.9087,1.9087,1.9104,1.9321,1.9884,1.999,2.0606,2.1972,2.2852,0.0,0.0,0.0,0.0,0.0,0.0,0.0,0.0,0.0,2.5598,2.5599,2.5664,2.567,0.0,0.0,0.0,0.0,0.0,0.0,0.0,0.0,0.0,0.0,0.0,0.0,0.0,0.0,0.0,0.0,0.0,0.0,0.0,0.0,0.0,0.0,0.0,0.0,0.0,0.0,3.067,3.1063,3.0877,3.1193,3.1558,3.139,3.1246,3.095,0.0,0.0,2.9612,2.8623,2.8368,2.8139,2.7439,2.7272,2.71,2.6572,0.0,2.6932,2.7147,2.7039,0.0,0.0,0.0,0.0,0.0,0.0,0.0,0.0,0.0,0.0,2.72,2.8126,2.8631,2.8498,2.8366,2.827,2.827,2.7753,2.7488,2.7488,2.6947,2.6478,2.6093,2.5937,2.5732,2.5535,2.5535,2.5606,0.0,2.598,2.6062,2.6131,2.6327,2.6396,2.6396,2.6465,2.6533,2.6533,0.0,0.0,0.0,0.0,0.0,0.0,1.9087,1.9087,1.9087,1.9087,1.9101,1.9101,1.9122,1.917,1.9549,2.0352,2.2237,0.0,0.0,0.0,0.0,0.0,0.0,0.0,0.0,0.0,2.5593,2.5609,2.5663,2.5661,2.5601,2.56,2.5568,0.0,0.0,0.0,0.0,0.0,0.0,0.0,0.0,0.0,0.0,0.0,0.0,0.0,0.0,0.0,0.0,0.0,0.0,0.0,0.0,0.0,0.0,0.0,2.9956,2.9874,2.9738,2.9719,2.97,2.955,2.9427,2.932,0.0,2.9044,2.8815,2.8471,2.829,2.802,2.7409,2.7258,2.707,2.6589,2.7035,0.0,2.7421,2.7529,0.0,0.0,0.0,0.0,0.0,0.0,0.0,0.0,0.0,0.0,2.6117,2.6647,2.7428,2.8474,2.8005,2.7729,2.7729,2.7212,2.6947,2.6935,2.637,2.6105,2.6081,2.5552,2.5312,2.5312,2.5312,2.5382,0.0,2.5618,2.5688,2.591,2.6131,2.6213,2.6201,2.6396,2.6533,2.6533,0.0,0.0,0.0,0.0,0.0,0.0,0.0,1.9193,1.914,1.9212,1.9175,1.9102,1.9101,1.9134,1.9324,1.9755,2.0951,0.0,0.0,0.0,0.0,0.0,0.0,0.0,0.0,0.0,2.5591,2.5598,2.5663,2.5673,2.56,2.5542,2.5505,2.5418,2.5488,0.0,0.0,0.0,0.0,0.0,0.0,0.0,0.0,0.0,0.0,0.0,0.0,0.0,0.0,0.0,0.0,0.0,0.0,0.0,0.0,0.0,0.0,0.0,2.9718,2.9664,2.9608,2.9414,2.9328,2.928,2.9175,2.8845,2.8446,2.8129,2.7823,2.7439,2.7004,2.6842,2.6742,2.652,2.6617,0.0,0.0,0.0,0.0,0.0,0.0,0.0,0.0,0.0,0.0,0.0,0.0,0.0,2.6081,2.6262,2.6695,2.7404,2.7272,2.7188,2.7188,2.6635,2.6358,2.6358,2.5817,2.5564,2.5552,2.5384,2.5312,2.5312,2.5312,2.5312,2.5382,2.5535,2.5606,2.5676,2.591,2.6062,2.6213,2.627,2.6396,2.6533,0.0,0.0,0.0,0.0,0.0,0.0,0.0,1.9261,1.9206,1.9292,1.9255,1.9214,1.9256,1.9301,1.9376,1.9527,2.0131,0.0,0.0,0.0,0.0,0.0,0.0,0.0,0.0,2.5529,2.5604,2.5593,2.5664,2.5683,2.5636,2.5576,2.5504,2.5449,2.5476,0.0,0.0,0.0,0.0,0.0,0.0,0.0,2.5191,0.0,0.0,0.0,0.0,0.0,0.0,0.0,0.0,0.0,0.0,0.0,0.0,0.0,2.9608,2.9589,0.0,2.9589,2.9453,2.9212,2.9101,0.0,0.0,2.8489,2.8129,2.7765,2.7487,2.7164,2.6758,2.6657,2.6589,2.652,2.6225,0.0,0.0,0.0,0.0,0.0,0.0,0.0,0.0,0.0,0.0,2.5312,2.5312,2.5456,2.5781,2.5793,2.5961,2.631,2.6514,2.661,2.661,2.6081,2.5793,2.5793,2.5468,2.5312,2.5312,2.5312,2.5312,2.5312,2.5312,2.5312,0.0,2.5465,2.5465,2.5535,2.5688,2.5828,2.598,2.6062,2.6188,2.6396,0.0,0.0,0.0,0.0,0.0,0.0,0.0,1.9342,1.9332,1.9328,1.9383,1.9438,1.9518,1.9612,1.9669,1.9623,0.0,0.0,0.0,0.0,0.0,0.0,0.0,0.0,0.0,2.5529,2.5604,2.5612,2.5661,2.5698,2.5687,2.5629,2.5566,2.5486,2.5498,2.5472,0.0,0.0,0.0,0.0,0.0,0.0,0.0,0.0,0.0,0.0,0.0,0.0,0.0,0.0,0.0,0.0,0.0,0.0,0.0,0.0,0.0,0.0,0.0,2.9433,0.0,0.0,0.0,0.0,2.8264,2.8037,0.0,2.7439,2.7258,2.7053,2.6758,2.6623,2.6503,2.645,2.5868,0.0,0.0,0.0,0.0,0.0,0.0,0.0,0.0,0.0,2.5312,2.5312,2.5312,2.5312,2.5312,2.5312,2.5312,2.5312,2.5709,2.5973,2.6045,2.5552,2.5312,2.5312,2.5312,2.5312,2.5312,2.5229,2.5229,0.0,2.5158,2.5158,2.5229,2.5229,2.5229,2.5229,2.5465,2.5535,2.5453,2.5688,2.591,2.6062,0.0,0.0,0.0,0.0,0.0,0.0,0.0,0.0,0.0,0.0,1.9625,1.9567,1.9656,1.9643,1.9676,0.0,0.0,0.0,0.0,0.0,0.0,0.0,0.0,0.0,0.0,2.5638,2.5685,2.5683,2.5683,2.5664,2.5629,2.5617,2.5515,2.5352,2.5459,2.5456,0.0,0.0,0.0,0.0,0.0,0.0,0.0,0.0,0.0,0.0,2.4712,2.4601,0.0,0.0,0.0,0.0,0.0,0.0,0.0,0.0,2.8361,2.8748,2.8814,0.0,2.8724,2.8504,2.8428,2.8324,0.0,2.7765,2.747,0.0,0.0,2.6775,2.6657,2.6295,2.5957,2.5885,0.0,0.0,0.0,0.0,0.0,0.0,0.0,0.0,0.0,2.5591,2.5312,2.5312,2.5312,2.5312,2.5312,2.5312,2.5312,2.5312,2.4825,2.4895,2.5492,2.5372,2.5312,2.5312,2.5312,2.5312,2.53,2.4636,2.4409,2.4337,2.3768,2.3829,2.4409,2.4409,2.4409,2.442,2.5087,2.4707,2.3818,2.4492,2.4862,2.5016,0.0,0.0,0.0,0.0,0.0,0.0,0.0,0.0,0.0,0.0,0.0,0.0,0.0,0.0,0.0,0.0,0.0,0.0,0.0,0.0,0.0,0.0,0.0,0.0,2.5609,2.5677,2.5699,2.571,2.5703,2.5681,2.5645,2.5655,2.5547,2.5386,2.5387,2.5395,2.5351,0.0,0.0,0.0,2.5101,0.0,0.0,0.0,0.0,0.0,2.4508,2.4355,0.0,2.4135,2.439,2.4795,0.0,0.0,0.0,0.0,2.7695,2.7969,2.8156,2.8368,2.8446,2.8166,2.8102,2.801,2.7666,0.0,0.0,0.0,0.0,0.0,2.633,2.5832,0.0,0.0,2.4979,0.0,0.0,0.0,0.0,0.0,0.0,0.0,0.0,0.0,2.5312,2.5312,2.5312,2.5158,2.4779,2.5087,2.4945,2.4276,2.412,2.4337,2.4719,2.442,2.4276,2.4276,2.4276,2.442,2.4707,2.3975,2.3745,2.4047,2.3316,2.3254,2.361,2.361,2.361,2.361,2.4059,2.3756,2.3158,2.361,2.3902,2.3963,0.0,0.0,0.0,0.0,0.0,0.0,0.0,0.0,0.0,0.0,0.0,0.0,0.0,0.0,0.0,0.0,0.0,0.0,0.0,0.0,0.0,0.0,0.0,2.5531,2.5613,2.5674,2.571,2.5697,2.5703,2.5709,2.5707,2.5698,2.5629,2.5496,2.5357,2.5292,2.529,2.5144,2.5107,2.5137,2.4974,0.0,0.0,0.0,0.0,0.0,0.0,0.0,0.0,2.3858,2.3753,2.3819,2.4638,0.0,0.0,0.0,0.0,0.0,2.7494,2.7875,2.8112,2.7869,2.7771,2.7612,0.0,0.0,0.0,0.0,0.0,0.0,0.0,0.0,0.0,0.0,0.0,0.0,0.0,0.0,0.0,0.0,0.0,0.0,2.408,2.4816,2.5312,2.5312,2.5158,2.4791,2.412,2.4636,2.4348,2.3032,2.3463,2.3745,2.3745,2.3243,2.3032,2.3032,2.3032,2.3316,2.3902,2.3169,2.3169,2.3745,0.0,0.0,2.2809,2.2809,2.2809,2.2809,2.2957,2.2883,2.266,2.2809,2.2872,2.2999,0.0,0.0,0.0,0.0,0.0,0.0,0.0,0.0,0.0,0.0,0.0,0.0,0.0,0.0,0.0,0.0,0.0,0.0,0.0,0.0,0.0,0.0,2.4011,2.4942,2.5672,2.5689,2.5694,2.5702,2.5702,2.5696,2.5707,2.5705,2.5639,2.5496,2.5371,2.5274,2.5217,2.5132,2.5038,2.4942,2.4915,0.0,0.0,0.0,0.0,0.0,0.0,0.0,0.0,2.3611,2.3544,2.3539,2.3578,0.0,0.0,0.0,0.0,0.0,2.6696,2.6926,2.7192,2.7434,2.7386,2.7244,2.7072,0.0,0.0,0.0,0.0,0.0,0.0,0.0,0.0,0.0,0.0,0.0,0.0,0.0,0.0,0.0,0.0,2.4274,2.5049,2.5229,2.5312,2.5312,2.4636,2.4264,2.412,2.361,2.3243,2.3032,2.2424,2.2124,2.2124,2.2734,2.3032,2.3032,2.3032,2.3032,2.3169,2.236,2.2059,2.2124,0.0,2.1308,2.1983,2.1983,2.1983,2.2059,2.2734,2.2134,2.1011,2.1756,2.1983,2.2059,0.0,0.0,0.0,0.0,0.0,0.0,0.0,0.0,0.0,0.0,0.0,0.0,0.0,0.0,0.0,0.0,0.0,0.0,0.0,0.0,0.0,2.2945,2.3455,2.4321,2.5675,2.5701,2.5703,2.5702,2.5701,2.5697,2.5707,2.5586,2.5517,2.5441,2.5321,2.5198,2.5144,2.5051,2.4947,2.4888,0.0,0.0,0.0,0.0,0.0,0.0,0.0,0.0,0.0,0.0,2.3336,2.3265,2.3217,0.0,0.0,0.0,0.0,0.0,2.6104,2.6145,2.6133,2.6771,2.6741,2.6488,2.6245,0.0,0.0,0.0,0.0,0.0,0.0,0.0,0.0,0.0,0.0,0.0,0.0,2.3864,2.3857,0.0,0.0,2.3924,2.4462,2.436,2.4354,2.4624,2.3975,2.3316,2.2861,2.2947,2.2585,2.1766,2.1766,2.1614,2.1165,2.1538,2.168,2.168,2.168,2.1907,2.236,2.1538,2.1385,2.1766,0.0,2.0789,2.1165,2.1165,2.1165,2.1165,2.1538,2.1242,2.0644,2.1011,2.1252,2.1339,0.0,0.0,0.0,0.0,0.0,0.0,0.0,0.0,0.0,0.0,0.0,0.0,0.0,0.0,0.0,0.0,0.0,0.0,0.0,0.0,2.1113,2.2929,2.3068,2.3927,2.5668,2.57,2.5703,2.57,2.57,2.5696,2.5679,2.5522,2.5428,2.5367,2.5244,2.5137,2.5057,2.4921,2.4847,2.479,0.0,0.0,0.0,0.0,0.0,0.0,0.0,0.0,0.0,0.0,0.0,0.0,0.0,0.0,0.0,2.3667,2.3759,2.399,2.5419,2.5438,2.5228,2.5994,0.0,2.5888,2.5577,0.0,0.0,0.0,0.0,0.0,0.0,0.0,0.0,0.0,0.0,2.3886,2.416,2.4034,2.3708,2.3088,2.3306,2.3573,2.361,2.3454,2.3546,2.3925,2.3176,2.2435,2.1832,2.2209,2.1832,2.0644,2.1165,2.1242,2.0644,2.0566,2.0566,2.0566,2.0566,2.0934,2.1461,2.0867,2.0944,2.1461,2.0867,2.0566,2.0566,2.0566,2.0566,2.0566,2.0566,2.0566,2.0566,2.0566,2.0731,2.0829,0.0,0.0,0.0,0.0,0.0,0.0,0.0,0.0,0.0,0.0,0.0,0.0,0.0,0.0,0.0,0.0,0.0,0.0,0.0,0.0,2.1104,2.2929,2.3054,2.3911,2.5668,2.5697,2.5703,2.57,2.57,2.567,2.5605,2.5589,2.5498,2.5299,2.5226,2.5096,2.4902,2.4837,2.4704,2.4528,2.4512,0.0,0.0,0.0,0.0,0.0,0.0,0.0,0.0,0.0,0.0,0.0,0.0,0.0,2.2755,2.2807,2.3182,2.3773,2.4458,2.458,2.4684,2.5153,0.0,0.0,2.554,2.5443,0.0,0.0,0.0,0.0,0.0,0.0,0.0,0.0,2.3298,2.3077,2.2895,0.0,2.2678,2.2309,2.2718,2.3055,2.3027,2.3255,2.3408,2.3442,2.2485,2.1832,2.1832,2.1165,2.0712,2.0566,2.0644,2.0644,2.0566,2.0566,2.0566,2.0566,2.0566,2.0644,2.0712,2.0644,2.0644,2.0712,2.0644,2.0566,2.0566,2.0566,2.0566,2.0566,2.0566,2.0566,2.0566,2.0566,2.0644,2.0644,0.0,0.0,0.0,0.0,0.0,0.0,0.0,0.0,0.0,0.0,0.0,0.0,0.0,0.0,0.0,0.0,0.0,0.0,0.0,0.0,2.1662,2.2948,2.3578,2.4475,2.5668,2.5691,2.5701,2.57,2.5696,2.5687,2.5651,2.5527,2.5434,2.5364,2.5194,2.5101,2.5012,2.4779,2.4623,2.4543,2.4338,2.4153,0.0,0.0,0.0,0.0,0.0,0.0,0.0,0.0,2.285,2.2764,2.25,2.2419,2.2364,2.2243,2.2228,2.2418,2.3274,2.3422,2.3544,2.4361,0.0,0.0,0.0,0.0,0.0,0.0,0.0,0.0,0.0,0.0,0.0,2.3647,2.3341,2.2852,2.258,2.2482,2.2432,2.2185,2.2366,2.248,2.2327,2.1958,2.168,2.1637,2.0751,2.0276,2.0276,1.9989,1.9766,1.9766,1.9766,1.9766,1.9766,1.9766,1.9701,1.9635,2.0312,2.0566,2.0566,2.0566,2.0566,2.0566,2.0566,2.0566,2.0566,2.0566,2.0566,2.0566,2.0566,2.0566,2.0566,2.0566,2.0566,2.0644,0.0,0.0,0.0,0.0,0.0,0.0,0.0,0.0,0.0,0.0,0.0,0.0,0.0,0.0,0.0,0.0,0.0,0.0,2.0257,2.1125,2.2042,2.2987,2.3915,2.4807,2.5687,2.5707,2.5697,2.5703,2.5694,2.5679,2.5619,2.5477,2.5374,2.5332,2.5126,2.5025,2.5012,2.4685,2.4543,2.4476,2.4154,2.3955,0.0,0.0,0.0,0.0,0.0,0.0,0.0,0.0,2.2517,2.2463,2.2124,2.1994,2.1936,2.1823,2.1554,2.1485,2.2392,2.2591,2.2758,0.0,0.0,0.0,0.0,0.0,0.0,0.0,0.0,0.0,0.0,0.0,0.0,0.0,2.3264,2.2787,2.2482,2.2223,2.2037,2.1862,2.1663,2.1475,2.1345,2.0785,2.0334,2.0242,1.9633,1.9287,1.9287,1.9287,1.9287,1.9287,1.9287,1.9287,1.9287,1.9287,1.9224,1.9014,1.9808,2.0166,2.0099,2.0236,2.0361,2.0371,2.0508,2.0566,2.0566,2.0566,2.0566,2.0566,2.0566,2.0566,2.0566,2.0566,2.0566,2.0566,0.0,0.0,0.0,0.0,0.0,0.0,0.0,0.0,0.0,0.0,0.0,0.0,0.0,0.0,0.0,0.0,0.0,0.0,2.0383,2.122,2.2137,2.3064,2.3946,2.4827,2.5687,2.5707,2.5693,2.57,2.5698,2.5639,2.5504,2.5434,2.5332,2.5182,2.4994,2.4902,2.4888,2.4607,2.4409,2.4266,2.3998,2.3831,2.3656,0.0,0.0,0.0,0.0,0.0,0.0,0.0,2.194,2.1853,2.1658,2.1538,2.1493,2.1477,2.1306,2.1231,2.1839,2.2189,0.0,0.0,0.0,0.0,0.0,0.0,0.0,0.0,0.0,0.0,0.0,0.0,0.0,2.3132,2.2984,2.2787,2.2482,2.1839,2.1325,2.1123,2.0484,2.0096,2.0107,1.9864,1.9658,1.9658,1.9453,1.9277,1.9277,1.9277,1.9277,1.9277,1.9277,1.9277,1.9277,1.9277,1.9204,1.8995,1.9204,1.9214,1.9024,1.9447,1.9781,1.9932,2.0361,2.0557,2.0557,2.0557,2.0557,2.0557,2.0557,2.0557,2.0557,2.0557,2.0557,2.0557,0.0,0.0,0.0,0.0,0.0,0.0,0.0,0.0,0.0,0.0,0.0,0.0,0.0,0.0,0.0,0.0,0.0,0.0,2.0387,2.1788,2.2764,2.3083,2.4514,2.5434,2.5687,2.5698,2.5703,2.5703,2.5658,2.5615,2.558,2.5401,2.5299,2.5255,2.5005,2.4869,2.4809,2.4493,2.4321,2.4192,2.3894,2.3678,2.3522,0.0,0.0,0.0,0.0,0.0,0.0,0.0,0.0,0.0,2.1339,2.123,2.1166,2.1039,2.0909,2.0875,2.1047,0.0,0.0,0.0,0.0,0.0,0.0,0.0,0.0,0.0,0.0,0.0,0.0,0.0,0.0,2.3399,2.3132,2.2616,2.2309,2.1651,2.1198,2.1135,2.0484,1.9901,1.9375,1.9235,1.8981,1.8526,1.8449,1.8389,1.8389,1.8389,1.8389,1.8389,1.8389,1.8389,1.8389,1.824,1.816,1.8091,1.804,1.8356,1.9014,1.9277,1.9409,1.9482,1.9609,1.9668,1.9668,1.9668,1.9668,1.9668,1.9668,1.9668,1.9707,2.0,2.0107,2.0146,0.0,0.0,0.0,0.0,0.0,0.0,0.0,0.0,0.0,0.0,0.0,0.0,0.0,0.0,0.0,0.0,0.0,0.0,0.0,2.209,2.3054,2.3107,2.4774,2.5694,2.5697,2.5703,2.5699,2.5661,2.5624,2.5595,2.5552,2.5379,2.5263,2.5216,2.4943,2.4814,2.4771,2.4392,2.421,2.4116,2.3768,2.3522,2.3336,0.0,0.0,0.0,0.0,0.0,0.0,0.0,0.0,0.0,2.1087,0.0,2.0925,2.0563,2.0395,2.0273,1.998,0.0,0.0,0.0,0.0,0.0,0.0,0.0,0.0,0.0,0.0,0.0,2.2631,2.2463,0.0,2.32,2.2702,2.2099,2.1788,2.0869,2.0279,2.0279,1.9704,1.9121,1.8654,1.8586,1.8462,1.8008,1.8008,1.8008,1.8008,1.8008,1.8008,1.8008,1.8008,1.8008,1.8008,1.7784,1.7647,1.7657,1.7529,1.7805,1.829,1.8749,1.8899,1.8817,1.8899,1.8961,1.9014,1.8848,1.8779,1.8779,1.8779,1.8779,1.8809,1.9072,1.9258,1.9443,0.0,0.0,0.0,0.0,0.0,0.0,0.0,0.0,0.0,0.0,0.0,0.0,0.0,0.0,0.0,0.0,0.0,0.0,0.0,0.0,2.3134,2.3208,2.48,2.5703,2.5703,2.5681,2.5661,2.5595,2.5591,2.5551,2.5492,2.536,2.5226,2.5091,2.4842,2.4746,2.4734,2.4284,2.4095,2.4039,2.3638,2.336,2.3126,2.2599,0.0,0.0,0.0,0.0,0.0,0.0,0.0,0.0,2.086,2.0794,2.0679,2.0158,1.9879,1.963,1.8954,0.0,0.0,0.0,0.0,0.0,0.0,0.0,0.0,0.0,0.0,0.0,2.1576,2.2321,2.2917,2.2628,2.1913,2.1325,2.1071,1.9824,1.8977,1.8977,1.8395,1.8008,1.8008,1.8008,1.8008,1.8008,1.8008,1.8008,1.8008,1.8008,1.8008,1.8008,1.8008,1.8008,1.794,1.7784,1.7657,1.747,1.747,1.7392,1.7254,1.7999,1.8251,1.809,1.8251,1.8453,1.8555,1.8164,1.7988,1.7959,1.7959,1.793,1.79,1.7939,1.8193,1.8525,0.0,0.0,0.0,0.0,0.0,0.0,0.0,0.0,0.0,0.0,0.0,0.0,0.0,0.0,0.0,0.0,0.0,0.0,0.0,0.0,2.3407,2.409,2.5136,2.5694,2.5693,2.5645,2.5617,2.5595,2.5556,2.5478,2.5414,2.5274,2.5171,2.5094,2.4929,2.4712,2.4493,2.4321,2.4075,2.3768,2.3522,2.3336,2.3126,2.2546,2.2164,0.0,0.0,0.0,0.0,0.0,0.0,0.0,2.0827,2.0794,2.0761,2.0595,2.0189,1.9752,0.0,1.9284,0.0,0.0,0.0,0.0,0.0,0.0,0.0,0.0,0.0,2.0707,2.1169,2.1525,2.1683,2.1685,2.1526,2.1135,2.042,1.9573,1.8977,1.8977,1.8395,1.8008,1.8008,1.8008,1.8008,1.8008,1.8008,1.8008,1.8008,1.8008,1.8008,1.8008,1.8008,1.794,1.7784,1.7598,1.7529,1.747,1.7314,1.7245,1.7235,1.7555,1.7732,1.7781,1.8007,1.8076,1.8135,1.8047,1.7812,1.7519,1.7519,1.7305,1.7051,1.7393,1.7578,1.7705,0.0,0.0,0.0,0.0,0.0,0.0,0.0,0.0,0.0,0.0,0.0,0.0,0.0,0.0,0.0,0.0,0.0,0.0,0.0,0.0,2.4102,2.498,2.5464,2.5681,2.5642,2.5617,2.5576,2.5499,2.5437,2.5398,2.5401,2.5234,2.5122,2.5032,2.4847,2.4636,2.4425,2.421,2.3937,2.3642,2.3389,2.3193,2.2952,2.2347,2.1998,2.1781,2.123,0.0,0.0,0.0,0.0,0.0,0.0,0.0,2.0628,2.012,1.9702,1.9288,0.0,0.0,0.0,0.0,0.0,0.0,0.0,0.0,0.0,0.0,0.0,2.0127,2.0819,2.079,2.0768,2.1073,2.0647,2.0085,1.9639,1.8988,1.8529,1.8529,1.8202,1.8008,1.8008,1.8008,1.8008,1.8008,1.8008,1.8008,1.8008,1.8008,1.8008,1.8008,1.8008,1.793,1.7706,1.7598,1.747,1.7323,1.7176,1.7038,1.7038,1.7245,1.7451,1.7696,1.7581,1.7628,1.7695,1.748,1.7266,1.707,1.707,1.6934,1.6758,1.6982,1.7207,1.7412,0.0,0.0,0.0,0.0,0.0,0.0,0.0,0.0,0.0,0.0,0.0,0.0,0.0,0.0,0.0,0.0,0.0,0.0,0.0,0.0,0.0,2.5676,2.5685,2.5642,2.5571,2.5561,2.5486,2.5374,2.5292,0.0,0.0,0.0,2.5063,2.4953,2.47,2.4543,2.4444,2.4058,2.3774,2.354,2.3295,2.3045,2.2721,2.213,2.184,2.1721,2.1039,2.0794,2.0794,2.0794,0.0,0.0,0.0,0.0,2.0392,1.9464,1.9066,1.8712,0.0,0.0,0.0,0.0,0.0,0.0,0.0,0.0,0.0,0.0,1.9759,1.9935,2.0391,2.0173,2.0018,2.0372,1.9564,1.8885,1.8834,1.8337,1.8008,1.8008,1.8008,1.8008,1.8008,1.8008,1.8008,1.8008,1.8008,1.8008,1.8008,1.8008,1.8008,1.8008,1.8008,1.7862,1.7647,1.7529,1.7392,1.7176,1.6968,1.6908,1.6908,1.7107,1.7373,1.7619,1.7283,1.7272,1.7395,1.7035,1.684,1.6846,1.6846,1.6797,1.6665,1.6665,1.6963,1.7275,0.0,0.0,0.0,0.0,0.0,0.0,0.0,0.0,0.0,0.0,0.0,0.0,0.0,0.0,0.0,0.0,0.0,0.0,2.3975,0.0,0.0,2.5687,2.5632,2.5581,2.5507,2.5394,2.5343,2.5318,0.0,0.0,0.0,0.0,0.0,2.4808,0.0,2.4512,2.4303,2.4018,2.3707,2.3407,2.3217,2.2995,2.2721,2.2073,2.1811,2.1721,2.1039,2.0794,2.0794,2.0794,2.0794,0.0,0.0,0.0,2.0065,1.9391,1.8855,1.8419,0.0,0.0,0.0,0.0,0.0,0.0,0.0,0.0,0.0,0.0,1.9226,1.9766,1.9751,1.9539,1.9298,1.8962,1.8669,1.8414,1.8152,1.8076,1.8008,1.8008,1.8008,1.8008,1.8008,1.8008,1.8008,1.8008,1.8008,1.8008,1.8008,1.8008,1.8008,1.8008,1.8008,1.7872,1.7529,1.7539,1.7323,1.6968,1.6908,1.6908,1.6908,1.7107,1.7235,1.7304,1.7394,1.7512,1.7687,1.7562,1.7474,1.7295,1.7295,1.7061,1.6665,1.6665,1.6768,1.6816,0.0,0.0,0.0,0.0,0.0,0.0,0.0,0.0,0.0,0.0,0.0,0.0,0.0,0.0,0.0,2.2499,2.3024,2.382,2.5043,2.5498,2.5681,2.5655,2.5591,2.5517,2.5453,2.5318,2.5235,2.5192,0.0,0.0,0.0,2.4926,2.4808,0.0,0.0,0.0,0.0,2.3714,2.3445,2.3168,2.2995,2.2703,2.2364,2.1957,2.1615,2.1291,2.0942,2.0777,2.0744,2.0744,2.0595,2.0342,2.007,0.0,0.0,0.0,1.8679,0.0,0.0,0.0,0.0,0.0,0.0,0.0,0.0,0.0,0.0,1.8441,1.8643,1.8928,1.8787,1.8543,1.8286,1.8059,1.7967,1.7936,1.7807,1.7919,1.8008,1.8008,1.8008,1.8008,1.8008,1.8008,1.8008,1.8008,1.8008,1.8008,1.8008,1.8008,1.8008,1.8008,1.8008,1.7813,1.747,1.747,1.7332,1.6908,1.6908,1.6908,1.6908,1.6968,1.7107,1.7235,1.7392,1.7529,1.7588,1.7647,1.7668,1.7581,1.7658,1.7617,1.7451,1.7451,1.7451,1.7451,0.0,0.0,0.0,0.0,0.0,0.0,0.0,0.0,0.0,0.0,0.0,0.0,0.0,0.0,0.0,0.0,2.402,2.4759,2.5618,2.5671,2.5628,2.5537,2.5453,2.5391,2.5283,2.5165,2.5072,0.0,0.0,0.0,2.4798,2.4676,2.4493,0.0,2.4118,0.0,0.0,0.0,0.0,2.2995,2.2747,2.2419,2.2068,2.1735,2.1339,2.0942,2.0778,2.0677,2.0626,2.0527,2.0308,1.998,1.9651,1.9339,0.0,0.0,0.0,0.0,0.0,0.0,0.0,0.0,0.0,0.0,0.0,0.0,1.8429,0.0,1.7897,1.7843,1.7667,1.7508,1.7387,1.7397,1.7277,1.7254,1.7437,1.7612,1.7725,1.7842,1.7852,1.7891,1.7998,1.8008,1.8008,1.8008,1.8008,1.8008,1.8008,1.8008,1.8008,1.8008,1.8008,1.7813,1.747,1.7401,1.7185,1.6908,1.6908,1.6908,1.6908,1.6908,1.6968,1.7107,1.7254,1.7401,1.7461,1.751,1.7638,1.7706,1.7862,1.794,1.8008,1.8008,1.8008,1.8008,0.0,0.0,0.0,0.0,0.0,0.0,0.0,0.0,0.0,0.0,0.0,0.0,2.3035,2.3031,2.3372,2.4262,2.4372,2.474,2.555,2.5619,2.5515,2.5313,2.5252,0.0,2.4924,2.4855,2.4865,0.0,0.0,0.0,2.4791,2.4338,2.4058,2.3937,2.3981,2.3842,2.3566,0.0,0.0,0.0,0.0,2.2164,2.2022,2.1306,2.0975,2.0861,2.0613,2.0475,2.0373,2.0054,1.9934,1.9758,1.8945,1.8655,1.8553,0.0,0.0,0.0,0.0,0.0,0.0,0.0,0.0,0.0,0.0,0.0,0.0,0.0,1.6807,1.6637,1.6488,1.6705,1.6842,1.6835,1.6467,1.6402,1.6951,1.6904,1.6953,1.7363,1.7422,1.7568,1.7969,1.8008,1.8008,1.8008,1.8008,1.8008,1.8008,1.8008,1.8008,1.8008,1.8008,1.7813,1.747,1.7116,1.6908,1.6908,1.6908,1.6908,1.6908,1.6908,1.6908,1.6908,1.6908,1.7038,1.7235,1.7235,1.7432,1.7706,1.7706,1.7862,1.8008,1.8008,1.8008,1.8008,0.0,0.0,0.0,0.0,0.0,0.0,0.0,0.0,0.0,0.0,0.0,0.0,0.0,2.3905,2.4222,2.5087,2.5176,2.5279,2.5581,2.5473,2.5356,2.5241,2.5094,2.4981,2.491,2.479,2.4734,0.0,0.0,2.4629,2.4663,2.4248,2.3961,2.3816,2.3602,2.3353,2.3116,2.2773,0.0,0.0,0.0,0.0,0.0,0.0,0.0,0.0,0.0,0.0,0.0,1.9368,1.92,1.9006,1.8655,1.8358,1.8109,1.7963,0.0,0.0,0.0,0.0,0.0,0.0,0.0,0.0,0.0,1.7134,1.7078,1.6751,1.6627,1.6581,1.6431,1.6477,1.653,1.6523,1.6555,1.6608,1.6657,1.6802,1.6914,1.6943,1.6963,1.7139,1.7568,1.7607,1.7715,1.7988,1.8008,1.8008,1.8008,1.8008,1.8008,1.8008,1.7862,1.7647,1.7314,1.7047,1.6908,1.6908,1.6908,1.6908,1.6908,1.6908,1.6908,1.6908,1.6908,1.6968,1.7038,1.7176,1.7382,1.7588,1.7647,1.7784,1.8008,1.8008,1.8008,1.8008,0.0,0.0,0.0,0.0,0.0,0.0,0.0,0.0,0.0,0.0,0.0,0.0,0.0,0.0,2.4948,2.5492,2.5537,2.5505,2.5444,2.5309,2.5168,2.5004,2.4866,2.4771,2.4697,2.461,2.458,0.0,0.0,0.0,0.0,2.4059,2.3798,2.3624,2.3206,2.2902,0.0,0.0,0.0,2.1965,0.0,0.0,2.0959,0.0,0.0,0.0,0.0,0.0,0.0,0.0,1.8574,1.8408,0.0,0.0,0.0,0.0,0.0,0.0,0.0,0.0,0.0,0.0,0.0,0.0,0.0,0.0,1.6751,1.6637,1.6581,1.6534,1.6431,1.6384,1.6384,1.6384,1.6448,1.6455,1.6346,1.6477,1.6533,1.6484,1.6514,1.668,1.7119,1.7168,1.7275,1.7559,1.7715,0.0,1.7803,1.7939,1.794,1.793,1.7725,1.751,1.7166,1.6968,1.6908,1.6908,1.6908,1.6908,1.6908,1.6908,1.6908,1.6908,1.6908,1.6908,1.6908,1.7038,1.7254,1.7539,1.7588,1.7794,1.8008,1.8008,1.8008,1.8008,0.0,0.0,0.0,0.0,0.0,0.0,0.0,0.0,0.0,2.4444,0.0,0.0,0.0,0.0,0.0,2.5414,2.5387,2.5301,2.5102,2.508,2.493,2.4613,2.4598,2.4489,2.4303,2.4284,2.4339,0.0,0.0,0.0,0.0,0.0,2.354,2.3277,2.2876,2.249,2.2192,0.0,2.2309,2.1582,0.0,2.118,2.091,0.0,0.0,0.0,1.9566,1.9332,0.0,1.8302,0.0,0.0,0.0,0.0,0.0,0.0,0.0,0.0,0.0,0.0,0.0,0.0,0.0,0.0,1.7335,0.0,1.6751,1.6637,1.6477,1.6384,1.6384,1.6384,1.6384,1.6384,1.6087,1.5914,1.5914,1.5798,1.5831,1.6056,1.6105,1.6221,1.667,1.6709,1.6719,1.6665,1.7119,1.7363,1.7363,1.7764,1.792,1.7706,1.7598,1.7392,1.7166,1.6968,1.6908,1.6908,1.6908,1.6908,1.6908,1.6908,1.6908,1.6908,1.6908,1.6908,1.6908,1.6908,1.7116,1.747,1.747,1.7676,1.8008,1.8008,1.8008,1.8008,0.0,0.0,0.0,0.0,0.0,0.0,0.0,0.0,2.5269,0.0,0.0,0.0,2.5538,2.5483,2.5418,2.534,2.5244,2.5133,2.5034,2.4845,2.4678,2.4519,2.4424,2.4356,2.4303,2.4284,2.4321,2.4339,0.0,0.0,0.0,0.0,0.0,0.0,2.252,2.2027,2.1645,2.2056,0.0,0.0,2.1055,2.078,0.0,0.0,0.0,0.0,0.0,1.8187,1.7855,0.0,1.7639,1.7666,0.0,0.0,0.0,0.0,0.0,0.0,1.829,0.0,0.0,0.0,0.0,0.0,0.0,0.0,0.0,1.6637,1.6581,1.6534,1.6431,1.6384,1.6384,1.6384,1.6192,1.6066,1.6066,1.5846,1.5722,1.5782,1.5655,1.5762,1.6201,1.625,1.6387,0.0,1.6846,1.6914,1.6914,1.7324,1.7619,1.7696,1.7598,1.7392,1.7166,1.6968,1.6908,1.6908,1.6908,1.6908,1.6908,1.6908,1.6908,1.6908,1.6908,1.6908,1.6908,1.6908,1.7116,1.747,1.747,1.7676,1.8008,1.8008,1.8008,1.8008,0.0,0.0,0.0,0.0,0.0,0.0,2.4793,2.5226,2.5556,0.0,0.0,0.0,2.5418,2.5387,2.5303,2.5198,2.5111,2.4962,2.471,2.4601,2.4441,2.4301,2.4248,2.4191,2.4172,2.4172,2.4115,2.3999,0.0,0.0,2.3576,2.3206,0.0,0.0,0.0,0.0,0.0,0.0,0.0,0.0,2.078,0.0,0.0,1.9551,1.9072,0.0,0.0,0.0,1.7543,1.7391,1.7337,0.0,0.0,0.0,0.0,0.0,0.0,0.0,0.0,0.0,0.0,0.0,0.0,0.0,1.7022,1.6864,1.6761,0.0,1.6534,1.6477,1.6431,1.6384,1.6384,1.6384,1.6249,1.6114,1.6114,1.5904,1.574,1.574,1.5536,1.5508,1.5762,1.5791,1.5898,1.6162,1.6348,1.6533,1.6719,1.6973,1.7229,1.7437,1.7263,1.7213,1.7166,1.6968,1.6908,1.6908,1.6908,1.6908,1.6908,1.6908,1.6908,1.6908,1.6908,1.6908,1.6908,1.6968,1.7185,1.747,1.747,1.7676,1.8008,1.8008,1.8008,1.8008,0.0,0.0,0.0,2.5485,2.5485,2.5498,2.5495,2.548,2.5472,0.0,2.5412,2.535,2.5274,2.5241,2.5153,2.4966,2.4907,2.4697,2.4282,2.4301,2.4229,2.3996,2.4054,2.4054,2.3976,2.3955,2.3816,2.3566,2.3522,2.3312,2.2927,2.2841,2.251,0.0,0.0,0.0,0.0,0.0,0.0,2.0354,2.0514,2.0177,0.0,0.0,1.8869,1.8461,1.8068,1.7828,1.7679,1.7323,1.7157,0.0,0.0,0.0,0.0,0.0,1.8177,0.0,0.0,0.0,0.0,0.0,0.0,0.0,1.7032,1.6874,1.6761,0.0,1.6488,1.6488,1.6431,1.6431,1.6431,1.6431,1.6296,1.6171,1.6114,1.5961,1.5856,1.573,1.5536,1.541,1.541,1.541,1.541,1.541,1.5771,1.6191,1.6631,1.666,1.6792,1.7079,1.6835,1.6892,1.717,1.6904,1.6862,1.6908,1.6908,1.6908,1.6908,1.6908,1.6908,1.6908,1.6908,1.6908,1.6908,1.7107,1.7314,1.747,1.7539,1.7735,1.8008,1.8008,1.8008,1.8008,0.0,0.0,0.0,2.5421,2.5421,2.5412,2.5432,2.5369,2.5341,2.5341,2.5224,2.5118,0.0,2.4877,2.4704,2.4601,2.43,2.408,2.3984,2.3923,2.3881,2.3837,2.3937,2.3917,2.3692,2.3671,2.3544,2.3277,2.3122,2.2875,2.252,2.2292,2.1953,0.0,0.0,0.0,0.0,0.0,0.0,1.994,2.0345,0.0,1.9369,1.8831,1.8344,1.7908,1.7516,1.7365,1.7323,1.724,1.6947,1.665,0.0,0.0,0.0,0.0,0.0,0.0,0.0,0.0,0.0,0.0,0.0,0.0,1.7267,1.7222,1.7155,0.0,1.6909,1.6853,1.6761,1.6705,1.6705,1.6705,1.6581,1.6467,1.6363,1.5972,1.5798,1.5856,1.5604,1.541,1.541,1.541,1.541,1.541,1.5488,1.5732,1.6172,1.6191,1.6396,1.6782,1.6453,1.6523,1.6883,1.6566,1.6587,1.6908,1.6908,1.6908,1.6908,1.6908,1.6908,1.6908,1.6908,1.6908,1.6908,1.7107,1.7314,1.7539,1.7657,1.7794,1.8008,1.8008,1.8008,1.8008,0.0,0.0,0.0,0.0,2.5351,2.5341,2.5303,2.5273,0.0,0.0,0.0,0.0,0.0,0.0,0.0,2.4174,2.3966,2.3803,2.3714,2.3689,2.3685,2.3642,2.362,2.3535,2.3405,2.33,2.3135,2.2908,2.2816,2.251,2.2062,2.1849,0.0,0.0,0.0,0.0,0.0,0.0,2.001,1.994,1.9839,0.0,1.8808,1.8305,1.7787,1.7393,1.724,1.7031,1.6808,1.6582,1.6367,0.0,0.0,1.632,1.6597,0.0,1.7649,1.8037,0.0,0.0,0.0,1.7975,0.0,0.0,0.0,1.7256,1.7088,1.6909,1.6909,1.6853,1.6807,1.6818,1.6818,1.6818,1.6694,1.6581,1.6534,1.6124,1.5904,1.5914,1.5672,1.5536,1.541,1.541,1.541,1.541,1.541,1.5508,1.5723,1.5732,1.5937,1.6387,1.6076,1.6151,1.6579,1.6197,1.606,1.6169,1.6469,1.6501,1.6333,1.676,1.6691,1.6333,1.6333,1.6403,1.6473,1.6254,1.6742,1.7588,1.7647,1.7784,1.8008,1.8008,1.8008,1.8008,2.5303,0.0,0.0,0.0,2.5283,2.5241,2.5187,2.5153,0.0,0.0,0.0,0.0,0.0,0.0,0.0,0.0,0.0,2.3459,0.0,2.3394,2.3394,2.3401,2.3271,2.314,2.3067,2.289,2.2686,2.2473,2.2419,2.2124,2.1565,2.1385,0.0,0.0,0.0,0.0,0.0,0.0,0.0,1.9889,0.0,1.8693,1.8305,1.7948,1.7475,1.7044,1.7157,1.6905,1.6479,1.6194,1.6037,1.5984,1.5928,1.6255,0.0,0.0,0.0,0.0,0.0,0.0,0.0,0.0,0.0,1.7379,0.0,0.0,0.0,1.6931,1.6874,0.0,0.0,0.0,0.0,0.0,0.0,0.0,0.0,1.6348,0.0,1.5961,1.5788,1.5614,1.5478,1.5478,1.542,1.541,1.542,1.542,1.541,1.541,1.5566,1.5928,1.5706,1.5785,1.6258,1.5824,1.5613,1.5595,1.6102,1.6174,1.6053,1.6473,1.6333,1.5762,1.5621,1.5613,1.5762,1.5551,1.6245,1.7501,1.7501,1.7716,1.8008,1.8008,1.8008,1.8008,2.5271,2.5252,0.0,0.0,2.5157,2.5125,2.5125,2.5013,0.0,0.0,0.0,0.0,0.0,0.0,0.0,0.0,0.0,0.0,2.285,0.0,0.0,2.2952,2.3109,2.2975,2.2502,2.2476,2.2313,2.2084,2.1777,2.1446,2.1086,2.0764,0.0,0.0,1.994,0.0,0.0,0.0,1.9617,0.0,1.8549,1.8369,0.0,1.8198,1.7693,1.7199,1.7199,1.6905,1.6565,0.0,1.6835,1.658,0.0,1.6807,1.722,1.6799,0.0,0.0,0.0,0.0,0.0,0.0,1.7711,0.0,0.0,0.0,1.7278,1.7278,0.0,0.0,0.0,0.0,0.0,0.0,0.0,0.0,1.6417,1.6552,1.6581,1.6114,1.5846,1.5672,1.5672,1.5672,1.5604,1.541,1.5546,1.5604,1.541,1.541,1.543,1.5488,1.5332,1.5365,1.5714,1.5476,1.5615,1.6178,1.6245,1.6455,1.6769,1.6193,1.5903,1.5762,1.5037,1.4824,1.5117,1.5886,1.6376,1.6742,1.6941,1.7432,1.8008,1.8008,1.8008,1.8008,2.505,2.5043,0.0,0.0,2.4994,2.4961,2.4931,2.4719,0.0,0.0,0.0,0.0,0.0,0.0,0.0,0.0,0.0,2.2192,0.0,0.0,0.0,2.2364,2.2303,2.2203,2.2124,2.2039,2.1882,2.1645,2.1493,2.1166,2.0583,2.0398,0.0,0.0,1.972,0.0,1.9683,0.0,1.9632,0.0,0.0,0.0,0.0,1.7585,1.7186,1.7073,1.7073,1.6637,1.6156,0.0,1.6264,0.0,0.0,0.0,0.0,0.0,0.0,0.0,0.0,0.0,0.0,0.0,0.0,0.0,1.7545,0.0,1.7656,0.0,0.0,0.0,0.0,0.0,0.0,0.0,1.6993,0.0,0.0,0.0,1.6694,0.0,0.0,0.0,1.5826,1.573,1.5614,1.541,1.5604,1.5604,1.541,1.541,1.541,1.541,1.5264,1.5292,1.5505,1.5226,1.5334,1.5731,1.5945,1.5941,1.5762,1.5762,1.533,1.4466,1.4106,1.4034,1.4178,1.4322,1.4966,1.5965,1.6167,1.6941,1.794,1.751,1.7647,1.8008,0.0,0.0,0.0,0.0,0.0,0.0,0.0,0.0,0.0,0.0,0.0,0.0,2.333,2.2989,0.0,0.0,2.189,2.1698,0.0,0.0,2.1609,0.0,0.0,0.0,0.0,2.1493,2.1417,2.1245,2.1071,2.0715,2.0177,2.007,0.0,0.0,0.0,1.9487,1.9398,0.0,0.0,1.9184,1.8664,1.8198,1.7733,1.7031,1.6803,1.6944,1.6999,1.656,1.5987,1.6373,1.613,0.0,1.6148,0.0,0.0,0.0,0.0,0.0,1.7479,0.0,0.0,0.0,0.0,0.0,0.0,0.0,0.0,0.0,0.0,0.0,0.0,0.0,0.0,0.0,0.0,1.7024,0.0,1.689,0.0,0.0,0.0,0.0,0.0,1.5951,1.572,1.5284,1.5546,1.5556,1.5177,1.5294,1.541,1.541,1.5313,1.5254,1.5362,1.5147,1.5196,1.5523,1.5808,1.5695,1.5321,1.5401,1.4752,1.3535,1.3317,1.3317,1.3462,1.3324,1.4042,1.5242,1.5392,1.6237,1.7304,1.701,1.7226,1.7725,2.4136,2.454,0.0,0.0,0.0,0.0,0.0,0.0,0.0,0.0,0.0,0.0,0.0,0.0,0.0,0.0,0.0,2.0797,2.1195,0.0,2.0991,0.0,0.0,2.129,0.0,0.0,2.0926,2.0926,2.0246,1.9934,0.0,0.0,0.0,0.0,0.0,1.925,1.8893,1.8731,1.8422,1.8028,1.7517,1.7034,1.6565,0.0,1.6803,1.6751,1.7015,0.0,0.0,1.6822,1.7039,0.0,0.0,0.0,0.0,0.0,0.0,0.0,0.0,0.0,0.0,1.7267,0.0,0.0,0.0,0.0,1.7334,0.0,0.0,0.0,0.0,0.0,0.0,0.0,0.0,0.0,0.0,0.0,0.0,0.0,0.0,0.0,0.0,1.6363,1.5951,1.4972,1.5536,1.5488,1.4588,1.5059,1.541,1.541,1.541,1.5303,1.5215,1.5215,1.5508,1.6182,1.601,1.6035,1.6237,1.51,1.4322,1.376,1.2966,1.2746,1.2966,1.3912,1.4402,1.4601,1.4601,1.51,1.5886,1.6655,1.6932,1.6932,0.0,0.0,0.0,0.0,0.0,0.0,0.0,2.371,0.0,0.0,0.0,0.0,0.0,2.1606,2.1305,0.0,0.0,2.0599,2.0597,2.063,0.0,0.0,0.0,2.078,0.0,0.0,2.0548,2.0246,2.0004,1.9773,0.0,0.0,0.0,0.0,0.0,1.9139,0.0,0.0,0.0,0.0,0.0,1.7238,1.7049,0.0,1.666,1.6696,1.6788,1.6539,0.0,1.6604,1.6635,1.6472,1.6533,1.6791,1.7022,1.6751,1.6751,1.6807,0.0,0.0,1.692,1.7078,0.0,0.0,0.0,0.0,0.0,0.0,0.0,0.0,0.0,0.0,0.0,0.0,0.0,0.0,0.0,0.0,0.0,0.0,0.0,0.0,0.0,0.0,1.5584,1.5565,1.5294,1.5128,1.5118,1.5294,1.541,1.541,1.541,1.5362,1.5303,1.5303,1.5739,1.6529,1.5817,1.5628,1.5745,1.476,1.3905,1.3185,1.2893,1.2826,1.29,1.3411,1.3622,1.376,1.4394,1.4466,1.4338,1.5108,1.5666,1.6167,2.3468,0.0,0.0,0.0,0.0,0.0,0.0,0.0,0.0,0.0,2.2029,0.0,2.1303,0.0,2.0846,0.0,2.028,2.0124,2.02,2.001,0.0,1.963,2.0,0.0,0.0,0.0,0.0,1.9651,1.963,1.95,1.9302,0.0,0.0,0.0,0.0,1.8988,1.8383,0.0,1.8068,0.0,0.0,1.7359,0.0,0.0,1.6812,1.6907,0.0,1.6489,1.6328,1.6558,1.6503,1.6293,1.644,1.6534,1.6648,1.6534,1.6591,1.6648,1.6705,1.6751,0.0,1.6909,1.7078,0.0,1.72,0.0,1.7645,0.0,0.0,0.0,0.0,0.0,0.0,0.0,0.0,0.0,0.0,1.7278,0.0,0.0,0.0,0.0,0.0,0.0,1.5806,1.5642,1.5352,1.5177,1.5059,1.5294,1.541,1.541,1.541,1.541,1.541,1.5177,1.5489,1.6329,1.5689,1.5294,1.5171,1.4697,1.3985,1.3046,1.3046,1.3046,1.3046,1.3193,1.3346,1.3339,1.3977,1.3912,1.3564,1.433,1.4887,1.5384,0.0,0.0,0.0,0.0,2.3445,0.0,0.0,0.0,2.2164,0.0,2.1592,2.1227,2.1133,2.0715,2.0447,2.0447,1.9666,1.9369,1.9884,1.9281,0.0,0.0,1.9147,1.8983,1.8592,0.0,0.0,1.9169,1.9124,1.9101,1.9101,0.0,0.0,0.0,1.9265,0.0,1.7988,1.7828,1.7323,1.6609,1.7187,1.7355,1.7314,1.7265,1.7277,1.7213,1.6759,1.6567,1.6612,1.677,1.6694,1.6581,1.6581,1.6477,1.6384,1.6384,1.6384,1.6431,1.6581,1.6581,1.6637,1.6751,1.6807,0.0,0.0,0.0,1.7078,0.0,0.0,0.0,0.0,0.0,0.0,0.0,0.0,0.0,0.0,0.0,0.0,0.0,0.0,0.0,0.0,1.6944,1.6436,1.5342,1.5758,1.5584,0.0,1.5059,1.541,1.5352,1.5352,1.541,1.5352,1.4765,1.4873,1.5542,1.5422,1.5085,1.4601,1.4982,1.4418,1.32,1.32,1.32,1.32,1.3419,1.3492,1.3492,1.3492,1.3492,1.3564,1.4258,1.4537,1.4673,2.2995,2.2919,2.2876,0.0,2.3126,2.3126,0.0,0.0,0.0,0.0,2.0975,2.055,2.0124,1.9717,1.9442,1.9442,1.8997,0.0,0.0,0.0,0.0,1.8355,1.8788,1.8765,1.8187,1.8769,0.0,1.8884,1.9026,1.9101,1.9101,0.0,0.0,0.0,0.0,0.0,1.7828,1.753,1.7336,1.7167,1.7262,1.7545,1.7814,0.0,1.6855,1.7187,1.6655,1.6438,1.6434,1.6503,1.6488,1.6431,1.6431,1.6431,1.6384,1.6384,1.6384,1.6431,1.6431,1.6431,1.6477,1.6637,1.6627,1.6694,0.0,0.0,0.0,0.0,0.0,0.0,0.0,0.0,0.0,0.0,0.0,0.0,0.0,0.0,0.0,1.7278,0.0,0.0,1.7145,1.6436,1.5968,1.5999,1.5517,1.4982,1.4529,0.0,1.5371,1.4765,1.5177,1.5177,1.4765,1.4588,1.4628,1.482,1.4296,1.4206,1.4601,1.4122,1.3783,1.3419,1.3419,1.3419,1.3419,1.3499,1.3492,1.3492,1.3492,1.3492,1.3492,1.3702,1.3775,1.3912,2.2825,0.0,0.0,2.2463,0.0,0.0,2.2381,2.1849,0.0,2.0927,2.0348,0.0,1.9515,1.9124,1.8822,1.8822,1.8422,0.0,1.8588,0.0,0.0,1.8106,1.8224,1.8173,1.7895,1.824,0.0,1.8683,0.0,0.0,1.9101,0.0,0.0,0.0,0.0,1.8548,0.0,1.7683,1.7778,1.8081,1.7726,1.7796,0.0,1.709,1.6774,1.681,1.6509,1.6371,1.6431,1.6477,1.6431,1.6431,1.6477,1.6431,1.6384,1.6384,1.6384,1.6384,1.6384,1.6384,1.6431,1.6477,1.6534,1.6534,1.6694,1.6694,1.6751,0.0,1.6909,1.6965,0.0,0.0,0.0,0.0,0.0,0.0,0.0,0.0,0.0,0.0,1.6965,0.0,1.7434,1.6436,1.5921,1.641,1.5921,1.5507,1.5118,0.0,1.5235,1.501,1.5069,1.4942,1.4588,1.4282,1.4118,1.4098,1.3776,1.3737,1.4122,1.4049,1.3768,1.3492,1.3492,1.3492,1.3492,1.3492,1.3492,1.3492,1.3492,1.3492,1.3492,1.3492,1.3492,1.3564,0.0,0.0,0.0,0.0,0.0,0.0,0.0,2.1086,0.0,2.0501,0.0,1.9095,1.9095,1.8693,1.8422,1.8422,0.0,1.7908,1.8383,1.7598,1.738,1.7947,1.7516,1.735,1.7556,1.7488,1.776,0.0,0.0,0.0,0.0,0.0,0.0,0.0,0.0,0.0,0.0,1.8088,1.8374,1.8772,1.8112,1.7926,1.7875,1.7257,1.6786,1.6374,1.6374,1.6374,1.6374,1.6524,1.6477,1.6374,1.6524,1.6477,1.6384,1.6384,1.6384,1.6384,1.6384,1.6384,1.6384,1.6384,1.6384,1.6431,1.6524,1.6581,1.6637,1.6761,1.6751,1.6807,1.6955,0.0,0.0,0.0,0.0,0.0,0.0,0.0,0.0,0.0,0.0,0.0,0.0,1.6684,1.6218,1.657,1.6637,1.64,1.5806,0.0,1.5108,1.543,1.4893,1.4588,1.4588,1.3897,1.3543,1.3502,1.3518,1.3554,1.3492,1.4186,1.4122,1.3492,1.3492,1.3492,1.3492,1.3492,1.3492,1.3492,1.3492,1.3492,1.3492,1.3492,1.3492,1.3492,0.0,0.0,0.0,0.0,0.0,2.0552,2.0438,2.0169,1.9924,1.9869,1.914,1.8616,1.8616,1.8187,1.7908,1.7908,1.7557,0.0,0.0,0.0,0.0,1.7352,1.6892,1.6735,1.6892,1.7005,1.7325,0.0,0.0,0.0,0.0,0.0,0.0,0.0,0.0,0.0,1.8019,1.8473,0.0,1.7899,1.7806,1.7467,1.6989,1.6492,1.6218,1.6181,1.6316,1.6306,1.6181,1.6363,1.6306,1.6181,1.6374,1.6431,1.6384,1.6384,1.6384,1.6384,1.6384,1.6384,1.6384,1.6384,1.6384,1.6431,1.6431,1.6431,1.6477,1.6581,1.6637,1.6694,1.6807,0.0,0.0,0.0,0.0,0.0,0.0,0.0,0.0,0.0,0.0,1.6606,0.0,0.0,1.6786,1.6751,1.6751,1.6275,1.5148,0.0,1.4932,0.0,1.3932,1.3923,0.0,0.0,1.305,1.3627,1.305,1.3001,1.3492,1.3637,1.363,1.3492,1.3492,1.3492,1.3492,1.3492,1.3492,1.3492,1.3492,1.3492,1.3492,1.3492,1.3492,1.3492,0.0,0.0,0.0,0.0,0.0,0.0,0.0,1.9861,1.9767,1.9642,1.9393,1.9211,1.9128,1.8665,1.8379,1.8379,1.7955,1.757,1.7342,1.6802,1.6509,1.6497,1.6238,1.6194,1.6324,1.6281,1.66,1.7422,0.0,0.0,1.9072,0.0,0.0,0.0,0.0,1.8805,0.0,0.0,0.0,1.8067,1.7401,1.7,1.6708,1.6171,1.6019,1.6019,1.6192,1.6066,1.5951,1.6181,1.6181,1.6114,1.6134,1.6202,1.6239,1.6239,1.6316,1.6384,1.6384,1.6384,1.6384,1.6384,1.6384,1.6384,1.6384,1.6384,1.6431,1.6477,1.6477,1.6534,1.6761,1.6976,0.0,0.0,0.0,0.0,0.0,0.0,0.0,0.0,0.0,0.0,0.0,0.0,0.0,0.0,0.0,0.0,0.0,0.0,1.5099,0.0,0.0,0.0,1.3364,0.0,1.2806,1.3042,1.2721,1.2862,1.3492,1.3492,1.3492,1.3492,1.3492,1.3492,1.3492,1.3492,1.3492,1.3492,1.3492,1.3492,1.3492,1.3492,1.3492,1.3492,0.0,2.1357,0.0,0.0,2.0661,0.0,1.9953,1.9877,1.9839,1.9669,1.9666,1.9649,1.9561,1.9171,1.8852,1.8714,1.8384,1.7894,1.7247,1.6702,1.6279,1.5957,1.5867,1.5882,1.6092,1.5832,1.6203,0.0,0.0,0.0,0.0,0.0,0.0,0.0,0.0,0.0,0.0,0.0,1.8213,1.8135,1.7,1.6503,1.6436,1.6019,1.5856,1.5856,1.6009,1.5894,1.5798,1.5951,1.5999,1.6009,1.5904,1.5961,1.6066,1.6114,1.6181,1.6374,1.6374,1.6384,1.6384,1.6384,1.6384,1.6384,1.6384,1.6384,1.6384,1.6384,1.6384,1.6488,1.6761,1.6987,0.0,0.0,0.0,0.0,0.0,0.0,0.0,0.0,0.0,0.0,1.7534,0.0,0.0,0.0,0.0,0.0,1.6488,0.0,0.0,0.0,0.0,1.3476,1.3122,0.0,1.2632,1.2781,1.2586,1.2862,1.3492,1.3492,1.3492,1.3492,1.3492,1.3492,1.3492,1.3492,1.3492,1.3492,1.3492,1.3492,1.3492,1.3492,1.3492,1.3492,0.0,0.0,0.0,0.0,0.0,0.0,2.0088,2.0229,2.0224,1.9823,1.9324,1.8989,1.8989,1.8943,1.8714,1.8213,1.8363,1.7924,1.6664,1.6349,1.6278,1.6417,1.6045,1.6017,1.644,1.6402,1.6625,0.0,0.0,1.7862,0.0,0.0,0.0,0.0,0.0,0.0,0.0,1.8182,1.7722,1.7257,1.6595,1.6026,1.5526,1.5672,1.574,1.574,1.5856,1.5914,1.5856,1.5798,1.573,1.573,1.5856,1.5914,1.5972,1.6066,1.6114,1.6181,1.6374,1.6384,1.6384,1.6384,1.6384,1.6384,1.6384,1.6384,1.6384,1.6384,1.6384,1.6488,1.6761,1.6751,1.6807,0.0,0.0,0.0,0.0,0.0,1.7032,1.6244,0.0,0.0,0.0,1.72,0.0,0.0,1.6909,0.0,0.0,0.0,0.0,1.5352,1.3965,1.3597,1.4227,1.2573,1.2322,1.3568,1.2848,1.2862,1.3492,1.3492,1.3492,1.3492,1.3492,1.3492,1.3492,1.3492,1.3492,1.3492,1.3492,1.3492,1.3492,1.3492,1.3492,1.3492,0.0,0.0,0.0,0.0,0.0,0.0,0.0,2.0563,2.0558,1.9991,2.0005,1.9908,1.9492,1.9443,1.9245,1.8706,1.84,1.7921,1.7073,1.661,1.629,1.6067,1.6105,1.6196,1.64,1.655,1.6787,0.0,0.0,0.0,0.0,0.0,0.0,0.0,0.0,1.8375,1.8038,1.7335,1.6888,1.6492,1.5874,1.5488,1.5313,1.5488,1.5488,1.5449,1.5682,1.5672,1.5604,1.5672,1.5672,1.5672,1.5604,1.5662,1.5798,1.5846,1.5904,1.6019,1.6192,1.6239,1.6249,1.6374,1.6384,1.6384,1.6384,1.6384,1.6384,1.6384,1.6488,1.6534,1.6637,1.6694,1.6807,1.6987,0.0,0.0,0.0,0.0,0.0,0.0,0.0,1.6987,0.0,0.0,0.0,0.0,0.0,0.0,0.0,0.0,0.0,1.5391,0.0,1.3183,1.3416,1.2282,1.2131,1.2975,1.2646,1.2862,1.3492,1.3492,1.3492,1.3492,1.3492,1.3492,1.3492,1.3492,1.3492,1.3492,1.3492,1.3492,1.3492,1.3492,1.3492,1.3492,2.0881,0.0,2.0645,0.0,2.0414,2.0462,2.0083,2.0276,2.0271,1.9798,2.0093,2.0144,1.9604,1.9552,1.9344,1.8762,1.8417,1.7925,1.7172,1.682,1.6474,1.6033,1.6343,0.0,1.6606,1.6905,1.715,1.728,1.8256,0.0,0.0,0.0,0.0,0.0,1.771,1.7589,1.7368,1.6539,1.6093,1.5999,1.5381,1.5156,1.5156,1.5254,1.5196,1.5156,1.5449,1.5439,1.5371,1.5546,1.5604,1.5604,1.542,1.5478,1.5614,1.5672,1.5798,1.5846,1.6009,1.6056,1.6114,1.6306,1.6374,1.6384,1.6384,1.6384,1.6384,1.6384,1.6477,1.6524,1.6581,1.6637,1.6705,1.6818,0.0,0.0,0.0,1.692,0.0,0.0,1.6818,1.6931,1.6807,1.6864,0.0,0.0,0.0,0.0,0.0,0.0,0.0,0.0,0.0,0.0,1.2887,1.2104,1.201,1.2519,1.2519,1.2862,1.3492,1.3492,1.3492,1.3492,1.3492,1.3492,1.3492,1.3492,1.3492,1.3492,1.3492,1.3492,1.3492,1.3492,1.3492,1.3492,2.0855,2.0716,2.0369,1.9876,1.9567,1.9371,1.9226,1.9226,1.9186,1.904,1.904,1.904,1.8987,1.8987,1.8762,1.8147,1.8352,1.7928,1.66,1.6791,1.6844,0.0,0.0,1.7078,1.7301,1.7799,1.7963,1.7689,0.0,0.0,1.771,0.0,1.7101,1.7202,1.6585,1.6595,1.6955,1.5874,1.5584,1.5874,1.5264,1.497,1.497,1.497,1.497,1.5029,1.5156,1.5215,1.5215,1.5362,1.541,1.541,1.541,1.541,1.542,1.5614,1.5672,1.573,1.5856,1.6019,1.6114,1.6114,1.6249,1.6384,1.6384,1.6384,1.6384,1.6384,1.6384,1.6431,1.6581,1.6477,1.6488,1.6761,0.0,0.0,0.0,1.7011,0.0,1.7278,1.7278,1.7155,1.6818,1.6909,0.0,0.0,0.0,0.0,0.0,0.0,0.0,1.5429,1.3957,0.0,1.3009,1.205,1.1882,1.2519,1.2519,1.2862,1.3492,1.3492,1.3492,1.3492,1.3492,1.3492,1.3492,1.3492,1.3492,1.3492,1.3492,1.3492,1.3492,1.3492,1.3492,1.3492,2.0421,2.0194,1.9978,1.985,1.9592,1.9319,1.9226,1.9186,1.9016,1.8483,1.8375,1.8278,1.7865,1.817,1.817,0.0,1.7645,1.7523,0.0,1.7148,1.7148,1.7038,1.7312,1.7598,1.781,1.8247,1.8398,1.829,0.0,0.0,0.0,1.6775,1.6606,1.6171,1.6275,1.6228,1.6066,1.5584,1.5362,1.5254,1.5088,1.497,1.5039,1.5098,1.5156,1.5156,1.5156,1.5264,1.5362,1.541,1.541,1.541,1.541,1.541,1.541,1.5478,1.5478,1.5536,1.573,1.5788,1.5894,1.6056,1.6171,1.6249,1.6374,1.6384,1.6384,1.6384,1.6384,1.6431,1.6488,1.6431,1.6441,1.6488,1.6591,0.0,1.674,0.0,1.6864,1.6807,1.6807,1.6751,1.6545,1.6637,0.0,0.0,0.0,0.0,0.0,0.0,0.0,0.0,1.4085,0.0,1.3009,1.2166,1.201,1.2519,1.2519,1.2862,1.3492,1.3492,1.3492,1.3492,1.3492,1.3492,1.3492,1.3492,1.3492,1.3492,1.3492,1.3492,1.3492,1.3492,1.3492,1.3492,2.0172,1.9944,1.9643,1.9329,1.9036,1.8771,1.853,1.8494,1.8333,1.7843,1.7788,1.7689,1.7334,1.759,0.0,1.7334,1.7278,1.7278,1.7278,1.7155,1.7043,1.7043,1.7134,1.719,1.729,1.7831,0.0,1.8007,1.771,1.7045,1.6056,1.6161,1.5999,1.5672,1.5778,1.5788,1.5672,1.5371,1.5137,1.497,1.497,1.497,1.5039,1.5088,1.5098,1.5156,1.5156,1.5264,1.5303,1.5362,1.541,1.541,1.541,1.541,1.541,1.541,1.541,1.541,1.5546,1.5614,1.573,1.5894,1.6009,1.6171,1.6374,1.6384,1.6384,1.6384,1.6384,1.6384,1.6384,1.6384,1.6384,1.6384,1.6477,1.6524,1.6581,0.0,1.6694,0.0,0.0,0.0,0.0,1.6524,1.6637,0.0,0.0,0.0,0.0,0.0,1.5497,1.508,1.3846,1.2956,1.2528,1.1988,1.201,1.2526,1.2767,1.3104,1.3492,1.3492,1.3492,1.3492,1.3492,1.3492,1.3492,1.3492,1.3492,1.3492,1.3492,1.3492,1.3492,1.3492,1.3492,1.3492,2.0111,1.9807,1.9353,0.0,1.8206,1.7901,1.7442,1.7355,1.7333,1.7333,1.73,1.7278,1.7278,1.7278,1.7222,1.7211,0.0,0.0,1.7278,1.6807,1.657,1.657,1.6379,1.614,1.5931,1.6821,1.7168,1.6899,1.6775,1.6436,1.5816,1.5371,1.5391,1.5672,1.5205,1.5264,1.5672,1.5205,1.5029,1.5029,1.5029,1.5029,1.5029,1.5029,1.5029,1.5029,1.5156,1.5215,1.5205,1.5362,1.541,1.541,1.541,1.541,1.541,1.541,1.541,1.541,1.541,1.5546,1.5672,1.5672,1.5894,1.6171,1.6374,1.6384,1.6384,1.6384,1.6384,1.6384,1.6384,1.6384,1.6384,1.6384,1.6384,1.6431,1.6581,1.6581,1.6637,0.0,0.0,0.0,1.6581,1.6581,1.6524,0.0,0.0,0.0,0.0,0.0,1.54,1.4273,1.3485,1.2712,1.1864,1.1685,1.1882,1.2533,1.3184,1.3492,1.3492,1.3492,1.3492,1.3492,1.3492,1.3492,1.3492,1.3492,1.3492,1.3492,1.3492,1.3492,1.3492,1.3492,1.3492,1.3492,0.0,0.0,1.9171,1.894,1.8692,1.849,1.837,1.8054,1.7835,1.7835,1.7508,1.7155,1.6807,1.6751,1.6637,1.6275,1.657,1.6751,1.6751,1.6343,1.6046,1.6046,1.6046,1.6036,1.6197,1.6425,1.6425,1.6151,1.6151,1.5884,1.5381,1.5264,1.5323,1.5478,1.5362,1.5362,1.5478,1.5264,1.5156,1.5156,1.5156,1.5156,1.5156,1.5156,1.5205,1.5303,1.5205,1.5264,1.5362,1.541,1.541,1.541,1.541,1.541,1.541,1.541,1.541,1.541,1.541,1.541,1.5536,1.5672,1.5894,1.6171,1.6374,1.6384,1.6384,1.6384,1.6384,1.6384,1.6384,1.6384,1.6384,1.6384,1.6384,1.6431,1.6431,1.6431,1.6488,0.0,1.6488,1.6488,1.6431,1.6431,1.6477,0.0,0.0,1.6524,1.6524,1.6467,1.5816,1.446,1.4094,1.3373,1.2182,1.1926,1.201,1.2533,1.3184,1.3492,1.3492,1.3492,1.3492,1.3492,1.3492,1.3492,1.3492,1.3492,1.3492,1.3492,1.3492,1.3492,1.3492,1.3492,1.3492,1.3492,2.0148,1.9902,1.9638,1.9304,1.9138,1.8949,1.872,1.848,1.818,1.7728,1.747,1.7052,1.6363,1.6275,1.6161,1.5931,1.6104,1.6275,1.6275,1.5816,1.5575,1.5575,1.5362,1.5303,1.5468,1.569,1.5748,1.5575,1.5642,1.541,1.4961,1.5088,1.5205,1.5313,1.5313,1.5362,1.541,1.5313,1.5313,1.5313,1.5313,1.5313,1.5313,1.5313,1.5362,1.541,1.5313,1.5362,1.541,1.541,1.541,1.541,1.541,1.541,1.541,1.541,1.541,1.541,1.541,1.541,1.5478,1.573,1.5904,1.6077,1.6316,1.6384,1.6384,1.6384,1.6384,1.6384,1.6384,1.6384,1.6384,1.6384,1.6384,1.6384,1.6384,1.6384,1.6384,1.6384,1.6384,1.6384,1.6384,1.6384,1.6431,1.6477,1.6534,0.0,1.6534,1.6534,1.5884,1.4529,1.4282,1.3614,1.2305,1.2299,1.2446,1.2745,1.3258,1.3492,1.3492,1.3492,1.3492,1.3492,1.3492,1.3492,1.3492,1.3492,1.3492,1.3492,1.3492,1.3492,1.3492,1.3492,1.3492,1.3492,2.0431,2.0366,2.018,1.953,1.9391,1.925,1.8714,1.8595,1.8259,1.7371,1.7197,1.686,1.5924,1.5816,1.5758,1.57,1.571,1.57,1.5816,1.5352,1.5059,1.5059,1.4734,1.4515,1.4515,1.4902,1.5059,1.5059,1.5186,1.5069,1.4715,1.4843,1.5029,1.5156,1.5156,1.5254,1.5352,1.5352,1.5362,1.5362,1.541,1.541,1.541,1.541,1.541,1.541,1.541,1.541,1.541,1.541,1.541,1.541,1.541,1.541,1.541,1.541,1.541,1.541,1.541,1.541,1.5478,1.5798,1.5914,1.5972,1.6327,1.6384,1.6384,1.6384,1.6384,1.6384,1.6384,1.6384,1.6384,1.6384,1.6384,1.6384,1.6384,0.0,1.6384,1.6384,1.6384,1.6384,1.6384,1.6384,1.6384,1.6384,1.6384,1.6384,1.6384,1.6384,1.5836,1.4647,1.446,1.3761,1.2499,1.2687,1.29,1.3009,1.3338,1.3492,1.3492,1.3492,1.3492,1.3492,1.3492,1.3492,1.3492,1.3492,1.3492,1.3492,1.3492,1.3492,1.3492,1.3492,1.3492,1.3492,1.9507,1.9507,1.9475,1.9346,1.9336,1.9107,1.8639,1.8192,1.7805,1.7276,1.684,1.6267,1.54,1.5294,1.5118,1.4743,1.4743,1.4902,1.5294,1.4843,1.4625,1.4625,1.4565,1.4515,1.4515,1.4565,1.4625,1.4625,1.4625,1.4675,1.4715,1.4715,1.4843,1.5029,1.5029,1.5029,1.5088,1.5205,1.5205,1.5264,1.5362,1.541,1.541,1.541,1.541,1.541,1.541,1.541,1.541,1.541,1.541,1.541,1.541,1.541,1.541,1.541,1.541,1.541,1.541,1.541,1.5478,1.5798,1.5914,1.5972,1.6327,1.6384,1.6384,1.6384,1.6384,1.6384,1.6384,1.6384,1.6384,1.6384,1.6384,1.6384,1.6384,0.0,1.6384,1.6384,1.6384,1.6384,1.6384,1.6384,1.6384,1.6384,1.6384,1.6384,1.6384,1.6384,1.6077,1.5294,1.5235,1.4616,1.3345,1.3057,1.296,1.3009,1.3338,1.3492,1.3492,1.3492,1.3492,1.3492,1.3492,1.3492,1.3492,1.3492,1.3492,1.3492,1.3492,1.3492,1.3492,1.3492,1.3492,1.3492,1.8834,1.8834,1.8834,1.8834,1.8834,1.8767,1.8509,1.8338,1.7835,1.6957,1.6648,1.6091,1.4968,1.4843,1.4734,1.4515,1.4515,1.4565,1.4784,1.4625,1.4515,1.4515,1.4515,1.4515,1.4515,1.4515,1.4515,1.4515,1.4515,1.4506,1.4616,1.4616,1.4666,1.4843,1.4843,1.4902,1.497,1.5098,1.5156,1.5215,1.5196,1.5245,1.541,1.5313,1.5362,1.541,1.541,1.541,1.541,1.541,1.541,1.541,1.541,1.541,1.541,1.541,1.541,1.541,1.541,1.541,1.5478,1.573,1.5856,1.5972,1.6192,1.6316,1.6384,1.6384,1.6384,1.6384,1.6384,1.6384,1.6384,1.6384,1.6384,1.6384,1.6384,1.6384,1.6384,1.6384,1.6384,1.6384,1.6384,1.6384,1.6384,1.6384,1.6384,1.6384,1.6384,1.6384,1.6077,1.541,1.4756,1.4022,1.3273,1.3048,1.3119,1.3272,1.3426,1.3492,1.3492,1.3492,1.3492,1.3492,1.3492,1.3492,1.3492,1.3492,1.3492,1.3492,1.3492,1.3492,1.3492,1.3492,1.3492,1.3492,1.8307,1.8307,1.8307,1.8307,1.8307,1.824,1.8172,1.8104,1.7695,1.6622,1.6367,1.5917,1.4786,1.457,1.4515,1.4515,1.4515,1.4515,1.4515,1.4515,1.4515,1.4515,1.4515,1.4515,1.4515,1.4515,1.4515,1.4515,1.4515,1.4515,1.4515,1.4515,1.4565,1.4666,1.4666,1.4725,1.4921,1.4911,1.497,1.5088,1.5029,1.5137,1.5303,1.5205,1.5264,1.5362,1.541,1.541,1.541,1.541,1.541,1.541,1.541,1.541,1.541,1.541,1.541,1.541,1.541,1.541,1.5478,1.5672,1.5798,1.5972,1.6056,1.6249,1.6384,1.6384,1.6384,1.6384,1.6384,1.6384,1.6384,1.6384,0.0,1.6384,1.6384,1.6384,1.6384,1.6384,1.6384,1.6384,1.6384,1.6384,1.6384,1.6384,1.6384,1.6384,1.6384,1.6259,1.5818,1.5075,1.4125,1.3463,1.3251,1.3141,1.3277,1.3492,1.3492,1.3492,1.3492,1.3492,1.3492,1.3492,1.3492,1.3492,1.3492,1.3492,1.3492,1.3492,1.3492,1.3492,1.3492,1.3492,1.3492,1.3492,1.7638,1.7774,1.7774,1.7774,1.7774,1.7569,1.7107,1.7047,1.6821,1.6398,1.5992,1.5587,1.5102,1.4735,1.4515,1.4515,1.4515,1.4515,1.4515,1.4515,1.4515,1.4515,1.4515,1.4515,1.4515,1.4515,1.4515,1.4515,1.4515,1.4515,1.4515,1.4515,1.4506,1.4506,1.4506,1.4506,1.4565,1.4666,1.4715,1.4775,1.4911,1.5029,1.5029,1.5156,1.5215,1.5205,1.5362,1.541,1.541,1.541,1.541,1.541,1.541,1.541,1.541,1.541,1.541,1.541,1.541,1.541,1.5478,1.5672,1.5798,1.5972,1.6056,1.6249,1.6384,1.6384,1.6384,1.6384,1.6384,1.6384,1.6384,1.6384,0.0,0.0,1.6384,1.6384,1.6384,1.6384,1.6384,1.6384,1.6384,1.6384,1.6384,1.6384,1.6384,1.6384,1.6384,1.5826,1.5053,1.4141,1.4033,1.3975,1.3908,1.3637,1.3502,1.3492,1.3492,1.3492,1.3492,1.3492,1.3492,1.3492,1.3492,1.3492,1.3492,1.3492,1.3492,1.3492,1.3492,1.3492,1.3492,1.3492,1.3492,1.3492,1.7176,1.7176,1.7176,1.7176,1.7176,1.7176,1.6908,1.6908,1.6771,1.6367,1.5955,1.5542,1.5139,1.4744,1.4515,1.4515,1.4515,1.4515,1.4515,1.4515,1.4515,1.4515,1.4515,1.4515,1.4515,1.4515,1.4515,1.4515,1.4515,1.4515,1.4515,1.4515,1.4515,1.4515,1.4515,1.4515,1.4515,1.4565,1.4606,1.4715,1.4675,1.4862,1.5098,1.5098,1.5205,1.5303,1.5362,1.541,1.541,1.541,1.541,1.541,1.541,1.541,1.541,1.541,1.541,1.541,1.541,1.541,1.541,1.5478,1.573,1.5914,1.5961,1.6202,1.6384,1.6384,1.6384,1.6384,1.6384,1.6384,1.6384,1.6384,0.0,1.6384,1.6384,1.6384,1.6384,1.6384,1.6384,1.6384,1.6384,1.6384,1.6384,1.6384,1.6384,1.6202,1.5778,1.5008,1.4356,1.4004,1.4007,1.391,1.3705,1.3569,1.3525,1.3492,1.3492,1.3492,1.3492,1.3492,1.3492,1.3492,1.3492,1.3492,1.3492,1.3492,1.3492,1.3492,1.3492,1.3492,1.3492,1.3492,1.3492,1.3492,1.6908,1.6908,1.6908,1.6908,1.6908,1.6908,1.6908,1.6908,1.6807,1.6532,1.6028,1.5588,1.5313,1.4827,1.4515,1.4515,1.4515,1.4515,1.4515,1.4515,1.4515,1.4515,1.4515,1.4515,1.4515,1.4515,1.4515,1.4515,1.4515,1.4515,1.4515,1.4515,1.4515,1.4515,1.4515,1.4515,1.4515,1.4515,1.4565,1.4606,1.4556,1.4734,1.5029,1.5039,1.5205,1.5362,1.5362,1.541,1.541,1.541,1.541,1.541,1.541,1.541,1.541,1.541,1.541,1.541,1.541,1.541,1.541,1.541,1.5604,1.5856,1.5914,1.6087,1.6316,1.6374,1.6384,1.6384,1.6384,1.6384,1.6384,1.6384,1.6384,1.6384,1.6384,1.6384,1.6384,1.6384,1.6384,1.6384,1.6384,1.6384,1.6384,1.6384,1.6202,1.578,1.5003,1.4365,1.3996,1.4038,1.4066,1.3964,1.3721,1.3658,1.363,1.3572,1.3499,1.3492,1.3492,1.3492,1.3492,1.3492,1.3492,1.3492,1.3492,1.3492,1.3492,1.3492,1.3492,1.3492,1.3492,1.3492,1.3492,1.3492,1.6908,1.6908,1.6908,1.6908,1.6908,1.6908,1.6908,1.6908,1.6908,1.6908,1.6193,1.5689,1.5689,1.4983,1.4515,1.4515,1.4515,1.4515,1.4515,1.4515,1.4515,1.4506,1.4515,1.4515,1.4515,1.4515,1.4515,1.4515,1.4515,1.4515,1.4515,1.4515,1.4515,1.4515,1.4515,1.4515,1.4506,1.4515,1.4515,1.4506,1.4656,1.4715,1.4715,1.5088,1.5215,1.5215,1.5362,1.541,1.541,1.541,1.541,1.541,1.541,1.541,1.541,1.541,1.541,1.541,1.541,1.541,1.541,1.541,1.5546,1.574,1.5856,1.6019,1.6181,1.6374,1.6384,1.6384,1.6384,1.6384,1.6384,1.6384,1.6384,1.6384,1.6384,1.6384,1.6384,1.6384,1.6384,1.6384,1.6384,1.6384,1.6384,1.6374,1.5778,1.5003,1.4059,1.4021,1.4038,1.4093,1.4117,1.4073,1.4129,1.4129,1.3992,1.3797,1.3572,1.3492,1.3492,1.3492,1.3492,1.3492,1.3492,1.3492,1.3492,1.3492,1.3492,1.3492,1.3492,1.3492,1.3492,1.3492,1.3492,1.3492,1.6908,1.6908,1.6908,1.6908,1.6908,1.6908,1.6908,1.6908,1.6908,1.6908,1.6459,1.6019,1.5716,1.523,1.4808,1.4533,1.4515,1.4515,1.4515,1.4515,1.4258,1.3821,1.4258,1.4515,1.4515,1.4515,1.4515,1.4515,1.4515,1.4515,1.4515,1.4515,1.4515,1.4515,1.4515,1.4258,1.3821,1.4327,1.4198,1.3881,1.4478,1.4775,1.4911,1.5156,1.5264,1.5362,1.541,1.541,1.541,1.541,1.541,1.541,1.541,1.541,1.541,1.541,1.541,1.541,1.541,1.541,1.541,1.541,1.5546,1.574,1.5856,1.6019,1.6181,1.6374,1.6384,1.6384,1.6384,1.6384,1.6384,1.6384,1.6384,1.6384,1.6384,1.6384,1.6384,1.6384,1.6384,1.6384,1.6384,1.6384,1.6202,1.571,1.4907,1.4506,1.4693,1.4311,1.4098,1.4101,1.4214,1.4324,1.4281,1.4209,1.392,1.3572,1.3499,1.3492,1.3492,1.3492,1.3492,1.3492,1.3492,1.3492,1.3492,1.3492,1.3492,1.3492,1.3492,1.3492,1.3492,1.3492,1.3492,1.3492,1.6403,1.6473,1.6551,1.6839,1.6908,1.6908,1.6908,1.6908,1.6908,1.6908,1.656,1.6156,1.5735,1.5331,1.4937,1.4543,1.4515,1.4515,1.4515,1.4515,1.4198,1.3511,1.3881,1.401,1.3692,1.395,1.395,1.37,1.37,1.3821,1.407,1.407,1.4258,1.4515,1.4515,1.4198,1.364,1.4309,1.4061,1.3381,1.4163,1.4588,1.4715,1.4843,1.5128,1.541,1.541,1.541,1.541,1.541,1.541,1.541,1.541,1.541,1.541,1.541,1.541,1.541,1.541,1.541,1.541,1.541,1.5478,1.5614,1.5856,1.5961,1.6077,1.6374,1.6384,1.6384,1.6384,1.6384,1.6384,1.6384,1.6384,1.6384,1.6384,1.6384,1.6384,1.6384,1.6384,1.6384,1.6384,1.6384,1.6134,1.5468,1.5028,1.4827,1.4853,1.4664,1.4441,1.4315,1.4387,1.4425,1.4281,1.4129,1.392,1.3645,1.3572,1.3492,1.3492,1.3492,1.3492,1.3492,1.3492,1.3492,1.3492,1.3492,1.3492,1.3492,1.3492,1.3492,1.3492,1.3492,1.3492,1.3492,1.5542,1.5683,1.5903,1.6551,1.6691,1.6691,1.676,1.683,1.683,1.6908,1.6519,1.6127,1.5735,1.5305,1.4921,1.4552,1.4515,1.4446,1.4387,1.4446,1.4139,1.339,1.345,1.313,1.2328,1.3009,1.313,1.2512,1.2512,1.2826,1.339,1.3442,1.3821,1.4387,1.4446,1.4207,1.383,1.4419,1.4043,1.313,1.3906,1.4213,1.4213,1.441,1.4824,1.5352,1.5352,1.541,1.541,1.541,1.541,1.541,1.541,1.541,1.541,1.541,1.541,1.541,1.541,1.541,1.541,1.541,1.541,1.5478,1.5798,1.5914,1.5972,1.6316,1.6374,1.6384,1.6384,1.6384,1.6384,1.6384,1.6384,1.6384,1.6384,1.6384,1.6384,1.6384,1.6384,1.6384,1.6384,1.6327,1.6097,1.5585,1.5809,1.5607,1.4789,1.5026,1.498,1.4633,1.4569,1.4425,1.4129,1.4057,1.3992,1.379,1.3572,1.3492,1.3492,1.3492,1.3492,1.3492,1.3492,1.3492,1.3492,1.3492,1.3492,1.3492,1.3492,1.3492,1.3492,1.3492,1.3492,1.3492,1.4824,1.4895,1.4895,1.5037,1.5108,1.5321,1.5974,1.6044,1.6263,1.683,1.6332,1.5875,1.5707,1.5083,1.4628,1.451,1.4515,1.4267,1.3761,1.4198,1.3709,1.2035,1.2956,1.2712,1.1052,1.2151,1.2634,1.2512,1.2512,1.2573,1.2757,1.326,1.3571,1.3761,1.4258,1.4139,1.3631,1.435,1.4231,1.3563,1.4034,1.4213,1.4213,1.441,1.4588,1.4765,1.5235,1.541,1.541,1.541,1.541,1.541,1.541,1.541,1.541,1.541,1.541,1.541,1.541,1.541,1.541,1.541,1.541,1.5478,1.5672,1.5798,1.5972,1.6124,1.6306,1.6384,1.6384,1.6384,1.6384,1.6384,1.6384,1.6384,1.6384,1.6384,1.6384,1.6384,1.6384,1.6384,1.6384,1.5894,1.5908,1.6624,1.5554,1.5189,1.5836,1.5152,1.4696,1.4561,1.4497,1.4425,1.4353,1.4,1.379,1.3572,1.3492,1.3492,1.3492,1.3492,1.3492,1.3492,1.3492,1.3492,1.3492,1.3492,1.3492,1.3492,1.3492,1.3492,1.3492,1.3492,1.3492,1.3492,1.4034,1.4106,1.4178,1.453,1.4601,1.4744,1.518,1.5259,1.5401,1.5754,1.5471,1.5116,1.4718,1.437,1.4076,1.402,1.3761,1.3511,1.3511,1.3821,1.3268,1.1545,1.2458,1.2274,1.0624,1.1233,1.16,1.16,1.16,1.1717,1.2027,1.2704,1.3191,1.3511,1.4198,1.4198,1.37,1.4478,1.4112,1.3086,1.3623,1.3674,1.3425,1.3485,1.3914,1.4529,1.4883,1.5177,1.541,1.541,1.541,1.541,1.541,1.541,1.541,1.541,1.541,1.541,1.541,1.541,1.541,1.541,1.541,1.5478,1.5672,1.5798,1.5972,1.6056,1.6249,1.6384,1.6384,1.6384,1.6384,1.6384,1.6384,1.6384,1.6384,1.6384,1.6384,1.6384,1.6384,1.6384,1.6384,1.627,1.6237,1.6477,1.6126,1.5839,1.5712,1.5339,1.4991,1.4641,1.4497,1.4425,1.4425,1.4217,1.4,1.3775,1.371,1.3645,1.3645,1.3645,1.3572,1.3492,1.3492,1.3492,1.3492,1.3492,1.3492,1.3492,1.3492,1.3492,1.3492,1.3492,1.3492,1.3492,1.3171,1.3317,1.3462,1.4099,1.4171,1.4243,1.4394,1.4386,1.4386,1.4601,1.4458,1.4206,1.3656,1.3473,1.3421,1.331,1.2818,1.2696,1.3139,1.326,1.2712,1.1421,1.1965,1.1779,1.0624,1.0624,1.0624,1.0624,1.0624,1.087,1.1358,1.2027,1.2642,1.3199,1.3881,1.401,1.3821,1.4428,1.3872,1.2666,1.3147,1.3009,1.2512,1.2512,1.3183,1.4163,1.4291,1.4706,1.5235,1.5352,1.541,1.541,1.541,1.541,1.541,1.541,1.541,1.541,1.541,1.541,1.541,1.541,1.541,1.542,1.5604,1.574,1.5914,1.5999,1.6192,1.6374,1.6374,1.6374,1.6384,1.6384,1.6384,1.6384,1.6384,1.6384,1.6384,1.6384,1.6384,1.6384,1.6384,1.666,1.6578,1.603,1.6683,1.6551,1.5283,1.5591,1.5409,1.4641,1.4569,1.4569,1.4425,1.4425,1.4353,1.4201,1.4,1.387,1.3797,1.379,1.3645,1.3492,1.3492,1.3492,1.3492,1.3492,1.3492,1.3492,1.3492,1.3492,1.3492,1.3492,1.3492,1.3492,1.2445,1.2445,1.2519,1.2586,1.2439,1.2652,1.3535,1.3528,1.3665,1.4458,1.4034,1.3641,1.3589,1.3028,1.2677,1.2642,1.2573,1.2266,1.1787,1.2336,1.2089,1.0807,1.1296,1.1296,1.0624,1.0624,1.0624,1.0624,1.0624,1.0624,1.0744,1.1358,1.1663,1.1787,1.2458,1.313,1.3692,1.3381,1.3554,1.3855,1.3,1.2573,1.2512,1.2512,1.2634,1.2879,1.3442,1.4052,1.4706,1.5235,1.541,1.541,1.541,1.541,1.541,1.541,1.541,1.541,1.541,1.541,1.541,1.541,1.541,1.541,1.541,1.5604,1.573,1.573,1.5951,1.6114,1.6114,1.6306,1.6384,1.6384,1.6384,1.6384,1.6384,1.6384,1.6384,1.6384,1.6384,1.6384,1.6384,1.6178,1.6201,1.649,1.6384,1.6143,1.5738,1.5737,1.5409,1.4641,1.4569,1.4569,1.4569,1.4425,1.4425,1.4497,1.4353,1.4145,1.379,1.3645,1.3499,1.3492,1.3492,1.3492,1.3492,1.3492,1.3492,1.3492,1.3492,1.3492,1.3492,1.3492,1.3492,1.3492,1.215,1.2157,1.2077,1.2003,1.1855,1.2003,1.2439,1.2512,1.2652,1.2938,1.2872,1.2711,1.2541,1.1999,1.1728,1.1926,1.16,1.1483,1.1483,1.1787,1.1545,1.0624,1.1178,1.124,1.0624,1.0624,1.0624,1.0624,1.0624,1.0624,1.0624,1.124,1.1483,1.1545,1.2212,1.2757,1.3199,1.307,1.307,1.3078,1.2696,1.2274,1.1981,1.1981,1.2212,1.2573,1.326,1.3923,1.4529,1.4824,1.5118,1.541,1.541,1.541,1.541,1.541,1.541,1.541,1.541,1.541,1.541,1.541,1.541,1.541,1.541,1.5478,1.5604,1.5798,1.5951,1.6114,1.6249,1.6316,1.6384,1.6384,1.6384,1.6384,1.6384,1.6384,1.6384,1.6384,1.6384,1.6477,1.6726,1.6849,1.6904,1.7002,1.6759,1.6336,1.5824,1.5338,1.4991,1.4641,1.4569,1.4569,1.4569,1.4569,1.4569,1.4569,1.4425,1.4289,1.4145,1.4072,1.3855,1.3645,1.3645,1.3572,1.3492,1.3492,1.3492,1.3492,1.3492,1.3492,1.3492,1.3492,1.3492,1.3492]},{"header":{"parameterUnit":"m.s-1","parameterCategory":1,"la1":30.6,"la2":28.766,"lo1":-90.7593,"lo2":-88.6598,"dy":0.0162,"dx":0.0183,"nx":116,"ny":114,"refTime":"2023-09-21T18:00:00:Z","depth":0,"parameterNumber":3,"parameterNumberName":"V-component_of_WINDS"},"data":[0.0,0.0,0.0,0.0,0.0,0.0,0.0,0.0,0.0,0.0,0.0,0.0,0.0,0.0,0.0,0.0,0.0,0.0,0.0,0.0,0.0,0.0,0.0,0.0,0.0,0.0,0.0,0.0,0.0,0.0,0.0,0.0,0.0,0.0,0.0,0.0,0.0,0.0,0.0,0.0,0.0,0.0,0.0,0.0,0.0,0.0,0.0,0.0,0.0,0.0,0.0,0.0,0.0,0.0,0.0,0.0,0.0,0.0,0.0,0.0,0.0,0.0,0.0,0.0,0.0,0.0,0.0,0.0,0.0,0.0,0.0,0.0,0.0,0.0,0.0,0.0,0.0,0.0,0.0,0.0,0.0,0.0,0.0,0.0,0.0,0.0,0.0,0.0,0.0,0.0,0.0,0.0,0.0,0.0,0.0,0.0,0.0,0.0,0.0,0.0,0.0,0.0,0.0,0.0,0.0,0.0,0.0,0.0,0.0,0.0,0.0,0.0,0.0,0.0,0.0,0.0,0.0,0.0,0.0,0.0,0.0,0.0,0.0,0.0,0.0,0.0,0.0,0.0,0.0,0.0,0.0,0.0,0.0,0.0,0.0,0.0,0.0,0.0,0.0,0.0,0.0,0.0,0.0,0.0,0.0,0.0,0.0,0.0,0.0,0.0,0.0,0.0,0.0,0.0,0.0,0.0,0.0,0.0,0.0,0.0,0.0,0.0,0.0,0.0,0.0,0.0,0.0,0.0,0.0,0.0,0.0,0.0,0.0,0.0,0.0,0.0,0.0,0.0,0.0,0.0,0.0,0.0,0.0,0.0,0.0,0.0,0.0,0.0,0.0,0.0,0.0,0.0,0.0,0.0,0.0,0.0,0.0,0.0,0.0,0.0,0.0,0.0,0.0,0.0,0.0,0.0,0.0,0.0,0.0,0.0,0.0,0.0,0.0,0.0,0.0,0.0,0.0,0.0,0.0,0.0,0.0,0.0,0.0,0.0,0.0,0.0,0.0,0.0,0.0,0.0,0.0,0.0,0.0,0.0,0.0,0.0,0.0,0.0,0.0,0.0,0.0,0.0,0.0,0.0,0.0,0.0,0.0,0.0,0.0,0.0,0.0,0.0,0.0,0.0,0.0,0.0,0.0,0.0,0.0,0.0,0.0,0.0,0.0,0.0,0.0,0.0,0.0,0.0,0.0,0.0,0.0,0.0,0.0,0.0,0.0,0.0,0.0,0.0,0.0,0.0,0.0,0.0,0.0,0.0,0.0,0.0,0.0,0.0,0.0,0.0,0.0,0.0,0.0,0.0,0.0,0.0,0.0,0.0,0.0,0.0,0.0,0.0,0.0,0.0,0.0,0.0,0.0,0.0,0.0,0.0,0.0,0.0,0.0,0.0,0.0,0.0,0.0,0.0,0.0,0.0,0.0,0.0,0.0,0.0,0.0,0.0,0.0,0.0,0.0,0.0,0.0,0.0,0.0,0.0,0.0,0.0,0.0,0.0,0.0,0.0,0.0,0.0,0.0,0.0,0.0,0.0,0.0,0.0,0.0,0.0,0.0,0.0,0.0,0.0,0.0,0.0,0.0,0.0,0.0,0.0,0.0,0.0,0.0,0.0,0.0,0.0,0.0,0.0,0.0,0.0,0.0,0.0,0.0,0.0,0.0,0.0,0.0,0.0,0.0,0.0,0.0,0.0,0.0,0.0,0.0,0.0,0.0,0.0,0.0,0.0,0.0,0.0,0.0,0.0,0.0,0.0,0.0,0.0,0.0,0.0,0.0,0.0,0.0,0.0,0.0,0.0,0.0,0.0,0.0,0.0,0.0,0.0,0.0,0.0,0.0,0.0,0.0,0.0,0.0,0.0,0.0,0.0,0.0,0.0,0.0,0.0,0.0,0.0,0.0,0.0,0.0,0.0,0.0,0.0,0.0,0.0,0.0,0.0,0.0,0.0,0.0,0.0,0.0,0.0,0.0,0.0,0.0,0.0,0.0,0.0,0.0,0.0,0.0,0.0,0.0,0.0,0.0,0.0,0.0,0.0,0.0,0.0,0.0,0.0,0.0,0.0,0.0,0.0,0.0,0.0,0.0,0.0,0.0,0.0,0.0,0.0,0.0,0.0,0.0,0.0,0.0,0.0,0.0,0.0,0.0,0.0,0.0,0.0,0.0,0.0,0.0,0.0,0.0,0.0,0.0,0.0,0.0,0.0,0.0,0.0,0.0,0.0,0.0,0.0,0.0,0.0,0.0,0.0,0.0,0.0,0.0,0.0,0.0,0.0,0.0,0.0,0.0,0.0,0.0,0.0,0.0,0.0,0.0,0.0,0.0,0.0,0.0,0.0,0.0,0.0,0.0,0.0,0.0,0.0,0.0,0.0,0.0,0.0,0.0,0.0,0.0,0.0,0.0,0.0,0.0,0.0,0.0,0.0,0.0,0.0,0.0,0.0,0.0,0.0,0.0,0.0,0.0,0.0,0.0,0.0,0.0,0.0,0.0,0.0,0.0,0.0,0.0,0.0,0.0,0.0,0.0,0.0,0.0,0.0,0.0,0.0,0.0,0.0,0.0,0.0,0.0,0.0,0.0,0.0,0.0,0.0,0.0,0.0,0.0,0.0,0.0,0.0,0.0,0.0,0.0,0.0,0.0,0.0,0.0,0.0,0.0,0.0,0.0,0.0,0.0,0.0,0.0,0.0,0.0,0.0,0.0,0.0,0.0,0.0,0.0,0.0,0.0,0.0,0.0,0.0,0.0,0.0,0.0,0.0,0.0,0.0,0.0,0.0,0.0,0.0,0.0,0.0,0.0,0.0,0.0,0.0,0.0,0.0,0.0,0.0,0.0,0.0,0.0,0.0,0.0,0.0,0.0,0.0,0.0,0.0,0.0,0.0,0.0,0.0,0.0,0.0,0.0,0.0,0.0,0.0,0.0,0.0,0.0,0.0,0.0,0.0,0.0,0.0,0.0,0.0,0.0,0.0,0.0,0.0,0.0,0.0,0.0,0.0,0.0,0.0,0.0,0.0,0.0,0.0,0.0,0.0,0.0,0.0,0.0,0.0,0.0,0.0,0.0,0.0,0.0,0.0,0.0,0.0,0.0,0.0,0.0,0.0,0.0,0.0,0.0,0.0,0.0,0.0,0.0,0.0,0.0,0.0,0.0,0.0,0.0,0.0,0.0,0.0,0.0,0.0,0.0,0.0,0.0,0.0,0.0,0.0,0.0,0.0,0.0,0.0,0.0,0.0,0.0,0.0,0.0,0.0,0.0,0.0,0.0,0.0,0.0,0.0,0.0,0.0,0.0,0.0,0.0,0.0,0.0,0.0,0.0,0.0,0.0,0.0,0.0,0.0,0.0,0.0,0.0,0.0,0.0,0.0,0.0,0.0,0.0,0.0,0.0,0.0,0.0,0.0,0.0,0.0,0.0,0.0,0.0,0.0,0.0,0.0,0.0,0.0,0.0,0.0,0.0,0.0,0.0,0.0,0.0,0.0,0.0,0.0,0.0,0.0,0.0,0.0,0.0,0.0,0.0,0.0,0.0,0.0,0.0,0.0,0.0,0.0,0.0,0.0,0.0,0.0,0.0,0.0,0.0,0.0,0.0,0.0,0.0,0.0,0.0,0.0,0.0,0.0,0.0,0.0,0.0,0.0,0.0,0.0,0.0,0.0,0.0,0.0,0.0,0.0,0.0,0.0,0.0,0.0,0.0,0.0,0.0,0.0,0.0,0.0,0.0,0.0,0.0,0.0,0.0,0.0,0.0,0.0,0.0,0.0,0.0,0.0,0.0,0.0,0.0,0.0,0.0,0.0,0.0,0.0,0.0,0.0,0.0,0.0,0.0,0.0,0.0,0.0,0.0,0.0,0.0,0.0,0.0,0.0,0.0,0.0,0.0,0.0,0.0,0.0,0.0,0.0,0.0,0.0,0.0,0.0,0.0,0.0,0.0,0.0,0.0,0.0,0.0,0.0,0.0,0.0,0.0,0.0,0.0,0.0,0.0,0.0,0.0,0.0,0.0,0.0,0.0,0.0,0.0,0.0,0.0,0.0,0.0,0.0,0.0,0.0,0.0,0.0,0.0,0.0,0.0,0.0,0.0,0.0,0.0,0.0,0.0,0.0,0.0,0.0,0.0,0.0,0.0,0.0,0.0,0.0,0.0,0.0,0.0,0.0,0.0,0.0,0.0,0.0,0.0,0.0,0.0,0.0,0.0,0.0,0.0,0.0,0.0,0.0,0.0,0.0,0.0,0.0,0.0,0.0,0.0,0.0,0.0,0.0,0.0,0.0,0.0,0.0,0.0,0.0,0.0,0.0,0.0,0.0,0.0,0.0,0.0,0.0,0.0,0.0,0.0,0.0,0.0,0.0,0.0,0.0,0.0,0.0,0.0,0.0,0.0,0.0,0.0,0.0,0.0,0.0,0.0,0.0,0.0,0.0,0.0,0.0,0.0,0.0,0.0,0.0,0.0,0.0,0.0,0.0,0.0,0.0,0.0,0.0,0.0,0.0,0.0,0.0,0.0,0.0,0.0,0.0,0.0,0.0,0.0,0.0,0.0,0.0,0.0,0.0,0.0,0.0,0.0,0.0,0.0,0.0,0.0,0.0,0.0,0.0,0.0,0.0,0.0,0.0,0.0,0.0,0.0,0.0,0.0,0.0,0.0,0.0,0.0,0.0,0.0,0.0,0.0,0.0,0.0,0.0,0.0,0.0,0.0,0.0,0.0,0.0,0.0,0.0,0.0,0.0,0.0,0.0,0.0,0.0,0.0,0.0,0.0,0.0,0.0,0.0,0.0,0.0,0.0,0.0,0.0,0.0,0.0,0.0,0.0,0.0,0.0,0.0,0.0,0.0,0.0,0.0,0.0,0.0,0.0,0.0,0.0,0.0,0.0,0.0,0.0,0.0,0.0,0.0,0.0,0.0,0.0,0.0,0.0,0.0,0.0,0.0,0.0,0.0,0.0,0.0,0.0,0.0,0.0,0.0,0.0,0.0,0.0,0.0,0.0,0.0,0.0,0.0,0.0,0.0,0.0,0.0,0.0,0.0,0.0,0.0,0.0,0.0,0.0,0.0,0.0,0.0,0.0,0.0,0.0,0.0,0.0,0.0,0.0,0.0,0.0,0.0,0.0,0.0,0.0,0.0,0.0,0.0,0.0,0.0,0.0,0.0,0.0,0.0,0.0,0.0,0.0,0.0,0.0,0.0,0.0,0.0,0.0,0.0,0.0,0.0,0.0,0.0,0.0,0.0,0.0,0.0,0.0,0.0,0.0,0.0,0.0,0.0,0.0,0.0,0.0,0.0,0.0,0.0,0.0,0.0,0.0,0.0,0.0,0.0,0.0,0.0,0.0,0.0,0.0,0.0,0.0,0.0,0.0,0.0,0.0,0.0,0.0,0.0,0.0,0.0,0.0,0.0,0.0,0.0,0.0,0.0,0.0,0.0,0.0,0.0,0.0,0.0,0.0,0.0,0.0,0.0,0.0,0.0,0.0,0.0,0.0,0.0,0.0,0.0,0.0,0.0,0.0,0.0,0.0,0.0,0.0,0.0,0.0,0.0,0.0,0.0,0.0,0.0,0.0,0.0,0.0,0.0,0.0,0.0,0.0,0.0,0.0,0.0,0.0,0.0,0.0,0.0,0.0,0.0,0.0,0.0,0.0,0.0,0.0,0.0,0.0,0.0,0.0,0.0,0.0,0.0,0.0,0.0,0.0,0.0,0.0,0.0,0.0,0.0,0.0,0.0,0.0,0.0,0.0,0.0,0.0,0.0,0.0,0.0,0.0,0.0,0.0,0.0,0.0,0.0,0.0,0.0,0.0,0.0,0.0,0.0,0.0,0.0,0.0,0.0,0.0,0.0,0.0,0.0,0.0,0.0,0.0,0.0,0.0,0.0,0.0,0.0,0.0,0.0,0.0,0.0,0.0,0.0,0.0,0.0,0.0,0.0,0.0,0.0,0.0,0.0,0.0,0.0,0.0,0.0,0.0,0.0,0.0,0.0,0.0,0.0,0.0,0.0,0.0,0.0,0.0,0.0,0.0,0.0,0.0,0.0,0.0,0.0,0.0,0.0,0.0,0.0,0.0,0.0,0.0,0.0,0.0,0.0,1.2092,0.0,0.0,0.0,0.0,0.0,0.0,0.0,0.0,0.0,0.0,0.0,0.0,0.0,0.0,0.0,0.0,0.0,0.0,0.0,0.0,0.0,0.0,0.0,0.0,0.0,0.0,0.0,0.0,0.0,0.0,0.0,0.0,0.0,0.0,0.0,0.0,0.0,0.0,0.0,0.0,0.0,0.0,0.0,0.0,0.0,0.0,0.0,0.0,0.0,0.0,0.0,0.0,0.0,0.0,0.0,0.0,0.0,0.0,0.0,0.0,0.0,0.0,0.0,0.0,0.0,0.0,0.0,0.0,0.0,0.0,0.0,0.0,0.0,0.0,0.0,0.0,0.0,0.0,0.0,0.0,0.0,0.0,0.0,0.0,0.0,0.0,0.0,0.0,0.0,0.0,0.0,0.0,0.0,0.0,0.0,0.0,0.0,0.0,0.0,0.0,0.0,0.0,0.0,0.0,0.0,0.0,0.0,0.0,0.0,0.0,0.0,0.0,0.0,0.0,0.0,0.0,1.2239,0.0,0.0,0.0,0.0,0.0,0.0,0.0,0.0,0.0,0.0,0.0,0.0,0.0,0.0,0.0,0.0,0.0,0.0,0.0,0.0,0.0,0.0,0.0,0.0,0.0,0.0,0.0,0.0,0.0,0.0,0.0,0.0,0.0,0.0,0.0,0.0,0.0,0.0,0.0,0.0,0.0,0.0,0.0,0.0,0.0,0.0,0.0,0.0,0.0,0.0,0.0,0.0,0.0,0.0,0.0,0.0,0.0,0.0,0.0,0.0,0.0,0.0,0.0,0.0,0.0,0.0,0.0,0.0,0.0,0.0,0.0,0.0,0.0,0.0,0.0,0.0,0.0,0.0,0.0,0.0,0.0,0.0,0.0,0.0,0.0,0.0,0.0,0.0,0.0,0.0,0.0,0.0,0.0,0.0,0.0,0.0,0.0,0.0,0.0,0.0,0.0,0.0,0.0,0.0,0.0,0.0,0.0,0.0,1.3513,1.4205,1.5298,1.4862,1.5277,1.6171,1.4352,1.3738,1.402,1.2991,0.0,0.0,0.0,0.0,0.0,0.0,0.0,0.0,0.0,0.0,0.0,0.0,0.0,0.0,0.0,0.0,0.0,0.0,0.0,0.0,0.0,-0.285,-0.2674,-0.2338,-0.313,-0.353,0.0,0.0,0.0,0.0,0.0,0.0,0.0,0.0,0.0,0.0,0.0,0.0,0.2749,0.283,0.3038,0.3316,0.391,0.0,0.0,0.0,0.0,0.0,0.0,0.0,0.0,0.0,0.0,0.0,0.0,0.0,0.0,0.0,0.0,0.0,0.0,0.0,0.0,0.0,0.0,0.0,0.0,0.0,0.0,0.0,0.0,0.0,0.0,0.0,0.0,0.0,0.0,0.0,0.0,0.0,0.0,0.0,0.0,0.0,0.0,0.0,0.4498,0.5378,0.0,0.0,0.0,0.0,0.0,0.0,0.0,0.0,0.0,0.0,0.0,0.0,0.0,1.1358,1.2197,1.2716,1.3531,1.4707,1.4997,1.5716,1.6784,1.6734,1.6784,1.6933,1.6634,0.0,1.5585,1.5079,0.0,0.0,0.0,0.0,0.0,0.0,0.0,0.0,0.0,0.0,0.0,0.0,0.0,0.0,0.0,0.0,0.0,0.0,0.0,0.0,0.0,-0.3633,-0.3627,-0.3118,-0.3688,-0.3974,-0.3641,0.0,0.0,0.0,0.0,0.0,0.0,0.0,0.0,0.0,0.0336,0.1187,0.1899,0.2572,0.2913,0.3019,0.3446,0.3844,0.4271,0.533,0.0,0.0,0.0,0.0,0.0,0.0,0.0,0.0,0.0,0.0,0.0,0.0,0.0,0.0,0.0,0.0,0.0,0.0,0.0,0.0,0.0,0.0,0.0,0.0,0.0,0.0,0.0,0.0,0.0,0.0,0.0,0.0,0.0,0.0,0.0,0.0,0.0,0.0,0.0,0.4174,0.4787,0.5614,0.5567,0.5665,0.0,0.0,0.0,0.0,0.0,0.0,0.0,0.0,0.0,1.1726,1.2124,1.2599,1.3223,1.3938,1.4875,1.6115,1.6534,1.7478,1.8946,1.8663,1.8729,1.9066,1.9,1.876,1.8285,1.662,1.5574,1.505,0.0,0.0,0.0,0.0,1.4505,1.4477,0.0,0.0,0.0,0.0,0.0,0.0,0.0,0.0,0.0,0.0,0.0,0.0,-0.3788,-0.4411,-0.4636,-0.4181,-0.4522,-0.4525,-0.4027,-0.3916,0.0,0.0,0.0,0.0,0.0,0.0,0.0,-0.0948,-0.062,0.0172,0.135,0.2393,0.2932,0.3059,0.3268,0.3432,0.3677,0.4987,0.538,0.0,0.0,0.0,0.0,0.0,0.0,0.0,0.0,0.0,0.0,0.0,0.0,0.0,0.0,0.0,0.0,0.0,0.0,0.0,0.0,0.0,0.0,0.0,0.0,0.0,0.0,0.0,0.0,0.0,0.0,0.0,0.0,0.0,0.0,0.0,0.0,0.0,0.0,0.4911,0.5365,0.6216,0.6332,0.6445,0.0,0.0,0.0,0.0,0.0,0.0,1.0215,1.0868,1.1809,1.3058,1.3634,1.4082,1.4402,1.5402,1.6353,1.7367,1.7966,1.8985,2.0425,2.0065,2.0193,2.061,2.0471,2.0471,2.0272,1.8237,1.7203,1.6838,1.6487,1.6155,1.591,1.5969,1.5969,1.5979,0.0,0.0,0.0,0.0,0.0,0.0,0.0,0.0,0.0,0.0,0.0,-0.4446,-0.4446,-0.523,-0.574,-0.5686,-0.5454,-0.5171,-0.5014,-0.4798,-0.4577,-0.4408,-0.4132,0.0,0.0,0.0,0.0,-0.1944,-0.0633,0.041,0.1348,0.2373,0.2957,0.3089,0.3175,0.3366,0.3673,0.4377,0.5152,0.5858,0.0,0.0,0.0,0.0,0.0,0.0,0.0,0.0,0.0,0.0,0.0,0.0,0.0,0.0,0.0,0.0,0.0,0.0,0.0,0.0,0.0,0.0,0.0,0.0,0.0,0.0,0.0,0.0,0.0,0.0,0.0,0.0,0.0,0.0,0.0,0.0,0.0,0.0,0.0,0.7586,0.7881,0.0,0.0,0.0,0.0,0.8745,0.8903,0.9582,1.0948,1.1707,1.2873,1.465,1.5362,1.5875,1.6059,1.7163,1.7912,1.8326,1.916,1.9925,2.0622,2.0553,2.0553,2.061,2.0586,2.0586,2.0553,2.018,1.9726,1.9315,1.9279,1.8992,1.8632,1.8873,1.8813,1.8632,0.0,0.0,0.0,0.0,0.0,0.0,0.0,0.0,0.0,-0.527,-0.5132,-0.5117,-0.5399,-0.5677,-0.5891,-0.6055,-0.6041,-0.6036,-0.6086,-0.5919,-0.5592,-0.5164,-0.5054,0.0,0.0,0.0,-0.4177,-0.3627,-0.2824,-0.1537,0.0121,0.0442,0.104,0.1854,0.2407,0.3008,0.3645,0.4558,0.5042,0.5223,0.5954,0.6218,0.0,0.0,0.0,0.0,0.0,0.0,0.0,0.0,0.0,0.0,0.0,0.0,0.0,0.0,0.0,0.0,0.0,0.0,0.0,0.0,0.0,0.0,0.0,0.0,0.0,0.0,0.0,0.0,0.0,0.0,0.0,0.0,0.0,0.0,0.0,0.0,0.0,0.7677,0.7973,0.0,0.854,0.88,0.9248,0.9869,1.0571,1.1519,1.279,1.3555,1.4586,1.5828,1.6177,1.6384,1.6529,1.762,1.8449,1.9051,2.0127,2.0988,2.1632,2.1632,2.1632,2.1632,2.162,2.162,2.1632,2.1511,2.0926,2.0077,1.9842,1.9666,1.9488,1.9499,1.944,1.938,0.0,0.0,0.0,0.0,0.0,0.0,0.0,0.0,-0.5309,-0.5305,-0.5289,-0.5504,-0.5959,-0.6228,-0.6436,-0.6485,-0.674,-0.6897,-0.6891,-0.6832,-0.6563,-0.614,-0.6032,0.0,0.0,-0.4956,-0.5096,-0.4994,-0.4632,-0.3322,-0.1057,-0.0899,-0.0066,0.1344,0.1949,0.2688,0.3498,0.4292,0.4755,0.5024,0.5554,0.5888,0.6075,0.0,0.0,0.0,0.0,0.0,0.0,0.0,0.0,0.0,0.0,0.0,0.0,0.0,0.0,0.0,0.0,0.0,0.0,0.0,0.0,0.0,0.0,0.0,0.0,0.0,0.0,0.0,0.0,0.0,0.0,0.0,0.0,0.0,0.0,0.0,0.7711,0.8271,0.8778,0.9142,0.9379,0.9914,1.0509,1.1361,1.2043,1.2987,1.4262,1.4998,1.5807,1.6677,1.6886,1.7223,1.759,1.8572,1.9425,2.0171,2.1151,2.1851,2.2247,2.2321,2.2309,2.2197,2.2247,2.2247,2.2197,2.2197,2.1716,2.095,2.0724,2.0532,2.0412,2.0292,2.0243,2.0121,0.0,0.0,0.0,0.0,0.0,0.0,0.0,-0.5289,-0.5293,-0.5281,-0.5391,-0.5614,-0.6178,-0.6939,-0.7371,-0.7139,-0.761,-0.7818,-0.7545,-0.7545,-0.7492,-0.7289,-0.7015,0.0,-0.5618,-0.5626,-0.5716,-0.5891,-0.5871,-0.4609,-0.2236,-0.1515,-0.0201,0.1681,0.1681,0.2218,0.3159,0.3558,0.4353,0.5209,0.4755,0.5289,0.6284,0.0,0.0,0.0,0.0,0.0,0.0,0.0,0.0,0.0,0.0,0.0,0.0,0.0,0.0,0.0,0.0,0.0,0.0,0.0,0.0,0.0,0.0,0.0,0.0,0.0,0.0,0.0,0.0,0.0,0.0,0.0,0.0,0.0,0.8027,0.8156,0.8613,0.9466,1.0432,1.0943,1.0883,1.1546,1.2323,1.3176,1.3251,1.3858,1.5263,1.5858,1.6466,1.711,1.7716,1.8462,1.9299,1.9944,2.0719,2.1616,2.2347,2.2616,2.242,2.2616,2.2494,2.2185,2.2359,2.2297,2.2197,2.2197,2.2197,2.2185,2.1999,2.1726,2.1388,2.1388,2.1336,2.1158,0.0,0.0,0.0,0.0,0.0,0.0,0.0,-0.5281,-0.5281,-0.5277,-0.6763,-0.7732,-0.7464,-0.7609,-0.786,-0.815,-0.8256,-0.8415,-0.8725,-0.8626,-0.8256,-0.7461,-0.6701,0.0,-0.5622,-0.6034,-0.6128,-0.5891,-0.6107,-0.5527,-0.4096,-0.3629,-0.2609,-0.1073,-0.0402,0.067,0.194,0.2683,0.3556,0.4359,0.4558,0.4824,0.509,0.0,0.0,0.0,0.0,0.0,0.0,0.0,0.0,0.0,0.0,0.0,0.0,0.0,0.0,0.0,0.0,0.0,0.0,0.0,0.0,0.0,0.0,0.0,0.0,0.0,0.0,0.0,0.0,0.0,0.0,0.0,0.0,0.8805,0.8236,0.9154,1.0077,1.0536,1.1062,1.1452,1.1654,1.2068,1.2661,1.3408,1.4311,1.5282,1.6406,1.7254,1.7803,1.8091,1.8287,1.8731,1.9497,2.0204,2.091,2.1616,2.2347,2.2678,2.2616,2.2678,2.2629,2.2555,2.242,2.2359,2.2359,2.2247,2.2197,2.2185,2.1999,2.18,2.1612,2.1463,2.1336,2.1158,0.0,0.0,0.0,0.0,0.0,0.0,0.0,-0.5391,-0.5273,-0.5311,-0.7558,-0.8964,-0.8483,-0.8498,-0.8566,-0.8573,-0.8679,-0.8844,-0.9113,-0.8903,-0.8474,-0.7895,-0.7187,-0.6593,-0.6218,-0.6641,-0.6683,-0.6249,-0.6564,-0.6117,-0.489,-0.471,-0.3882,-0.2551,-0.134,-0.0067,0.1204,0.2146,0.3023,0.383,0.4028,0.4292,0.4489,0.4287,0.4148,0.4015,0.4087,0.4025,0.3897,0.4102,0.0,0.0,0.0,0.0,0.0,0.0,0.0,0.0,0.0,0.0,0.0,0.0,0.0,0.0,0.0,0.0,0.0,0.0,0.0,0.0,0.0,0.0,0.0,0.0,0.9019,1.0086,0.9657,1.0323,1.1048,1.1376,1.1908,1.2303,1.251,1.3282,1.4034,1.4805,1.5903,1.689,1.7837,1.8567,1.9023,1.9093,1.9093,1.9624,2.0753,2.114,2.1874,2.2926,2.3341,2.3554,2.3492,2.3554,2.3368,2.3022,2.2885,2.2701,2.242,2.2247,2.2197,0.0,0.0,0.0,0.0,0.0,2.1336,2.1158,0.0,0.0,0.0,0.0,0.0,0.0,0.0,-0.5614,-0.5433,-0.5558,-0.7811,-0.9416,-0.9272,-0.9323,-0.9214,-0.8738,-0.8995,-0.9166,-0.9008,-0.8633,-0.8421,-0.8421,-0.809,-0.7676,-0.7122,-0.7349,-0.7244,-0.6829,-0.7092,-0.657,-0.5272,-0.5206,-0.4547,-0.336,-0.181,-0.0536,0.0536,0.1609,0.2619,0.3498,0.3498,0.3761,0.4087,0.362,0.3551,0.3749,0.3961,0.3766,0.35,0.4043,0.0,0.0,0.0,0.0,0.0,0.0,0.0,0.0,0.0,0.0,0.0,0.0,0.0,0.0,0.0,0.0,0.0,0.0,0.0,0.0,0.0,0.0,0.0,0.0,1.0238,1.1751,1.1689,1.1723,1.1868,1.21,1.2848,1.3397,1.3575,1.4836,1.5893,1.6799,1.7685,1.855,1.9294,0.0,0.0,0.0,0.0,2.0885,2.2423,2.2559,2.3313,2.482,2.482,2.4768,2.4638,2.4755,2.4364,2.3651,2.3638,2.3205,2.2517,2.2394,2.2308,2.2185,2.2185,2.2061,2.1862,2.1526,2.1336,2.1221,0.0,0.0,0.0,0.0,0.0,0.0,0.0,-0.6064,-0.6277,-0.6982,-0.7884,-0.8725,-0.9475,-0.9365,-0.9225,-0.9256,-0.9204,-0.9211,-0.9159,-0.8784,-0.8573,-0.8573,-0.8143,-0.7703,-0.7354,-0.7538,-0.7485,-0.7102,-0.7364,-0.7093,-0.6404,-0.5947,-0.5355,-0.4688,-0.3482,-0.2209,-0.0935,-0.0201,0.1475,0.3565,0.3565,0.3429,0.3222,0.2954,0.2552,0.2082,0.2218,0.2354,0.2287,0.1008,0.0738,0.1005,0.1208,0.0,0.0,0.0,0.0,0.0,0.0,0.0,0.0,0.0,0.0,0.0,0.0,0.0,0.0,0.0,0.0,0.0,0.0,0.0,0.0,0.9628,1.1083,1.2277,1.2892,1.3189,1.3256,1.306,1.3461,1.4194,1.5468,1.5858,1.6674,1.8253,1.8619,1.9193,1.9961,2.0175,2.0278,2.0278,2.1096,2.1851,2.2536,2.3368,2.4132,2.482,0.0,0.0,2.4755,2.4755,2.4705,2.4528,2.4412,2.4025,2.3442,2.3329,2.2884,2.2359,2.2049,2.1925,2.1862,2.1526,2.1388,2.1336,0.0,0.0,0.0,0.0,0.0,0.0,0.0,-0.6505,-0.6776,-0.7574,-0.8246,-0.8904,-0.953,-0.9442,-0.9309,-0.9413,-0.9256,-0.9211,-0.9211,-0.8837,-0.8732,-0.8995,-0.8567,-0.8253,-0.8118,-0.8121,-0.7909,-0.7426,-0.7496,-0.7195,-0.6675,-0.6152,-0.569,-0.5226,-0.402,-0.2947,-0.1939,-0.0602,0.0938,0.2484,0.2956,0.2958,0.2622,0.2488,0.2151,0.1614,0.1212,0.1078,0.0942,-0.0336,-0.0671,-0.0537,-0.0538,-0.0403,-0.0067,0.0,0.0,0.0,0.0,0.0,0.0,0.0,0.0,0.0,0.0,0.0,0.0,0.0,0.0,0.5709,0.0,0.0,0.9287,1.0472,1.1948,1.3157,1.3513,1.4088,1.4452,1.4281,1.4566,1.5316,1.655,1.7102,1.7926,1.9102,1.9736,2.0242,2.0637,2.0927,2.1188,2.1408,2.2165,2.2928,2.3793,2.4562,2.5197,2.5769,2.5769,2.5703,2.5636,2.5636,2.5485,2.5209,2.509,2.466,2.4126,2.3663,2.3266,2.2922,2.2468,2.2123,2.1862,2.1726,2.16,2.1549,0.0,0.0,0.0,0.0,0.0,0.0,0.0,0.0,-0.7203,-0.7931,-0.8659,-0.9267,-0.965,-0.9577,-0.9517,-0.9465,-0.9316,-0.9263,-0.9263,-0.889,-0.8942,-0.9361,-0.8988,-0.8752,-0.8705,-0.8537,-0.8162,-0.762,-0.7531,-0.7265,-0.6741,-0.6214,-0.5756,-0.5359,-0.4223,-0.3485,-0.288,-0.1004,0.0268,0.1139,0.2214,0.2353,0.2018,0.2018,0.1817,0.1412,0.0606,0.0135,-0.0202,-0.0942,-0.148,-0.1817,-0.1951,-0.1749,-0.121,0.0067,0.0805,0.0,0.0,0.0,0.0,0.0,0.0,0.0,0.0,0.0,0.5303,0.5956,0.6102,0.6565,0.8018,0.9052,1.013,1.1416,1.2855,1.3855,1.4141,1.4828,1.5494,1.5922,1.6112,1.6659,1.7698,1.8712,1.9497,2.0171,2.1031,2.1534,2.1597,2.1955,2.2381,2.283,2.3452,2.4241,2.5146,2.5767,2.6333,2.6794,2.6794,2.6726,2.6602,2.6533,2.6269,2.5829,2.5515,2.5174,2.4751,2.4062,2.3712,2.3663,2.3108,2.259,2.213,2.2035,2.1874,2.1686,0.0,0.0,0.0,0.0,0.0,0.0,0.0,0.0,0.0,-0.8468,-0.8896,-0.9375,-0.9895,-0.9947,-0.9895,-0.9747,-0.9524,-0.9361,-0.9361,-0.9204,-0.9211,-0.9413,-0.889,-0.853,-0.8287,-0.7946,-0.7597,-0.7245,-0.7412,-0.7265,-0.6881,-0.6346,-0.5881,-0.555,-0.4821,-0.4359,-0.4028,-0.2751,-0.1273,0.0268,0.1679,0.1816,0.121,0.121,0.1008,0.0605,0.0202,-0.0135,-0.0472,-0.1413,-0.1749,-0.1749,-0.148,-0.1748,-0.1749,-0.0134,0.0,0.0871,0.2017,0.2893,0.0,0.3809,0.3908,0.4271,0.0,0.0,0.5956,0.7583,0.7906,0.8457,1.039,1.082,1.1494,1.3216,1.3658,1.4229,1.543,1.5667,1.6436,1.8364,1.8052,1.8221,1.9551,2.0569,2.1555,2.2583,2.2733,2.2977,2.3447,2.3565,2.3806,2.4457,2.5322,2.5755,2.5685,2.6688,2.7066,2.6943,2.6943,2.6943,2.6956,2.6726,2.662,2.6519,2.5879,2.5561,2.5473,2.4881,2.4603,2.4424,2.379,2.3378,2.3013,2.2366,2.2061,2.1874,0.0,0.0,0.0,0.0,0.0,0.0,0.0,0.0,0.0,0.0,-0.9204,-0.9569,-0.9947,-0.9999,-0.9895,-0.9673,-0.9569,-0.9465,-0.9413,-0.9256,-0.9106,-0.8942,-0.8732,-0.8413,-0.8039,-0.7683,-0.7338,-0.7017,-0.6987,-0.6834,-0.6454,-0.6032,-0.5745,-0.555,-0.4964,-0.4637,-0.4436,-0.3088,-0.1878,-0.0737,0.1209,0.1547,0.0807,0.0538,0.0202,-0.0067,-0.0269,-0.0605,0.0,0.0,-0.1749,-0.1817,-0.1412,-0.148,-0.1344,0.0403,0.0941,0.0,0.2822,0.0,0.0,0.0,0.4418,0.4728,0.5406,0.5769,0.6429,0.8019,0.8399,0.9042,1.0961,1.1443,1.2131,0.0,1.4283,1.4909,1.5667,1.6647,1.7698,1.8842,1.9771,2.0567,2.1155,2.1626,2.2168,2.2905,2.3001,2.3202,2.3745,2.3818,2.4169,2.504,2.5755,2.6195,2.6346,2.704,2.7335,2.7146,2.7146,2.7079,2.7024,2.6943,2.6794,2.6701,2.6392,2.6236,2.605,2.5498,2.5206,2.5156,2.4553,2.4213,2.3858,2.2748,2.2185,2.2061,0.0,0.0,0.0,0.0,0.0,0.0,0.0,0.0,0.0,0.0,-0.9569,-0.9932,-1.0102,-1.0102,-0.9999,-0.9725,-0.9666,-0.951,-0.9361,-0.9099,-0.8844,-0.8573,-0.8256,-0.799,-0.7664,-0.725,-0.6852,-0.6449,-0.6272,-0.5938,-0.5502,-0.5413,-0.5225,-0.5094,-0.4824,-0.4372,-0.3761,-0.282,-0.2014,-0.1208,0.0605,0.1009,0.0605,-0.0067,-0.0269,-0.0269,-0.0269,-0.0672,0.0,0.0,-0.1277,-0.1412,-0.1143,-0.1076,-0.0808,0.0746,0.1436,0.2066,0.3604,0.0,0.0,0.449,0.4828,0.5171,0.5561,0.6232,0.7142,0.8522,0.9122,0.9911,1.1588,1.2144,1.2725,1.3833,1.4699,1.5486,1.6269,1.7654,1.8868,1.9726,2.1312,2.236,2.267,2.267,2.283,2.3298,2.357,2.3902,2.4529,2.4672,2.5169,2.6032,2.6321,2.662,2.6918,2.7323,2.7469,2.7335,2.7335,2.7268,2.7146,2.7079,2.6943,2.6794,2.6714,2.6658,2.6496,2.6068,2.5837,2.5774,2.5247,2.4916,2.4673,2.3401,2.271,2.244,0.0,0.0,0.0,0.0,0.0,0.0,0.0,0.0,0.0,0.0,0.0,0.0,0.0,-1.0368,-1.0213,-0.9999,-0.9725,-0.9465,-0.9211,-0.8738,-0.8421,-0.8427,-0.7467,-0.6982,-0.7139,-0.6477,-0.5834,-0.5251,-0.518,-0.4652,-0.3803,-0.437,-0.4374,-0.3995,-0.4527,-0.3565,-0.1542,-0.195,-0.1547,-0.0672,-0.0135,0.0202,0.0404,-0.0674,-0.0471,0.0403,0.0403,0.0,0.0,0.0067,-0.0,-0.0336,-0.047,-0.0538,0.0,0.0625,0.1851,0.3069,0.0,0.0,0.4242,0.4646,0.5029,0.5334,0.5838,0.6978,0.8208,0.9611,1.064,1.1694,1.29,1.3193,1.3484,1.4418,1.4927,1.579,1.7599,1.8497,1.9716,2.1748,2.2424,2.3043,0.0,2.4116,2.4116,2.4127,2.4921,2.566,2.6296,2.6799,2.7377,2.8013,2.7669,2.7456,2.7469,2.7456,2.7523,2.7456,2.7456,2.7456,2.7469,2.7335,2.7214,2.6943,2.6794,2.6714,2.6645,2.6496,2.6496,2.6445,2.5799,2.5507,2.5257,2.4513,2.3778,2.3062,0.0,0.0,0.0,0.0,0.0,0.0,0.0,0.0,0.0,0.0,0.0,0.0,0.0,0.0,0.0,0.0,-0.9725,-0.9465,-0.9106,-0.8633,-0.8209,-0.7664,-0.6858,-0.6322,-0.6109,-0.5401,-0.4815,-0.4422,-0.4274,-0.4107,-0.3822,-0.4186,-0.3911,-0.3153,-0.4579,-0.4515,-0.3167,-0.0942,0.101,0.2559,0.202,0.1817,0.1747,0.1209,0.1006,0.1073,0.0,0.0,0.0067,0.0269,-0.0,-0.0403,-0.0067,0.0202,0.0608,0.1805,0.2743,0.3501,0.4059,0.0,0.4264,0.4894,0.5173,0.5622,0.659,0.7454,0.8529,1.0185,1.0956,1.1706,1.2599,1.3258,1.3768,1.4346,1.5348,1.6668,1.811,1.9396,2.0781,2.2296,2.2968,0.0,0.0,0.0,0.0,2.5063,2.5873,2.6789,2.7841,2.8494,2.9061,2.9632,2.9484,2.928,2.9061,2.9061,2.8726,2.8085,2.7706,2.7523,2.7523,2.7469,2.7335,2.7214,2.7134,2.693,2.6714,2.6658,2.6589,2.6508,2.6251,2.6176,2.6045,2.5282,2.4892,2.4476,0.0,0.0,0.0,0.0,0.0,0.0,0.0,0.0,0.0,0.0,0.0,0.0,0.0,0.0,0.0,0.0,0.0,-0.9361,-0.8956,-0.8421,-0.7883,-0.7343,-0.6593,-0.5941,-0.5449,-0.4846,-0.4236,-0.3519,-0.3367,-0.3175,-0.2954,-0.2985,-0.2692,-0.2122,-0.3038,-0.291,-0.1855,0.1061,0.2673,0.3368,0.2827,0.2757,0.2889,0.208,0.1878,0.0,0.0,0.0,0.1008,0.1008,0.0605,0.0134,0.047,0.0954,0.1527,0.2401,0.3165,0.3739,0.4126,0.4234,0.4363,0.4817,0.5275,0.5831,0.6908,0.7851,0.8993,1.0576,1.1403,1.2003,1.2673,1.3324,1.3905,1.4194,1.5527,1.6963,1.8405,1.995,2.1414,2.2861,2.3582,2.4177,0.0,0.0,0.0,2.5954,2.7005,2.8148,2.9143,2.9778,3.02,3.0569,3.0433,3.0282,2.9992,2.984,2.9353,2.8373,2.8331,2.804,2.7523,2.7523,2.7469,2.7403,2.7335,2.7134,2.6918,2.6782,2.6658,2.6589,2.6521,2.6533,2.6414,2.5915,2.5722,2.556,0.0,0.0,0.0,0.0,0.0,0.0,0.0,0.0,0.0,0.0,0.0,0.0,0.0,0.0,0.0,0.0,0.0,0.0,-0.8752,-0.8049,-0.7557,-0.7235,-0.6495,-0.5782,-0.505,-0.4725,-0.3953,-0.2681,-0.2462,-0.1962,-0.1123,-0.0927,-0.0824,-0.0708,-0.0182,0.0814,0.2187,0.3677,0.3342,0.194,0.241,0.3088,0.3634,0.2012,0.0,0.0,0.0,0.0,0.0,0.2154,0.0,0.0,0.1143,0.1743,0.2398,0.2474,0.309,0.3834,0.4077,0.4231,0.4462,0.4698,0.5168,0.5867,0.693,0.8228,0.9669,1.0864,1.1916,1.2673,0.0,0.0,1.3905,1.4129,1.5404,1.6966,1.8661,2.0183,2.1738,0.0,0.0,0.0,0.0,0.0,0.0,2.6934,0.0,2.9538,3.0186,3.076,3.0991,3.0991,3.0719,3.0528,3.0528,3.0115,2.9475,2.8602,2.9388,2.8998,2.7562,2.7536,2.7523,2.7456,2.7403,2.7335,2.7268,2.6863,2.6714,2.6714,2.6602,2.6521,2.6465,2.627,2.6339,2.6233,0.0,0.0,0.0,0.0,0.0,0.0,0.0,0.0,0.0,0.0,0.0,0.0,0.0,0.0,0.0,0.0,0.0,0.0,-0.8043,-0.7498,-0.6902,-0.605,-0.5171,-0.4508,-0.4125,-0.3519,-0.2852,-0.2181,-0.1905,-0.1233,-0.0056,-0.0057,0.0402,0.1118,0.1245,0.1514,0.1995,0.3377,0.369,0.3255,0.0,0.3561,0.3761,0.0,0.0,0.0,0.0,0.0,0.0,0.0,0.0,0.0,0.0,0.2136,0.2417,0.3043,0.3426,0.3751,0.4208,0.4384,0.4462,0.4859,0.5249,0.6018,0.7468,0.8613,0.975,1.1248,1.2003,1.2452,1.2673,0.0,0.0,1.4887,1.6536,0.0,1.9612,2.0723,0.0,2.3296,0.0,2.5405,2.5673,2.6921,0.0,0.0,2.9875,3.0569,3.1763,3.2374,3.2709,3.2709,3.2626,3.2416,3.2107,3.1695,3.1309,3.0938,3.0184,2.9545,2.8999,2.7974,2.7523,2.7523,2.7469,2.7403,2.7268,2.7201,2.7079,2.6943,2.6875,2.6807,2.6658,2.6589,2.6521,2.6427,0.0,0.0,0.0,0.0,0.0,0.0,0.0,0.0,0.0,0.0,0.0,0.0,0.0,0.0,0.0,0.0,0.0,0.0,0.0,-0.7283,-0.6642,-0.5622,-0.4956,-0.4291,-0.3569,-0.3014,-0.2291,-0.1454,-0.1064,-0.0504,0.0168,0.112,0.1811,0.2362,0.2535,0.264,0.2718,0.351,0.3816,0.0,0.0,0.0,0.0,0.0,0.0,0.0,0.0,0.0,0.0,0.0,0.0,0.1412,0.1817,0.2195,0.2606,0.311,0.0,0.3798,0.4203,0.4387,0.4621,0.4779,0.5553,0.6626,0.8075,0.921,1.0346,1.17,1.215,0.0,1.2673,1.3954,0.0,0.0,0.0,0.0,1.9734,2.0909,2.2236,0.0,2.4881,0.0,2.6569,2.7723,2.91,0.0,3.0894,3.1431,3.2764,3.3143,3.3326,3.3326,3.3326,3.3227,3.303,3.322,3.2962,3.2272,3.19,3.1146,3.0044,2.9323,2.8763,2.8403,0.0,2.8338,2.8274,2.7894,2.7842,2.7973,2.7577,2.7564,2.767,2.7617,2.7364,2.6973,0.0,0.0,0.0,0.0,0.0,0.0,0.0,0.0,0.0,0.0,0.0,0.0,0.0,0.0,0.0,0.0,0.0,0.0,0.0,0.0,0.0,-0.5454,-0.5069,-0.4401,-0.3234,-0.2896,-0.2062,-0.0727,-0.028,0.0,0.0223,0.2071,0.303,0.3086,0.3426,0.3591,0.3743,0.3743,0.3687,0.3603,0.0,0.0,0.0,0.0,0.0,0.0,0.0,0.0,0.0,0.0,0.1614,0.1681,0.1748,0.2255,0.2802,0.3033,0.3477,0.3936,0.4126,0.4389,0.4698,0.4854,0.6009,0.7387,0.8528,0.9884,1.1081,1.2024,0.0,1.2378,1.2708,1.3961,1.489,1.5026,0.0,1.8725,1.9445,2.0903,2.2428,2.3999,2.52,2.6425,2.7591,2.8247,2.9426,3.1387,3.1485,3.2033,3.3255,3.3326,3.3326,3.3326,3.3382,3.3493,3.3575,3.4543,3.4383,3.3273,3.3888,3.3084,3.1068,3.0919,3.0347,2.9566,2.9504,2.9504,2.9442,2.8776,2.8789,2.9233,2.8505,2.8556,2.9016,2.8917,2.8454,2.7802,0.0,0.0,0.0,0.0,0.0,0.0,0.0,0.0,0.0,0.0,-0.9349,-0.9621,0.0,0.0,0.0,0.0,0.0,0.0,0.0,0.0,0.0,0.0,-0.4128,-0.363,-0.28,-0.2745,-0.2071,-0.0841,-0.0505,0.0168,0.1118,0.1846,0.2519,0.3077,0.3135,0.3312,0.3444,0.3273,0.3161,0.3137,0.0,0.0,0.0,0.0,0.0,0.0,0.0,0.0,0.0,0.0,0.1817,0.2153,0.2418,0.2627,0.2802,0.3305,0.358,0.3921,0.4255,0.4543,0.4932,0.5702,0.6546,0.754,0.9064,1.0115,0.0,0.0,1.1937,1.2148,1.2186,1.3593,1.5022,1.5563,0.0,0.0,0.0,0.0,2.216,0.0,0.0,0.0,0.0,0.0,0.0,0.0,0.0,3.2033,3.3255,3.3326,3.3326,3.3326,3.377,3.3948,3.4002,3.5008,3.5355,3.4946,3.4446,3.3636,3.2599,3.1358,3.0409,2.9766,2.9566,0.0,2.9504,2.9317,2.9393,2.9456,2.9317,2.9268,2.9233,2.9233,2.898,2.8597,0.0,0.0,0.0,0.0,0.0,0.0,0.0,-0.8224,-0.8436,-0.8436,-0.8838,-0.9197,-0.9365,-0.932,0.0,0.0,0.0,0.0,0.0,0.0,0.0,0.0,0.0,0.0,0.0,-0.2465,-0.1623,0.0,0.0,0.0951,0.2015,0.2404,0.2742,0.3023,0.319,0.3244,0.3244,0.313,0.3102,0.3092,0.0,0.0,0.0,0.0,0.0,0.0,0.0,0.0,0.0,0.0,0.3088,0.3357,0.2887,0.282,0.3048,0.3455,0.3672,0.396,0.4863,0.5186,0.5544,0.6619,0.7613,0.8576,0.9368,0.0,0.0,0.0,1.1637,1.1867,1.239,1.3603,0.0,0.0,0.0,0.0,0.0,0.0,0.0,0.0,0.0,0.0,0.0,0.0,0.0,0.0,0.0,3.2354,3.3255,3.3577,3.3825,3.4099,3.4356,3.4677,3.4957,3.5415,3.5816,3.5943,3.5594,3.4772,3.3607,3.2898,3.1928,3.0837,3.0718,3.0644,3.0524,3.0147,3.0208,3.0524,3.0147,3.0208,3.0418,3.0358,3.004,2.9594,0.0,0.0,0.0,0.0,0.0,0.0,0.0,-0.7931,-0.8099,-0.8099,-0.8377,-0.8677,-0.8941,-0.9148,-0.9186,0.0,0.0,0.0,0.0,0.0,0.0,0.0,0.0,0.0,0.0,0.0,0.0,0.0,0.0,0.0,0.0,0.0,0.0,0.0,0.0,0.0,0.0,0.3021,0.3077,0.0,0.0,0.0,0.0,0.0,0.0,0.0,0.0,0.0,0.0,0.0,0.4156,0.4359,0.342,0.3355,0.3576,0.388,0.4041,0.4347,0.5565,0.5904,0.6215,0.7346,0.8548,0.9548,0.973,1.0694,0.0,0.0,1.1397,1.1708,1.2549,0.0,1.4559,0.0,1.7885,1.9554,0.0,0.0,0.0,0.0,0.0,0.0,0.0,0.0,0.0,0.0,0.0,0.0,3.3589,3.4016,3.4476,3.4876,3.5008,3.5285,3.5688,3.5816,3.6085,3.6492,3.6338,3.5569,3.4252,3.4056,3.3221,3.1898,3.1841,3.1727,3.1539,3.1029,3.1087,3.1467,3.0896,3.1029,3.1482,3.1409,3.097,3.0524,0.0,0.0,0.0,0.0,0.0,0.0,0.0,-0.7741,-0.7763,-0.7763,-0.8041,-0.826,-0.829,-0.8592,-0.87,0.0,0.0,0.0,0.0,0.0,0.0,0.0,0.0,0.0,0.0,0.0,0.0,0.0,0.0,0.0,0.0,0.0,0.0,0.0,0.0,0.0,0.0,0.0,0.0,0.0,0.0,0.0,0.0,0.0,0.0,0.0,0.0,0.0,0.0,0.0,0.0,0.4353,0.455,0.4616,0.4709,0.4971,0.0,0.0,0.6126,0.6255,0.6482,0.7833,0.868,0.9379,1.0293,0.0,0.0,1.1096,1.1293,1.1588,1.2039,1.3022,0.0,0.0,0.0,1.829,0.0,0.0,0.0,0.0,0.0,0.0,0.0,0.0,0.0,0.0,0.0,0.0,3.4714,3.4824,3.4876,3.4876,3.535,3.5623,3.5688,3.6163,3.6429,3.6476,3.5876,3.5183,3.4445,3.3625,3.2894,3.215,3.2038,3.1883,0.0,3.1727,3.1597,3.1482,3.1409,3.1467,3.1482,3.1482,3.1351,3.1219,0.0,0.0,0.0,0.0,0.0,0.0,-0.7712,-0.7712,-0.7712,-0.7712,-0.7829,-0.7982,-0.818,-0.8246,-0.8358,-0.8585,0.0,0.0,0.0,0.0,0.0,0.0,0.0,0.0,0.0,0.0,0.0,-0.0392,0.0168,0.0,0.0,0.0,0.0,0.0,0.0,0.0,0.0,0.0,0.0,0.0,0.0,0.0,0.0,0.0,0.0,0.0,0.0,0.0,0.0,0.0,0.0,0.0,0.5484,0.5749,0.0,0.0,0.5297,0.5655,0.6692,0.6991,0.7429,0.8639,0.934,0.9788,1.0189,0.0,1.1076,1.1411,1.1594,1.1992,1.3139,1.3717,1.4378,0.0,0.0,0.0,1.955,0.0,0.0,0.0,0.0,0.0,0.0,0.0,0.0,0.0,0.0,0.0,3.5165,3.5334,3.5544,3.5816,3.6085,3.6163,3.6163,3.6014,3.5891,3.5876,3.5199,3.4506,3.3814,3.3479,3.2931,3.2191,3.2135,3.2038,0.0,3.1841,3.1727,3.167,3.1539,3.1482,3.1482,3.1482,3.1467,3.1409,0.0,0.0,0.0,0.0,0.0,-0.7712,-0.7712,-0.7712,-0.7712,-0.7712,-0.767,-0.7757,-0.8034,-0.7925,-0.8013,-0.8434,-0.7535,0.0,0.0,0.0,0.0,0.0,0.0,0.0,0.0,0.0,-0.1846,-0.0559,-0.0056,0.084,0.0,0.0,0.0,0.0,0.0,0.0,0.0,0.0,0.0,0.0,0.0,0.0,0.0,0.0,0.0,0.0,0.0,0.0,0.0,0.0,0.0,0.0,0.0,0.0,0.0,0.0,0.5892,0.632,0.7342,0.7777,0.8088,0.9075,0.9627,0.9982,0.0,0.0,1.0924,1.1637,1.1896,1.2381,1.3906,1.4273,1.4638,1.573,0.0,1.791,1.9186,2.0748,0.0,0.0,0.0,0.0,0.0,0.0,0.0,0.0,0.0,0.0,3.4814,3.5202,3.5674,3.6476,3.6307,3.6184,3.6184,3.5522,3.5183,3.5183,3.4491,3.3891,3.3398,3.3198,3.2788,3.2247,3.2247,3.2191,0.0,3.194,3.1898,3.1841,3.1655,3.1597,3.1597,3.1539,3.1482,3.1482,0.0,0.0,0.0,0.0,0.0,0.0,-0.7712,-0.7712,-0.7712,-0.7712,-0.7572,-0.7572,-0.7677,-0.7503,-0.7553,-0.7966,-0.7279,0.0,0.0,0.0,0.0,0.0,0.0,0.0,0.0,0.0,-0.1621,-0.0894,0.0168,0.1064,0.179,0.2071,0.2631,0.0,0.0,0.0,0.0,0.0,0.0,0.0,0.0,0.0,0.0,0.0,0.0,0.0,0.0,0.0,0.0,0.0,0.0,0.0,0.0,0.0,0.0,0.0,0.733,0.7657,0.8317,0.8312,0.8306,0.8894,0.942,0.981,0.0,1.0428,1.0989,1.1648,1.2081,1.2696,1.3965,1.4341,1.4775,1.574,1.6325,0.0,1.8758,2.0093,0.0,0.0,0.0,0.0,0.0,0.0,0.0,0.0,0.0,0.0,3.3429,3.4106,3.5106,3.6445,3.5845,3.5491,3.5491,3.4829,3.4491,3.4475,3.3752,3.3413,3.3383,3.2705,3.2398,3.2398,3.2398,3.2342,0.0,3.2206,3.215,3.1996,3.1841,3.1799,3.1784,3.1597,3.1482,3.1482,0.0,0.0,0.0,0.0,0.0,0.0,0.0,-0.7657,-0.7685,-0.7714,-0.765,-0.7621,-0.7572,-0.7489,-0.7321,-0.6996,-0.6556,0.0,0.0,0.0,0.0,0.0,0.0,0.0,0.0,0.0,-0.2183,-0.1174,0.0168,0.1233,0.2071,0.2291,0.285,0.3685,0.3469,0.0,0.0,0.0,0.0,0.0,0.0,0.0,0.0,0.0,0.0,0.0,0.0,0.0,0.0,0.0,0.0,0.0,0.0,0.0,0.0,0.0,0.0,0.0,0.8242,0.8436,0.87,0.9204,0.96,0.9868,1.0117,1.0856,1.171,1.2451,1.3122,1.3906,1.4815,1.5186,1.5439,1.5856,1.6073,0.0,0.0,0.0,0.0,0.0,0.0,0.0,0.0,0.0,0.0,0.0,0.0,0.0,3.3383,3.3614,3.4168,3.5076,3.4906,3.4799,3.4799,3.4091,3.3737,3.3737,3.3044,3.2721,3.2705,3.249,3.2398,3.2398,3.2398,3.2398,3.2342,3.2247,3.2191,3.2135,3.1996,3.1898,3.1799,3.1727,3.1597,3.1482,0.0,0.0,0.0,0.0,0.0,0.0,0.0,-0.7154,-0.7133,-0.7405,-0.7391,-0.728,-0.7056,-0.693,-0.6719,-0.6392,-0.5963,0.0,0.0,0.0,0.0,0.0,0.0,0.0,0.0,-0.3304,-0.2465,-0.1285,-0.0056,0.1009,0.1849,0.2125,0.2681,0.3463,0.3411,0.0,0.0,0.0,0.0,0.0,0.0,0.0,0.5297,0.0,0.0,0.0,0.0,0.0,0.0,0.0,0.0,0.0,0.0,0.0,0.0,0.0,0.856,0.8624,0.0,0.8694,0.9145,0.9703,1.0091,0.0,0.0,1.1655,1.2451,1.3243,1.3855,1.4519,1.5294,1.5546,1.574,1.5856,1.6228,0.0,0.0,0.0,0.0,0.0,0.0,0.0,0.0,0.0,0.0,3.2398,3.2398,3.2582,3.2998,3.3013,3.3229,3.3675,3.3937,3.406,3.406,3.3383,3.3013,3.3013,3.2598,3.2398,3.2398,3.2398,3.2398,3.2398,3.2398,3.2398,0.0,3.2302,3.2302,3.2247,3.215,3.2038,3.194,3.1898,3.1769,3.1597,0.0,0.0,0.0,0.0,0.0,0.0,0.0,-0.6331,-0.6235,-0.6797,-0.6816,-0.6598,-0.6295,-0.5996,-0.5873,-0.6093,0.0,0.0,0.0,0.0,0.0,0.0,0.0,0.0,0.0,-0.3304,-0.2465,-0.1286,-0.0392,0.0505,0.1346,0.168,0.2237,0.3016,0.3244,0.358,0.0,0.0,0.0,0.0,0.0,0.0,0.0,0.0,0.0,0.0,0.0,0.0,0.0,0.0,0.0,0.0,0.0,0.0,0.0,0.0,0.0,0.0,0.0,0.921,0.0,0.0,0.0,0.0,1.2143,1.2704,0.0,1.3906,1.4341,1.4765,1.5294,1.5604,1.5846,1.5972,1.6719,0.0,0.0,0.0,0.0,0.0,0.0,0.0,0.0,0.0,3.2398,3.2398,3.2398,3.2398,3.2398,3.2398,3.2398,3.2398,3.3054,3.3393,3.3336,3.2705,3.2398,3.2398,3.2398,3.2398,3.2398,3.2437,3.2437,0.0,3.2492,3.2492,3.2437,3.2437,3.2437,3.2437,3.2302,3.2247,3.2287,3.215,3.1996,3.1898,0.0,0.0,0.0,0.0,0.0,0.0,0.0,0.0,0.0,0.0,-0.5953,-0.6076,-0.5916,-0.5959,-0.5782,0.0,0.0,0.0,0.0,0.0,0.0,0.0,0.0,0.0,0.0,-0.3375,-0.2643,-0.1009,0.0112,0.1008,0.168,0.1847,0.2569,0.3732,0.3239,0.3408,0.0,0.0,0.0,0.0,0.0,0.0,0.0,0.0,0.0,0.0,0.6853,0.7171,0.0,0.0,0.0,0.0,0.0,0.0,0.0,0.0,1.0533,1.0892,1.0773,0.0,1.0954,1.1516,1.1703,1.195,0.0,1.3243,1.3846,0.0,0.0,1.5303,1.5546,1.6114,1.6616,1.6729,0.0,0.0,0.0,0.0,0.0,0.0,0.0,0.0,0.0,3.2028,3.2398,3.2398,3.2398,3.2398,3.2398,3.2398,3.2398,3.2398,3.2944,3.3037,3.2628,3.2475,3.2398,3.2398,3.2398,3.2398,3.2382,3.2841,3.2986,3.3039,3.3475,3.3407,3.2986,3.2986,3.2986,3.3002,3.2547,3.2788,3.3391,3.2949,3.2695,3.2602,0.0,0.0,0.0,0.0,0.0,0.0,0.0,0.0,0.0,0.0,0.0,0.0,0.0,0.0,0.0,0.0,0.0,0.0,0.0,0.0,0.0,0.0,0.0,0.0,-0.2974,-0.338,-0.2871,-0.1291,0.0168,0.1065,0.14,0.1569,0.2235,0.3342,0.3624,0.3965,0.4356,0.0,0.0,0.0,0.5622,0.0,0.0,0.0,0.0,0.0,0.7551,0.8031,0.0,0.8725,0.8938,0.9025,0.0,0.0,0.0,0.0,1.1119,1.1585,1.2097,1.1896,1.171,1.232,1.2512,1.2765,1.3494,0.0,0.0,0.0,0.0,0.0,1.6056,1.6775,0.0,0.0,1.8484,0.0,0.0,0.0,0.0,0.0,0.0,0.0,0.0,0.0,3.2398,3.2398,3.2398,3.2492,3.2734,3.2547,3.2656,3.3108,3.3198,3.3039,3.2803,3.3002,3.3108,3.3108,3.3108,3.3002,3.2788,3.3303,3.3443,3.3251,3.3767,3.3834,3.3563,3.3563,3.3563,3.3563,3.3266,3.3459,3.3853,3.3563,3.3355,3.3287,0.0,0.0,0.0,0.0,0.0,0.0,0.0,0.0,0.0,0.0,0.0,0.0,0.0,0.0,0.0,0.0,0.0,0.0,0.0,0.0,0.0,0.0,0.0,-0.1953,-0.2579,-0.2925,-0.2589,-0.1515,0.0056,0.0842,0.0898,0.1122,0.168,0.2567,0.3959,0.4688,0.4802,0.5517,0.5681,0.5458,0.5996,0.0,0.0,0.0,0.0,0.0,0.0,0.0,0.0,0.9458,0.9718,0.9866,0.9767,0.0,0.0,0.0,0.0,0.0,1.304,1.2777,1.2443,1.307,1.3321,1.3692,0.0,0.0,0.0,0.0,0.0,0.0,0.0,0.0,0.0,0.0,0.0,0.0,0.0,0.0,0.0,0.0,0.0,0.0,3.0409,3.162,3.2398,3.2398,3.2492,3.2749,3.3198,3.2841,3.3055,3.3986,3.3665,3.3443,3.3443,3.3818,3.3986,3.3986,3.3986,3.3767,3.3355,3.3869,3.3869,3.3443,0.0,0.0,3.4136,3.4136,3.4136,3.4136,3.4036,3.4086,3.4235,3.4136,3.407,3.3937,0.0,0.0,0.0,0.0,0.0,0.0,0.0,0.0,0.0,0.0,0.0,0.0,0.0,0.0,0.0,0.0,0.0,0.0,0.0,0.0,0.0,0.0,-0.1574,-0.098,-0.0784,-0.0841,-0.0673,-0.028,0.0224,0.0617,0.0898,0.0954,0.1512,0.2567,0.3735,0.457,0.5073,0.5572,0.5896,0.6046,0.6154,0.0,0.0,0.0,0.0,0.0,0.0,0.0,0.0,1.0205,1.036,1.0419,1.0621,0.0,0.0,0.0,0.0,0.0,1.3165,1.3794,1.4382,1.413,1.4181,1.441,1.4852,0.0,0.0,0.0,0.0,0.0,0.0,0.0,0.0,0.0,0.0,0.0,0.0,0.0,0.0,0.0,0.0,3.038,3.0658,3.1717,3.2398,3.2398,3.2841,3.3093,3.3198,3.3563,3.3818,3.3986,3.4366,3.456,3.456,3.4185,3.3986,3.3986,3.3986,3.3986,3.3869,3.4431,3.4625,3.456,0.0,3.5115,3.4673,3.4673,3.4673,3.4625,3.4185,3.4577,3.5316,3.4816,3.4673,3.4625,0.0,0.0,0.0,0.0,0.0,0.0,0.0,0.0,0.0,0.0,0.0,0.0,0.0,0.0,0.0,0.0,0.0,0.0,0.0,0.0,0.0,-0.2159,-0.1383,-0.0849,-0.0672,-0.0336,-0.0056,0.0224,0.0336,0.0561,0.0898,0.1733,0.2345,0.2899,0.4181,0.5069,0.5517,0.5841,0.6105,0.6263,0.0,0.0,0.0,0.0,0.0,0.0,0.0,0.0,0.0,0.0,1.082,1.0972,1.1074,0.0,0.0,0.0,0.0,0.0,1.33,1.4269,1.5088,1.4993,1.5284,1.568,1.6083,0.0,0.0,0.0,0.0,0.0,0.0,0.0,0.0,0.0,0.0,0.0,0.0,2.6504,2.7085,0.0,0.0,2.9809,3.0479,3.1604,3.2467,3.2826,3.3303,3.3767,3.4053,3.402,3.4284,3.4833,3.4833,3.4927,3.5224,3.4975,3.4864,3.4864,3.4864,3.4721,3.4431,3.4975,3.5068,3.4833,0.0,3.547,3.5224,3.5224,3.5224,3.5224,3.4975,3.5178,3.5577,3.5316,3.5195,3.5165,0.0,0.0,0.0,0.0,0.0,0.0,0.0,0.0,0.0,0.0,0.0,0.0,0.0,0.0,0.0,0.0,0.0,0.0,0.0,0.0,-0.2406,-0.1905,-0.131,-0.094,-0.0896,-0.0393,0.0056,0.0393,0.0393,0.0617,0.1121,0.2289,0.301,0.334,0.4622,0.5458,0.59,0.6213,0.6426,0.6642,0.0,0.0,0.0,0.0,0.0,0.0,0.0,0.0,0.0,0.0,0.0,0.0,0.0,0.0,0.0,1.1929,1.2434,1.2958,1.3516,1.4612,1.5612,1.6007,0.0,1.6652,1.709,0.0,0.0,0.0,0.0,0.0,0.0,0.0,0.0,0.0,0.0,2.5502,2.6366,2.6692,2.7034,2.7515,2.8399,2.924,3.0084,3.1408,3.2408,3.2929,3.3721,3.4382,3.4769,3.4529,3.4769,3.5577,3.5224,3.5178,3.5577,3.5622,3.5622,3.5622,3.5622,3.5362,3.5021,3.5424,3.5379,3.5021,3.5424,3.5622,3.5622,3.5622,3.5622,3.5622,3.5622,3.5622,3.5622,3.5622,3.5549,3.5537,0.0,0.0,0.0,0.0,0.0,0.0,0.0,0.0,0.0,0.0,0.0,0.0,0.0,0.0,0.0,0.0,0.0,0.0,0.0,0.0,-0.2311,-0.1905,-0.1208,-0.0835,-0.0896,-0.0561,-0.0112,0.0393,0.0393,0.084,0.1734,0.1958,0.2736,0.395,0.4505,0.5277,0.6209,0.6539,0.7025,0.7616,0.767,0.0,0.0,0.0,0.0,0.0,0.0,0.0,0.0,0.0,0.0,0.0,0.0,0.0,1.2036,1.2063,1.2521,1.311,1.3767,1.5137,1.6493,1.7368,0.0,0.0,1.7146,1.7324,0.0,0.0,0.0,0.0,0.0,0.0,0.0,0.0,2.4875,2.6314,2.765,0.0,2.8005,2.8299,2.8947,2.9377,2.9473,3.1142,3.2218,3.2266,3.3811,3.4769,3.4769,3.5224,3.5515,3.5622,3.5577,3.5577,3.5622,3.5622,3.5622,3.5622,3.5622,3.5577,3.5515,3.5577,3.5577,3.5515,3.5577,3.5622,3.5622,3.5622,3.5622,3.5622,3.5622,3.5622,3.5622,3.5622,3.5577,3.5577,0.0,0.0,0.0,0.0,0.0,0.0,0.0,0.0,0.0,0.0,0.0,0.0,0.0,0.0,0.0,0.0,0.0,0.0,0.0,0.0,-0.242,-0.1907,-0.1287,-0.0908,-0.0896,-0.0785,-0.0336,0.0393,0.0617,0.0897,0.1288,0.2233,0.2954,0.3508,0.4783,0.5622,0.6005,0.6756,0.7235,0.7503,0.8203,0.8791,0.0,0.0,0.0,0.0,0.0,0.0,0.0,0.0,1.1769,1.1977,1.2344,1.2491,1.2589,1.2842,1.329,1.3805,1.4053,1.5429,1.6871,1.7137,0.0,0.0,0.0,0.0,0.0,0.0,0.0,0.0,0.0,0.0,0.0,2.4381,2.5923,2.7355,2.8008,2.8137,2.8201,2.8396,2.8627,2.9033,2.9764,3.0784,3.1692,3.2382,3.3371,3.3912,3.3912,3.4105,3.4235,3.4235,3.4235,3.4235,3.4235,3.4235,3.4295,3.4355,3.5182,3.5622,3.5622,3.5622,3.5622,3.5622,3.5622,3.5622,3.5622,3.5622,3.5622,3.5622,3.5622,3.5622,3.5622,3.5622,3.5622,3.5577,0.0,0.0,0.0,0.0,0.0,0.0,0.0,0.0,0.0,0.0,0.0,0.0,0.0,0.0,0.0,0.0,0.0,0.0,-0.3073,-0.2641,-0.2171,-0.1658,-0.1201,-0.092,-0.0897,-0.0898,-0.0561,0.0168,0.0673,0.1121,0.1511,0.2565,0.3284,0.3729,0.5226,0.595,0.6005,0.702,0.7503,0.7717,0.8732,0.9316,0.0,0.0,0.0,0.0,0.0,0.0,0.0,0.0,1.2353,1.2452,1.2967,1.315,1.3246,1.3505,1.3931,1.4356,1.4541,1.5818,1.7149,0.0,0.0,0.0,0.0,0.0,0.0,0.0,0.0,0.0,0.0,0.0,0.0,0.0,2.6644,2.789,2.8137,2.8317,2.8462,2.8621,2.8748,2.9155,2.9925,3.0671,3.1462,3.2238,3.3,3.3406,3.3406,3.3406,3.3406,3.3406,3.3406,3.3406,3.3406,3.3406,3.3465,3.3607,3.4481,3.4928,3.4989,3.5226,3.5267,3.5284,3.552,3.5622,3.5622,3.5622,3.5622,3.5622,3.5622,3.5622,3.5622,3.5622,3.5622,3.5622,0.0,0.0,0.0,0.0,0.0,0.0,0.0,0.0,0.0,0.0,0.0,0.0,0.0,0.0,0.0,0.0,0.0,0.0,-0.1873,-0.1717,-0.1499,-0.1007,-0.0941,-0.0921,-0.0897,-0.0898,-0.0729,-0.0393,0.0505,0.1512,0.2681,0.2954,0.3729,0.4952,0.5828,0.6209,0.6263,0.7289,0.799,0.8474,0.9152,0.9629,1.0102,0.0,0.0,0.0,0.0,0.0,0.0,0.0,1.3314,1.3457,1.3732,1.392,1.4025,1.4014,1.4236,1.466,1.5292,1.6344,0.0,0.0,0.0,0.0,0.0,0.0,0.0,0.0,0.0,0.0,0.0,0.0,0.0,2.5691,2.6911,2.789,2.8137,2.859,2.8951,2.9074,2.9528,2.9793,2.981,3.0882,3.1613,3.1613,3.2698,3.3389,3.3389,3.3389,3.3389,3.3389,3.3389,3.3389,3.3389,3.3389,3.3431,3.3573,3.3431,3.3448,3.3624,3.4372,3.4609,3.4523,3.5267,3.5605,3.5605,3.5605,3.5605,3.5605,3.5605,3.5605,3.5605,3.5605,3.5605,3.5605,0.0,0.0,0.0,0.0,0.0,0.0,0.0,0.0,0.0,0.0,0.0,0.0,0.0,0.0,0.0,0.0,0.0,0.0,-0.1828,-0.1715,-0.1492,-0.1008,-0.091,-0.0888,-0.0897,-0.0505,-0.0112,0.0168,0.1513,0.2128,0.2069,0.3231,0.395,0.434,0.5601,0.6258,0.6416,0.7664,0.8315,0.8626,0.9472,1.0051,1.0411,0.0,0.0,0.0,0.0,0.0,0.0,0.0,0.0,0.0,1.4258,1.4455,1.4547,1.4731,1.4915,1.5097,1.5292,0.0,0.0,0.0,0.0,0.0,0.0,0.0,0.0,0.0,0.0,0.0,0.0,0.0,0.0,2.6447,2.7324,2.8054,2.8299,2.8732,2.9044,2.909,2.9528,2.9924,3.0267,3.0634,3.0975,3.1295,3.1635,3.185,3.185,3.185,3.185,3.185,3.185,3.185,3.185,3.1913,3.1936,3.1975,3.2049,3.261,3.3607,3.3727,3.3787,3.3744,3.3964,3.4066,3.4066,3.4066,3.4066,3.4066,3.4066,3.4066,3.4134,3.4641,3.4827,3.4895,0.0,0.0,0.0,0.0,0.0,0.0,0.0,0.0,0.0,0.0,0.0,0.0,0.0,0.0,0.0,0.0,0.0,0.0,0.0,-0.1303,-0.1208,-0.0908,-0.0757,-0.0673,-0.0561,-0.0056,0.0449,0.1064,0.2017,0.2352,0.2179,0.3398,0.4171,0.456,0.5873,0.6475,0.6637,0.8043,0.8633,0.8778,0.9784,1.0411,1.082,0.0,0.0,0.0,0.0,0.0,0.0,0.0,0.0,0.0,1.4697,0.0,1.4926,1.5355,1.5579,1.5768,1.6107,0.0,0.0,0.0,0.0,0.0,0.0,0.0,0.0,0.0,0.0,0.0,2.4162,2.5058,0.0,2.7164,2.791,2.8414,2.8653,2.9257,2.9645,2.9645,3.0054,3.0452,3.074,3.0781,3.0878,3.119,3.119,3.119,3.119,3.119,3.119,3.119,3.119,3.119,3.119,3.1274,3.1351,3.1368,3.1462,3.1957,3.2827,3.2971,3.3066,3.309,3.3066,3.3008,3.2933,3.2645,3.2527,3.2527,3.2527,3.2527,3.2577,3.3034,3.3355,3.3677,0.0,0.0,0.0,0.0,0.0,0.0,0.0,0.0,0.0,0.0,0.0,0.0,0.0,0.0,0.0,0.0,0.0,0.0,0.0,0.0,-0.0707,-0.081,-0.0487,-0.0168,0.0056,0.0392,0.1064,0.2127,0.2183,0.2404,0.2792,0.3677,0.4505,0.5391,0.6367,0.6804,0.6918,0.8362,0.8949,0.8988,1.0095,1.0769,1.1217,1.208,0.0,0.0,0.0,0.0,0.0,0.0,0.0,0.0,1.5017,1.5108,1.5232,1.582,1.617,1.6471,1.7216,0.0,0.0,0.0,0.0,0.0,0.0,0.0,0.0,0.0,0.0,0.0,2.5263,2.5678,2.6247,2.7819,2.8558,2.8951,2.9136,2.9951,3.0518,3.0518,3.0918,3.119,3.119,3.119,3.119,3.119,3.119,3.119,3.119,3.119,3.119,3.119,3.119,3.119,3.123,3.1274,3.1368,3.1517,3.1517,3.1538,3.1614,3.2139,3.2423,3.2468,3.2423,3.2286,3.2138,3.1461,3.1157,3.1106,3.1106,3.1055,3.1004,3.1072,3.1512,3.2087,0.0,0.0,0.0,0.0,0.0,0.0,0.0,0.0,0.0,0.0,0.0,0.0,0.0,0.0,0.0,0.0,0.0,0.0,0.0,0.0,-0.0715,-0.0736,0.0165,0.0673,0.0729,0.14,0.1847,0.2127,0.2742,0.3241,0.3572,0.4343,0.5007,0.5563,0.61,0.6853,0.7664,0.8256,0.9001,0.9784,1.0411,1.082,1.1217,1.2178,1.2861,0.0,0.0,0.0,0.0,0.0,0.0,0.0,1.5062,1.5108,1.5153,1.5379,1.5844,1.6355,0.0,1.7982,0.0,0.0,0.0,0.0,0.0,0.0,0.0,0.0,0.0,2.382,2.5453,2.5766,2.6421,2.8388,2.8826,2.909,2.9572,3.014,3.0518,3.0518,3.0918,3.119,3.119,3.119,3.119,3.119,3.119,3.119,3.119,3.119,3.119,3.119,3.119,3.123,3.1274,3.1423,3.1462,3.1517,3.1559,3.1596,3.1579,3.1671,3.1662,3.1589,3.1506,3.1467,3.141,3.1258,3.0852,3.0345,3.0345,2.9973,2.9533,3.0125,3.0446,3.0666,0.0,0.0,0.0,0.0,0.0,0.0,0.0,0.0,0.0,0.0,0.0,0.0,0.0,0.0,0.0,0.0,0.0,0.0,0.0,0.0,-0.0,-0.0163,0.05,0.1065,0.1456,0.1847,0.235,0.2905,0.3405,0.3683,0.3796,0.4677,0.534,0.5837,0.6426,0.7122,0.7877,0.8573,0.9309,1.0035,1.0659,1.1124,1.1569,1.2579,1.3218,1.361,1.4455,0.0,0.0,0.0,0.0,0.0,0.0,0.0,1.5334,1.5932,1.6386,1.6841,0.0,0.0,0.0,0.0,0.0,0.0,0.0,0.0,0.0,0.0,0.0,2.388,2.5032,2.5788,2.6702,2.8092,2.908,2.9777,3.0097,3.0535,3.0838,3.0838,3.1055,3.119,3.119,3.119,3.119,3.119,3.119,3.119,3.119,3.119,3.119,3.119,3.119,3.1213,3.1295,3.1423,3.1517,3.1576,3.1634,3.1709,3.1709,3.1596,3.1483,3.1278,3.0917,3.0688,3.0649,3.0277,2.9905,2.9567,2.9567,2.933,2.9025,2.9414,2.9803,3.0159,0.0,0.0,0.0,0.0,0.0,0.0,0.0,0.0,0.0,0.0,0.0,0.0,0.0,0.0,0.0,0.0,0.0,0.0,0.0,0.0,0.0,0.0616,0.0953,0.1456,0.2181,0.2293,0.2847,0.3849,0.4119,0.0,0.0,0.0,0.5614,0.6164,0.6966,0.7503,0.7883,0.8935,0.9666,1.0174,1.0863,1.1427,1.2017,1.3035,1.3515,1.3705,1.4731,1.5108,1.5108,1.5108,0.0,0.0,0.0,0.0,1.5647,1.6697,1.7092,1.745,0.0,0.0,0.0,0.0,0.0,0.0,0.0,0.0,0.0,0.0,2.3653,2.3863,2.4626,2.5705,2.6808,2.7784,2.928,3.0369,3.0584,3.0975,3.119,3.119,3.119,3.119,3.119,3.119,3.119,3.119,3.119,3.119,3.119,3.119,3.119,3.119,3.119,3.1252,3.1351,3.1462,3.1538,3.1634,3.1746,3.18,3.18,3.1671,3.1504,3.13,3.0704,3.0374,3.0281,2.9655,2.9316,2.9178,2.9178,2.9093,2.9011,2.9011,2.9381,2.9922,0.0,0.0,0.0,0.0,0.0,0.0,0.0,0.0,0.0,0.0,0.0,0.0,0.0,0.0,0.0,0.0,0.0,0.0,0.068,0.0,0.0,0.1346,0.1905,0.2294,0.2456,0.3287,0.3788,0.3953,0.0,0.0,0.0,0.0,0.0,0.6647,0.0,0.767,0.8368,0.9099,0.988,1.0667,1.1074,1.1528,1.2017,1.3132,1.3563,1.3705,1.4731,1.5108,1.5108,1.5108,1.5108,0.0,0.0,0.0,1.6032,1.6782,1.7353,1.7787,0.0,0.0,0.0,0.0,0.0,0.0,0.0,0.0,0.0,0.0,2.4063,2.3978,2.5167,2.5579,2.6441,2.8648,2.9304,2.9902,3.0971,3.1151,3.119,3.119,3.119,3.119,3.119,3.119,3.119,3.119,3.119,3.119,3.119,3.119,3.119,3.119,3.119,3.1269,3.1462,3.1479,3.1576,3.1746,3.18,3.18,3.18,3.1671,3.1579,3.1542,3.138,3.127,3.1104,3.104,3.0573,2.9956,2.9956,2.955,2.9011,2.9011,2.9042,2.9127,0.0,0.0,0.0,0.0,0.0,0.0,0.0,0.0,0.0,0.0,0.0,0.0,0.0,0.0,0.0,0.0196,0.0402,0.0624,0.0875,0.1225,0.1458,0.1569,0.2183,0.2738,0.3125,0.3953,0.4563,0.4897,0.0,0.0,0.0,0.6273,0.6647,0.0,0.0,0.0,0.0,0.9762,1.0438,1.1175,1.1528,1.2008,1.2589,1.3324,1.3836,1.4294,1.4869,1.5165,1.521,1.521,1.5379,1.568,1.5964,0.0,0.0,0.0,1.7571,0.0,0.0,0.0,0.0,0.0,0.0,0.0,0.0,0.0,0.0,2.4695,2.4517,2.4446,2.5045,2.5758,2.6607,2.7676,2.8893,2.985,3.0381,3.0881,3.119,3.119,3.119,3.119,3.119,3.119,3.119,3.119,3.119,3.119,3.119,3.119,3.119,3.119,3.119,3.1325,3.1517,3.1517,3.1593,3.18,3.18,3.18,3.18,3.1746,3.1671,3.1579,3.1538,3.1462,3.1406,3.1351,3.107,3.076,3.0738,3.0514,3.0226,3.0226,3.0226,3.0226,0.0,0.0,0.0,0.0,0.0,0.0,0.0,0.0,0.0,0.0,0.0,0.0,0.0,0.0,0.0,0.0,0.1049,0.1135,0.1174,0.1626,0.1961,0.2122,0.2788,0.3456,0.4174,0.4835,0.5386,0.0,0.0,0.0,0.6761,0.7192,0.7664,0.0,0.8659,0.0,0.0,0.0,0.0,1.1528,1.1968,1.2491,1.3064,1.3647,1.4258,1.4801,1.5096,1.53,1.5402,1.5468,1.5724,1.6107,1.6416,1.6811,0.0,0.0,0.0,0.0,0.0,0.0,0.0,0.0,0.0,0.0,0.0,0.0,2.4679,0.0,2.5091,2.513,2.523,2.5956,2.6646,2.6918,2.8331,2.9437,2.9602,3.02,3.07,3.0903,3.092,3.0987,3.1173,3.119,3.119,3.119,3.119,3.119,3.119,3.119,3.119,3.119,3.119,3.1325,3.1517,3.1555,3.1651,3.18,3.18,3.18,3.18,3.18,3.1746,3.1671,3.1614,3.1555,3.15,3.1428,3.1334,3.1295,3.1252,3.123,3.119,3.119,3.119,3.119,0.0,0.0,0.0,0.0,0.0,0.0,0.0,0.0,0.0,0.0,0.0,0.0,-0.2624,-0.0855,0.0561,0.0847,0.1437,0.1784,0.1955,0.2073,0.2569,0.3445,0.3999,0.0,0.5869,0.6312,0.6431,0.0,0.0,0.0,0.6933,0.8143,0.8935,0.9309,0.9086,0.9392,1.0064,0.0,0.0,0.0,0.0,1.2861,1.3102,1.4236,1.4755,1.4949,1.5322,1.557,1.5703,1.5952,1.6071,1.6287,1.7284,1.7625,1.776,0.0,0.0,0.0,0.0,0.0,0.0,0.0,0.0,0.0,0.0,0.0,0.0,0.0,2.5881,2.599,2.6132,2.597,2.6184,2.7205,2.7679,2.8125,2.8777,2.8986,2.9364,3.0074,3.0176,3.0429,3.1123,3.119,3.119,3.119,3.119,3.119,3.119,3.119,3.119,3.119,3.119,3.1325,3.1517,3.1688,3.18,3.18,3.18,3.18,3.18,3.18,3.18,3.18,3.18,3.1709,3.1579,3.1579,3.1449,3.1295,3.1295,3.1252,3.119,3.119,3.119,3.119,0.0,0.0,0.0,0.0,0.0,0.0,0.0,0.0,0.0,0.0,0.0,0.0,0.0,0.0991,0.1641,0.1864,0.1981,0.2156,0.2294,0.2959,0.3564,0.3941,0.4992,0.571,0.6095,0.6642,0.6918,0.0,0.0,0.7354,0.7306,0.8408,0.9138,0.9562,1.0079,1.0643,1.115,1.1792,0.0,0.0,0.0,0.0,0.0,0.0,0.0,0.0,0.0,0.0,0.0,1.6689,1.6912,1.7188,1.7625,1.7962,1.8268,1.8439,0.0,0.0,0.0,0.0,0.0,0.0,0.0,0.0,0.0,2.5642,2.568,2.5917,2.5974,2.6026,2.6168,2.6115,2.6198,2.6571,2.7147,2.764,2.7998,2.8525,2.9003,2.9347,2.9381,2.9685,3.0429,3.0497,3.0683,3.1157,3.119,3.119,3.119,3.119,3.119,3.119,3.1252,3.1351,3.1559,3.1726,3.18,3.18,3.18,3.18,3.18,3.18,3.18,3.18,3.18,3.1746,3.1709,3.1634,3.1521,3.1406,3.1351,3.1274,3.119,3.119,3.119,3.119,0.0,0.0,0.0,0.0,0.0,0.0,0.0,0.0,0.0,0.0,0.0,0.0,0.0,0.0,0.2347,0.2792,0.274,0.285,0.335,0.4009,0.4608,0.5144,0.6027,0.6637,0.6907,0.7348,0.7515,0.0,0.0,0.0,0.0,0.8876,0.9555,1.0028,1.1006,1.1669,0.0,0.0,0.0,1.3198,0.0,0.0,1.4744,0.0,0.0,0.0,0.0,0.0,0.0,0.0,1.7626,1.7854,0.0,0.0,0.0,0.0,0.0,0.0,0.0,0.0,0.0,0.0,0.0,0.0,0.0,0.0,2.5917,2.599,2.6026,2.6079,2.6168,2.622,2.622,2.622,2.6709,2.7117,2.7205,2.7696,2.8207,2.8552,2.8602,2.889,2.9651,2.9736,2.9922,3.0412,3.0683,0.0,3.0835,3.1072,3.123,3.1213,3.1329,3.1428,3.1617,3.1746,3.18,3.18,3.18,3.18,3.18,3.18,3.18,3.18,3.18,3.18,3.18,3.1709,3.1614,3.1479,3.1406,3.1291,3.119,3.119,3.119,3.119,0.0,0.0,0.0,0.0,0.0,0.0,0.0,0.0,0.0,0.1817,0.0,0.0,0.0,0.0,0.0,0.3572,0.3624,0.4064,0.505,0.516,0.5756,0.7058,0.7111,0.7545,0.8368,0.8421,0.8321,0.0,0.0,0.0,0.0,0.0,1.0174,1.0854,1.1719,1.2403,1.2812,0.0,1.2686,1.3815,0.0,1.4354,1.4846,0.0,0.0,0.0,1.6637,1.6879,0.0,1.7907,0.0,0.0,0.0,0.0,0.0,0.0,0.0,0.0,0.0,0.0,0.0,0.0,0.0,0.0,2.546,0.0,2.5917,2.599,2.6115,2.622,2.622,2.622,2.622,2.622,2.638,2.6485,2.6485,2.6554,2.6875,2.7671,2.7755,2.8095,2.8873,2.8941,2.8958,2.9011,2.9651,3.0074,3.0074,3.0768,3.1196,3.1295,3.1423,3.1538,3.1617,3.1746,3.18,3.18,3.18,3.18,3.18,3.18,3.18,3.18,3.18,3.18,3.18,3.18,3.1688,3.1517,3.1517,3.1402,3.119,3.119,3.119,3.119,0.0,0.0,0.0,0.0,0.0,0.0,0.0,0.0,0.2044,0.0,0.0,0.0,0.3079,0.3355,0.3685,0.4184,0.4622,0.4999,0.5378,0.6195,0.6902,0.7379,0.7818,0.815,0.8368,0.8421,0.8374,0.8321,0.0,0.0,0.0,0.0,0.0,0.0,1.2227,1.317,1.3789,1.3122,0.0,0.0,1.4606,1.5028,0.0,0.0,0.0,0.0,0.0,1.8108,1.8489,0.0,1.8669,1.8616,0.0,0.0,0.0,0.0,0.0,0.0,2.1133,0.0,0.0,0.0,0.0,0.0,0.0,0.0,0.0,2.599,2.6026,2.6079,2.6168,2.622,2.622,2.622,2.6293,2.6347,2.6347,2.6503,2.669,2.6927,2.6978,2.73,2.8061,2.8146,2.8383,0.0,2.9178,2.9296,2.9296,3.0006,3.0671,3.1278,3.1423,3.1538,3.1617,3.1746,3.18,3.18,3.18,3.18,3.18,3.18,3.18,3.18,3.18,3.18,3.18,3.18,3.1688,3.1517,3.1517,3.1402,3.119,3.119,3.119,3.119,0.0,0.0,0.0,0.0,0.0,0.0,0.2715,0.2707,0.2742,0.0,0.0,0.0,0.3685,0.4021,0.4519,0.5069,0.5395,0.5878,0.6563,0.7171,0.7765,0.819,0.8468,0.8685,0.8738,0.8738,0.8837,0.9093,0.0,0.0,1.019,1.1006,0.0,0.0,0.0,0.0,0.0,0.0,0.0,0.0,1.5028,0.0,0.0,1.6625,1.7173,0.0,0.0,0.0,1.8812,1.8979,1.9003,0.0,0.0,0.0,0.0,0.0,0.0,0.0,0.0,0.0,0.0,0.0,0.0,0.0,2.5717,2.5844,2.5934,0.0,2.6079,2.6115,2.6168,2.622,2.622,2.622,2.6258,2.6295,2.6295,2.6468,2.6589,2.6589,2.664,2.686,2.73,2.7351,2.7537,2.7994,2.8315,2.8636,2.8958,2.9397,2.9993,3.0819,3.0984,3.1213,3.1617,3.1746,3.18,3.18,3.18,3.18,3.18,3.18,3.18,3.18,3.18,3.18,3.18,3.1746,3.1651,3.1517,3.1517,3.1402,3.119,3.119,3.119,3.119,0.0,0.0,0.0,0.3186,0.3186,0.3244,0.3413,0.3524,0.358,0.0,0.3855,0.4128,0.457,0.4849,0.5289,0.6109,0.6268,0.6907,0.8125,0.8131,0.8461,0.9211,0.9113,0.9113,0.9263,0.9316,0.9562,1.0064,1.0167,1.0685,1.1619,1.1701,1.2286,0.0,0.0,0.0,0.0,0.0,0.0,1.576,1.5389,1.5764,0.0,0.0,1.7366,1.7828,1.8226,1.8461,1.863,1.8988,1.9139,0.0,0.0,0.0,0.0,0.0,2.0818,0.0,0.0,0.0,0.0,0.0,0.0,0.0,2.5733,2.586,2.5934,0.0,2.6132,2.6132,2.6168,2.6168,2.6168,2.6168,2.6206,2.626,2.6295,2.6434,2.652,2.6572,2.664,2.6691,2.6691,2.6691,2.6691,2.6691,2.7317,2.8044,2.8805,2.8856,2.9231,3.0034,3.0216,3.0631,3.1459,3.1625,3.1714,3.18,3.18,3.18,3.18,3.18,3.18,3.18,3.18,3.18,3.18,3.1671,3.1559,3.1517,3.1479,3.1346,3.119,3.119,3.119,3.119,0.0,0.0,0.0,0.3799,0.3799,0.3855,0.3858,0.4132,0.4298,0.4298,0.4732,0.5167,0.0,0.6145,0.6735,0.7171,0.8072,0.8705,0.8967,0.9183,0.9347,0.951,0.9309,0.9361,0.9814,0.9865,1.0115,1.0669,1.1091,1.1592,1.2227,1.2677,1.3256,0.0,0.0,0.0,0.0,0.0,0.0,1.6219,1.5611,0.0,1.6837,1.7407,1.7948,1.8383,1.8784,1.895,1.8988,1.9064,1.9325,1.9581,0.0,0.0,0.0,0.0,0.0,0.0,0.0,0.0,0.0,0.0,0.0,0.0,2.56,2.5654,2.5675,0.0,2.5791,2.5828,2.5934,2.597,2.597,2.597,2.6026,2.6099,2.6187,2.645,2.6554,2.652,2.6623,2.6691,2.6691,2.6691,2.6691,2.6691,2.6826,2.7249,2.801,2.8044,2.8399,2.9214,2.9379,2.9809,3.0614,3.0831,3.1196,3.18,3.18,3.18,3.18,3.18,3.18,3.18,3.18,3.18,3.18,3.1671,3.1559,3.1479,3.1368,3.1291,3.119,3.119,3.119,3.119,0.0,0.0,0.0,0.0,0.4242,0.4298,0.4519,0.4684,0.0,0.0,0.0,0.0,0.0,0.0,0.0,0.8383,0.896,0.9436,0.9762,0.9873,0.9932,1.0035,1.0087,1.0233,1.0482,1.0618,1.0973,1.1484,1.1751,1.2286,1.2996,1.3389,0.0,0.0,0.0,0.0,0.0,0.0,1.6132,1.6219,1.6281,0.0,1.7462,1.7988,1.85,1.8898,1.9064,1.925,1.942,1.9588,1.9767,0.0,0.0,2.0983,2.1435,0.0,2.2794,2.3506,0.0,0.0,0.0,2.5084,0.0,0.0,0.0,2.5584,2.5696,2.5791,2.5791,2.5828,2.5881,2.5897,2.5897,2.5897,2.5954,2.6026,2.6079,2.6312,2.6468,2.6485,2.6606,2.664,2.6691,2.6691,2.6691,2.6691,2.6691,2.686,2.7232,2.7249,2.7604,2.8383,2.856,2.8988,2.9756,2.9987,3.0525,3.1393,3.1303,3.1529,3.2055,3.1856,3.1893,3.2055,3.2055,3.202,3.1984,3.2073,3.1821,3.1406,3.1351,3.1274,3.119,3.119,3.119,3.119,0.4519,0.0,0.0,0.0,0.4629,0.4849,0.5124,0.5289,0.0,0.0,0.0,0.0,0.0,0.0,0.0,0.0,0.0,1.0261,0.0,1.06,1.06,1.0726,1.0913,1.1099,1.125,1.1475,1.1873,1.2393,1.2491,1.2967,1.3805,1.4154,0.0,0.0,0.0,0.0,0.0,0.0,0.0,1.625,0.0,1.7585,1.7988,1.8344,1.8822,1.9265,1.9139,1.9362,1.9726,1.9909,2.0161,2.0551,2.1428,2.1768,0.0,0.0,0.0,0.0,0.0,0.0,0.0,0.0,0.0,2.5524,0.0,0.0,0.0,2.5824,2.586,0.0,0.0,0.0,0.0,0.0,0.0,0.0,0.0,2.6035,0.0,2.6434,2.6537,2.664,2.6674,2.6674,2.6708,2.6691,2.6708,2.6708,2.6691,2.6691,2.6962,2.7588,2.776,2.8186,2.8883,2.9145,2.9833,3.094,3.0768,3.1237,3.2197,3.1984,3.2055,3.2318,3.2386,3.2369,3.2318,3.242,3.2056,3.1411,3.1411,3.1312,3.119,3.119,3.119,3.119,0.4798,0.4794,0.0,0.0,0.5175,0.5513,0.5513,0.5832,0.0,0.0,0.0,0.0,0.0,0.0,0.0,0.0,0.0,0.0,1.1769,0.0,0.0,1.1569,1.1209,1.1392,1.2218,1.2267,1.256,1.3074,1.3542,1.4061,1.456,1.5017,0.0,0.0,1.6219,0.0,0.0,0.0,1.6607,0.0,1.768,1.7894,0.0,1.804,1.8563,1.9101,1.9101,1.9362,1.9654,0.0,2.0064,2.1126,0.0,2.2405,2.3702,2.4216,0.0,0.0,0.0,0.0,0.0,0.0,2.5294,0.0,0.0,0.0,2.5616,2.5616,0.0,0.0,0.0,0.0,0.0,0.0,0.0,0.0,2.4922,2.5488,2.6026,2.6295,2.6503,2.6606,2.6606,2.6606,2.6623,2.6691,2.6657,2.6623,2.6691,2.6691,2.6725,2.6826,2.6961,2.7436,2.8203,2.8356,2.9214,3.075,3.0714,3.1112,3.1873,3.2126,3.2249,3.2318,3.2619,3.2716,3.2603,3.2214,3.1967,3.1821,3.1694,3.1449,3.119,3.119,3.119,3.119,0.5668,0.5609,0.0,0.0,0.5828,0.605,0.6332,0.6972,0.0,0.0,0.0,0.0,0.0,0.0,0.0,0.0,0.0,1.2812,0.0,0.0,0.0,1.2589,1.2618,1.2754,1.2967,1.3112,1.3409,1.3789,1.4025,1.4479,1.5231,1.5511,0.0,0.0,1.6547,0.0,1.659,0.0,1.662,0.0,0.0,0.0,0.0,1.8693,1.9087,1.9213,1.9213,1.9566,2.0041,0.0,2.11,0.0,0.0,0.0,0.0,0.0,0.0,0.0,0.0,0.0,0.0,0.0,0.0,0.0,2.541,0.0,2.5333,0.0,0.0,0.0,0.0,0.0,0.0,0.0,2.5431,0.0,0.0,0.0,2.5954,0.0,0.0,0.0,2.6469,2.6572,2.664,2.6691,2.6623,2.6623,2.6691,2.6691,2.6691,2.6691,2.6842,2.7029,2.7267,2.7468,2.8389,3.0058,2.9989,3.0786,3.2318,3.2318,3.2504,3.2876,3.3032,3.3063,3.3001,3.2939,3.2651,3.2197,3.2074,3.1694,3.123,3.1428,3.1351,3.119,0.0,0.0,0.0,0.0,0.0,0.0,0.0,0.0,0.0,0.0,0.0,0.0,1.0694,1.1275,0.0,0.0,1.3283,1.3558,0.0,0.0,1.37,0.0,0.0,0.0,0.0,1.4025,1.4176,1.4398,1.4617,1.505,1.5764,1.5964,0.0,0.0,0.0,1.6791,1.6863,0.0,0.0,1.7047,1.7558,1.804,1.8525,1.925,1.9501,1.9406,1.9642,2.0089,2.0647,2.1435,2.2201,0.0,2.4281,0.0,0.0,0.0,0.0,0.0,2.5432,0.0,0.0,0.0,0.0,0.0,0.0,0.0,0.0,0.0,0.0,0.0,0.0,0.0,0.0,0.0,0.0,2.5598,0.0,2.564,0.0,0.0,0.0,0.0,0.0,2.6417,2.6555,2.6741,2.6657,2.6674,2.6825,2.6758,2.6691,2.6691,2.6792,2.6825,2.6742,2.6909,2.7842,2.9505,2.942,3.0473,3.2486,3.247,3.2749,3.3291,3.3379,3.3379,3.3321,3.3397,3.3081,3.2502,3.2453,3.2039,3.1542,3.1657,3.1562,3.1329,0.8666,0.7444,0.0,0.0,0.0,0.0,0.0,0.0,0.0,0.0,0.0,0.0,0.0,0.0,0.0,0.0,0.0,1.4971,1.4297,0.0,1.463,0.0,0.0,1.4226,0.0,0.0,1.4858,1.4858,1.5676,1.6071,0.0,0.0,0.0,0.0,0.0,1.7031,1.7312,1.7544,1.7868,1.8266,1.8703,1.9169,1.9654,0.0,1.9501,1.97,2.055,0.0,0.0,2.2222,2.3132,0.0,0.0,0.0,0.0,0.0,0.0,0.0,0.0,0.0,0.0,2.56,0.0,0.0,0.0,0.0,2.5578,0.0,0.0,0.0,0.0,0.0,0.0,0.0,0.0,0.0,0.0,0.0,0.0,0.0,0.0,0.0,0.0,2.6187,2.6417,2.6872,2.664,2.6691,2.7149,2.6891,2.6691,2.6691,2.6691,2.6775,2.6893,2.6893,2.7691,2.9194,2.9333,3.0317,3.2039,3.2568,3.2939,3.322,3.3559,3.3643,3.3559,3.3178,3.2925,3.2795,3.2795,3.2568,3.2214,3.1823,3.1677,3.1677,0.0,0.0,0.0,0.0,0.0,0.0,0.0,0.9821,0.0,0.0,0.0,0.0,0.0,1.3632,1.4168,0.0,0.0,1.5242,1.5311,1.5266,0.0,0.0,0.0,1.5028,0.0,0.0,1.5344,1.5676,1.5983,1.6299,0.0,0.0,0.0,0.0,0.0,1.7157,0.0,0.0,0.0,0.0,0.0,1.9485,2.0318,0.0,2.0032,2.071,2.1011,2.175,0.0,2.3494,2.4092,2.4652,2.5337,2.5611,2.5717,2.5917,2.5917,2.5881,0.0,0.0,2.5807,2.568,0.0,0.0,0.0,0.0,0.0,0.0,0.0,0.0,0.0,0.0,0.0,0.0,0.0,0.0,0.0,0.0,0.0,0.0,0.0,0.0,0.0,0.0,2.659,2.6556,2.6758,2.6875,2.6858,2.6758,2.6691,2.6691,2.6691,2.6742,2.6775,2.6775,2.7538,2.9066,2.9438,3.0507,3.2283,3.2766,3.316,3.3473,3.3587,3.3633,3.3605,3.3404,3.3298,3.322,3.2908,3.2876,3.2975,3.2586,3.2299,3.2074,1.0387,0.0,0.0,0.0,0.0,0.0,0.0,0.0,0.0,0.0,1.2976,0.0,1.41,0.0,1.4869,0.0,1.5632,1.5864,1.5925,1.6132,0.0,1.6471,1.6051,0.0,0.0,0.0,0.0,1.6416,1.6471,1.6655,1.7002,0.0,0.0,0.0,0.0,1.7323,1.7908,0.0,1.8226,0.0,0.0,2.0235,0.0,0.0,2.1042,2.1639,0.0,2.2905,2.3758,2.4664,2.5053,2.533,2.5931,2.6079,2.6007,2.6079,2.6043,2.6007,2.597,2.5917,0.0,2.5791,2.568,0.0,2.5621,0.0,2.5317,0.0,0.0,0.0,0.0,0.0,0.0,0.0,0.0,0.0,0.0,2.5616,0.0,0.0,0.0,0.0,0.0,0.0,2.6436,2.6556,2.6725,2.6825,2.6891,2.6758,2.6691,2.6691,2.6691,2.6691,2.6691,2.6825,2.7657,2.9157,2.9506,3.0676,3.2535,3.2816,3.3147,3.3549,3.3549,3.3549,3.3549,3.3491,3.3452,3.3433,3.3129,3.3178,3.3364,3.2957,3.2666,3.2435,0.0,0.0,0.0,0.0,1.0438,0.0,0.0,0.0,1.2861,0.0,1.369,1.425,1.4389,1.505,1.5478,1.5478,1.6429,1.6837,1.6318,1.6909,0.0,0.0,1.7089,1.7242,1.772,0.0,0.0,1.7034,1.7144,1.7199,1.7199,0.0,0.0,0.0,1.7044,0.0,1.8305,1.8461,1.8988,1.9794,2.0483,2.1432,2.2362,2.2399,2.2415,2.2636,2.3935,2.4446,2.4628,2.5579,2.5954,2.6026,2.6026,2.6115,2.622,2.622,2.622,2.6168,2.6026,2.6026,2.599,2.5917,2.5881,0.0,0.0,0.0,2.568,0.0,0.0,0.0,0.0,0.0,0.0,0.0,0.0,0.0,0.0,0.0,0.0,0.0,0.0,0.0,0.0,2.5721,2.6049,2.6708,2.6487,2.659,0.0,2.6891,2.6691,2.6725,2.6725,2.6691,2.6725,2.7053,2.7971,2.954,2.9625,3.0758,3.2795,3.2687,3.2961,3.3509,3.3509,3.3509,3.3509,3.3422,3.3393,3.3393,3.3393,3.3393,3.3364,3.2988,3.2844,3.2763,1.1528,1.1678,1.1719,0.0,1.1217,1.1217,0.0,0.0,0.0,0.0,1.4687,1.5276,1.5864,1.6398,1.6752,1.6752,1.7256,0.0,0.0,0.0,0.0,1.7881,1.7368,1.7422,1.8108,1.7503,0.0,1.738,1.7282,1.7199,1.7199,0.0,0.0,0.0,0.0,0.0,1.8461,1.8717,1.9424,2.055,2.1508,2.2355,2.3111,0.0,2.4296,2.466,2.4576,2.5072,2.5796,2.603,2.6132,2.6168,2.6168,2.6168,2.622,2.622,2.622,2.6168,2.6168,2.6168,2.6115,2.599,2.5974,2.5954,0.0,0.0,0.0,0.0,0.0,0.0,0.0,0.0,0.0,0.0,0.0,0.0,0.0,0.0,0.0,2.5616,0.0,0.0,2.5659,2.6049,2.6315,2.6365,2.6607,2.6889,2.7181,0.0,2.6759,2.7053,2.6825,2.6825,2.7053,2.7149,2.81,2.9887,3.0141,3.1173,3.2795,3.3068,3.3274,3.3422,3.3422,3.3422,3.3422,3.3411,3.3393,3.3393,3.3393,3.3393,3.3393,3.3286,3.3256,3.3178,1.1819,0.0,0.0,1.2452,0.0,0.0,1.2598,1.3389,0.0,1.4721,1.5543,0.0,1.6667,1.7144,1.7475,1.7475,1.7868,0.0,1.7639,0.0,0.0,1.8106,1.7987,1.8094,1.845,1.8082,0.0,1.7652,0.0,0.0,1.7199,0.0,0.0,0.0,0.0,1.8548,0.0,1.9899,2.0724,2.1644,2.2486,2.3297,0.0,2.4751,2.5342,2.5762,2.5422,2.5697,2.6168,2.6115,2.6168,2.6168,2.6115,2.6168,2.622,2.622,2.622,2.622,2.622,2.622,2.6168,2.6115,2.6079,2.6079,2.5954,2.5954,2.5917,0.0,2.5791,2.5754,0.0,0.0,0.0,0.0,0.0,0.0,0.0,0.0,0.0,0.0,2.5754,0.0,2.5486,2.6049,2.6367,2.6134,2.6367,2.659,2.6858,0.0,2.6791,2.694,2.6908,2.6956,2.7149,2.7289,2.8316,3.0234,3.0404,3.1404,3.3068,3.3099,3.3238,3.3393,3.3393,3.3393,3.3393,3.3393,3.3393,3.3393,3.3393,3.3393,3.3393,3.3393,3.3393,3.3364,0.0,0.0,0.0,0.0,0.0,0.0,0.0,1.4492,0.0,1.5309,0.0,1.7118,1.7118,1.7585,1.7868,1.7868,0.0,1.8383,1.7908,1.8707,1.8884,1.8263,1.8784,1.9017,1.8827,1.8836,1.8553,0.0,0.0,0.0,0.0,0.0,0.0,0.0,0.0,0.0,0.0,2.1461,2.229,2.2873,2.3498,2.4226,2.5059,2.5465,2.5848,2.6203,2.6203,2.6203,2.6203,2.6063,2.6115,2.6203,2.6063,2.6115,2.622,2.622,2.622,2.622,2.622,2.622,2.622,2.622,2.622,2.6168,2.6063,2.6026,2.599,2.5934,2.5917,2.5881,2.5738,0.0,0.0,0.0,0.0,0.0,0.0,0.0,0.0,0.0,0.0,0.0,0.0,2.5937,2.6208,2.601,2.599,2.6118,2.6436,0.0,2.6841,2.6725,2.7006,2.7149,2.7149,2.7422,2.8553,3.0505,3.054,3.1547,3.3393,3.3019,3.3068,3.3393,3.3393,3.3393,3.3393,3.3393,3.3393,3.3393,3.3393,3.3393,3.3393,3.3393,3.3393,3.3393,0.0,0.0,0.0,0.0,0.0,1.5207,1.5262,1.5616,1.599,1.6089,1.7008,1.7666,1.7666,1.8108,1.8383,1.8383,1.8745,0.0,0.0,0.0,0.0,1.8936,1.9347,1.9508,1.9347,1.9221,1.8907,0.0,0.0,0.0,0.0,0.0,0.0,0.0,0.0,0.0,2.1569,2.231,0.0,2.3538,2.4507,2.5179,2.5668,2.6013,2.6208,2.6277,2.6239,2.6222,2.6277,2.6187,2.6222,2.6277,2.6203,2.6168,2.622,2.622,2.622,2.622,2.622,2.622,2.622,2.622,2.622,2.6168,2.6168,2.6168,2.6115,2.6026,2.599,2.5954,2.5881,0.0,0.0,0.0,0.0,0.0,0.0,0.0,0.0,0.0,0.0,2.5941,0.0,0.0,2.5848,2.5917,2.5917,2.6173,2.6774,0.0,2.6939,0.0,2.7491,2.7474,0.0,0.0,2.8802,3.0428,3.0743,3.1779,3.3393,3.3334,3.3316,3.3393,3.3393,3.3393,3.3393,3.3393,3.3393,3.3393,3.3393,3.3393,3.3393,3.3393,3.3393,3.3393,0.0,0.0,0.0,0.0,0.0,0.0,0.0,1.7726,1.8034,1.7531,1.8323,1.8961,1.9045,1.9498,1.9795,1.9795,1.9681,1.9686,1.9862,1.976,1.9675,1.966,1.9874,1.9909,1.9803,1.9839,1.9522,1.8765,0.0,0.0,1.8178,0.0,0.0,0.0,0.0,2.2312,0.0,0.0,0.0,2.4194,2.5201,2.5684,2.5852,2.626,2.6399,2.6399,2.6293,2.6347,2.6417,2.6277,2.6277,2.6295,2.6329,2.631,2.6241,2.6241,2.6239,2.622,2.622,2.622,2.622,2.622,2.622,2.622,2.622,2.622,2.6168,2.6115,2.6115,2.6079,2.5934,2.577,0.0,0.0,0.0,0.0,0.0,0.0,0.0,0.0,0.0,0.0,0.0,0.0,0.0,0.0,0.0,0.0,0.0,0.0,2.6824,0.0,0.0,0.0,2.7707,0.0,2.8933,3.0725,3.0902,3.1836,3.3393,3.3393,3.3393,3.3393,3.3393,3.3393,3.3393,3.3393,3.3393,3.3393,3.3393,3.3393,3.3393,3.3393,3.3393,3.3393,0.0,1.5094,0.0,0.0,1.688,0.0,1.8525,1.9704,2.01,1.8995,1.9666,2.0259,2.0344,2.0739,2.1029,2.1152,2.0688,2.0494,2.0738,2.0352,2.0193,2.0424,2.0493,2.0605,2.069,2.0914,2.0553,0.0,0.0,0.0,0.0,0.0,0.0,0.0,0.0,0.0,0.0,0.0,2.4839,2.4847,2.5684,2.603,2.6049,2.6399,2.652,2.652,2.6382,2.6452,2.6554,2.6417,2.6365,2.6382,2.6468,2.6434,2.6347,2.6295,2.6277,2.6203,2.6203,2.622,2.622,2.622,2.622,2.622,2.622,2.622,2.622,2.622,2.622,2.6132,2.5934,2.5787,0.0,0.0,0.0,0.0,0.0,0.0,0.0,0.0,0.0,0.0,2.5394,0.0,0.0,0.0,0.0,0.0,2.6132,0.0,0.0,0.0,0.0,2.7631,2.7823,0.0,2.9052,3.0856,3.0957,3.1836,3.3393,3.3393,3.3393,3.3393,3.3393,3.3393,3.3393,3.3393,3.3393,3.3393,3.3393,3.3393,3.3393,3.3393,3.3393,3.3393,0.0,0.0,0.0,0.0,0.0,0.0,1.974,2.0675,2.1034,2.0172,2.0542,2.0905,2.0905,2.0947,2.1152,2.161,2.1406,2.1267,2.1234,2.1306,2.131,2.1203,2.1487,2.1944,2.2627,2.2679,2.2467,0.0,0.0,2.1573,0.0,0.0,0.0,0.0,0.0,0.0,0.0,2.491,2.5192,2.5465,2.5924,2.628,2.6624,2.6606,2.6589,2.6589,2.652,2.6485,2.652,2.6554,2.6572,2.6572,2.652,2.6485,2.645,2.6347,2.6295,2.6277,2.6203,2.622,2.622,2.622,2.622,2.622,2.622,2.622,2.622,2.622,2.622,2.6132,2.5934,2.5917,2.5881,0.0,0.0,0.0,0.0,0.0,2.5733,2.6123,0.0,0.0,0.0,2.5621,0.0,0.0,2.5791,0.0,0.0,0.0,0.0,2.6725,2.7409,2.7572,2.7186,2.8075,2.9206,3.0475,3.0828,3.1836,3.3393,3.3393,3.3393,3.3393,3.3393,3.3393,3.3393,3.3393,3.3393,3.3393,3.3393,3.3393,3.3393,3.3393,3.3393,3.3393,0.0,0.0,0.0,0.0,0.0,0.0,0.0,2.1575,2.2143,2.2106,2.212,2.2207,2.2522,2.2564,2.2733,2.3203,2.2823,2.2631,2.2864,2.2551,2.2422,2.263,2.2579,2.2706,2.2992,2.2885,2.2687,0.0,0.0,0.0,0.0,0.0,0.0,0.0,0.0,2.4719,2.4942,2.546,2.5758,2.6013,2.6418,2.6691,2.6792,2.6691,2.6691,2.6759,2.6623,2.6606,2.6623,2.6606,2.6606,2.6606,2.6623,2.6589,2.6554,2.6503,2.6468,2.6399,2.6293,2.6241,2.6258,2.6203,2.622,2.622,2.622,2.622,2.622,2.622,2.6132,2.6079,2.599,2.5954,2.5881,2.5787,0.0,0.0,0.0,0.0,0.0,0.0,0.0,2.5787,0.0,0.0,0.0,0.0,0.0,0.0,0.0,0.0,0.0,2.6657,0.0,2.7794,2.766,2.8246,2.9286,3.0754,3.0912,3.1836,3.3393,3.3393,3.3393,3.3393,3.3393,3.3393,3.3393,3.3393,3.3393,3.3393,3.3393,3.3393,3.3393,3.3393,3.3393,3.3393,1.9989,0.0,2.0288,0.0,2.1231,2.1751,2.2207,2.2717,2.3216,2.3595,2.3422,2.3378,2.3782,2.3824,2.3994,2.4451,2.4002,2.3787,2.4074,2.3581,2.3419,2.377,2.3558,0.0,2.3827,2.3592,2.339,2.3246,2.3262,0.0,0.0,0.0,0.0,0.0,2.5176,2.5237,2.5389,2.5961,2.6262,2.6365,2.6775,2.6926,2.6926,2.6825,2.6859,2.6926,2.6759,2.6742,2.6759,2.6657,2.6623,2.6623,2.6708,2.6674,2.664,2.6606,2.6554,2.6503,2.6382,2.633,2.6295,2.6222,2.6203,2.622,2.622,2.622,2.622,2.622,2.6115,2.6063,2.6026,2.599,2.597,2.5897,0.0,0.0,0.0,2.5807,0.0,0.0,2.5897,2.5824,2.5881,2.5844,0.0,0.0,0.0,0.0,0.0,0.0,0.0,0.0,0.0,0.0,2.7954,2.8344,2.9357,3.0985,3.0985,3.1836,3.3393,3.3393,3.3393,3.3393,3.3393,3.3393,3.3393,3.3393,3.3393,3.3393,3.3393,3.3393,3.3393,3.3393,3.3393,3.3393,2.2267,2.2608,2.2922,2.3478,2.3736,2.3921,2.4063,2.4063,2.412,2.4261,2.4261,2.4261,2.4302,2.4302,2.4451,2.4863,2.4688,2.4563,2.4495,2.4317,2.428,0.0,0.0,2.4617,2.553,2.5185,2.5068,2.5262,0.0,0.0,2.5176,0.0,2.5594,2.5503,2.5908,2.5924,2.5738,2.6418,2.659,2.6418,2.6842,2.7007,2.7007,2.7007,2.7007,2.6975,2.6926,2.6893,2.6893,2.6742,2.6691,2.6691,2.6691,2.6691,2.6708,2.664,2.6606,2.6572,2.652,2.6399,2.6295,2.6295,2.6258,2.622,2.622,2.622,2.622,2.622,2.622,2.6168,2.6026,2.6115,2.6132,2.5934,0.0,0.0,0.0,2.5701,0.0,2.5616,2.5616,2.5675,2.5897,2.5791,0.0,0.0,0.0,0.0,0.0,0.0,0.0,2.659,2.7391,0.0,2.7897,2.8388,2.9409,3.0985,3.0985,3.1836,3.3393,3.3393,3.3393,3.3393,3.3393,3.3393,3.3393,3.3393,3.3393,3.3393,3.3393,3.3393,3.3393,3.3393,3.3393,3.3393,2.298,2.3231,2.3391,2.3551,2.3767,2.3964,2.4063,2.412,2.423,2.4639,2.4719,2.4815,2.5162,2.4895,2.4895,0.0,2.5317,2.5259,0.0,2.5185,2.5185,2.526,2.5072,2.5016,2.5201,2.4886,2.4751,2.4831,0.0,0.0,0.0,2.5832,2.5941,2.626,2.6173,2.6225,2.6347,2.659,2.6742,2.6825,2.6942,2.7007,2.6992,2.6959,2.6926,2.6926,2.6926,2.6842,2.6742,2.6691,2.6691,2.6691,2.6691,2.6691,2.6691,2.6674,2.6674,2.664,2.6572,2.6537,2.6452,2.633,2.626,2.6258,2.6203,2.622,2.622,2.622,2.622,2.6168,2.6132,2.6168,2.6184,2.6132,2.6043,0.0,2.5901,0.0,2.5844,2.5881,2.5881,2.5917,2.6096,2.599,0.0,0.0,0.0,0.0,0.0,0.0,0.0,0.0,2.7348,0.0,2.7897,2.8317,2.9357,3.0985,3.0985,3.1836,3.3393,3.3393,3.3393,3.3393,3.3393,3.3393,3.3393,3.3393,3.3393,3.3393,3.3393,3.3393,3.3393,3.3393,3.3393,3.3393,2.4579,2.4739,2.4805,2.4629,2.4808,2.4911,2.4701,2.4655,2.4775,2.513,2.5169,2.5262,2.5578,2.5355,0.0,2.5578,2.5616,2.5616,2.5616,2.5675,2.5749,2.5749,2.5642,2.5605,2.5513,2.5114,0.0,2.5013,2.5176,2.5631,2.633,2.6243,2.6365,2.6606,2.6521,2.6537,2.6606,2.6759,2.6892,2.7007,2.7007,2.7007,2.6992,2.6942,2.6959,2.6926,2.6926,2.6842,2.6775,2.6742,2.6691,2.6691,2.6691,2.6691,2.6691,2.6691,2.6691,2.6691,2.6657,2.664,2.6572,2.6452,2.6382,2.626,2.6203,2.622,2.622,2.622,2.622,2.622,2.622,2.622,2.622,2.622,2.6115,2.6063,2.6026,0.0,2.5954,0.0,0.0,0.0,0.0,2.6063,2.599,0.0,0.0,0.0,0.0,0.0,2.6573,2.679,2.747,2.7943,2.8138,2.8414,2.9357,3.1003,3.16,3.2433,3.3393,3.3393,3.3393,3.3393,3.3393,3.3393,3.3393,3.3393,3.3393,3.3393,3.3393,3.3393,3.3393,3.3393,3.3393,3.3393,2.6689,2.6891,2.6883,0.0,2.6615,2.6539,2.5859,2.5729,2.5697,2.5697,2.5648,2.5616,2.5616,2.5616,2.5654,2.5637,0.0,0.0,2.5616,2.5881,2.601,2.601,2.6085,2.621,2.6383,2.5779,2.5572,2.5775,2.5832,2.6049,2.6453,2.6759,2.6792,2.6606,2.6876,2.6842,2.6606,2.6876,2.6975,2.6975,2.6975,2.6975,2.6975,2.6975,2.6975,2.6975,2.6926,2.6893,2.6876,2.6742,2.6691,2.6691,2.6691,2.6691,2.6691,2.6691,2.6691,2.6691,2.6691,2.6657,2.6606,2.6606,2.6452,2.626,2.6203,2.622,2.622,2.622,2.622,2.622,2.622,2.622,2.622,2.622,2.622,2.6168,2.6026,2.6026,2.599,0.0,0.0,0.0,2.6026,2.6026,2.6063,0.0,0.0,0.0,0.0,0.0,2.6674,2.7272,2.7648,2.8055,2.8466,2.8562,2.9409,3.1021,3.2632,3.3393,3.3393,3.3393,3.3393,3.3393,3.3393,3.3393,3.3393,3.3393,3.3393,3.3393,3.3393,3.3393,3.3393,3.3393,3.3393,3.3393,0.0,0.0,2.7253,2.7176,2.7324,2.7413,2.7235,2.6766,2.6442,2.6442,2.5956,2.5675,2.5881,2.5917,2.599,2.6173,2.601,2.5917,2.5917,2.6154,2.6314,2.6314,2.6314,2.6297,2.6175,2.6033,2.6033,2.6227,2.6227,2.6435,2.6775,2.6842,2.6809,2.6674,2.6742,2.6742,2.6674,2.6842,2.6926,2.6926,2.6926,2.6926,2.6926,2.6926,2.6876,2.6775,2.6876,2.6842,2.6742,2.6691,2.6691,2.6691,2.6691,2.6691,2.6691,2.6691,2.6691,2.6691,2.6691,2.6691,2.664,2.6606,2.6452,2.626,2.6203,2.622,2.622,2.622,2.622,2.622,2.622,2.622,2.622,2.622,2.622,2.6168,2.6168,2.6168,2.6132,0.0,2.6132,2.6132,2.6168,2.6168,2.6115,0.0,0.0,2.6063,2.6063,2.6099,2.6453,2.7195,2.7365,2.7725,2.8353,2.844,2.9357,3.1021,3.2632,3.3393,3.3393,3.3393,3.3393,3.3393,3.3393,3.3393,3.3393,3.3393,3.3393,3.3393,3.3393,3.3393,3.3393,3.3393,3.3393,3.3393,2.8116,2.8291,2.8308,2.8088,2.8107,2.8093,2.7753,2.7397,2.7081,2.6912,2.6521,2.6258,2.6187,2.6173,2.6243,2.6383,2.6279,2.6173,2.6173,2.6453,2.6573,2.6573,2.6742,2.6775,2.6657,2.6505,2.647,2.6573,2.6556,2.6691,2.699,2.6942,2.6876,2.6792,2.6792,2.6742,2.6691,2.6792,2.6792,2.6792,2.6792,2.6792,2.6792,2.6792,2.6742,2.6691,2.6792,2.6742,2.6691,2.6691,2.6691,2.6691,2.6691,2.6691,2.6691,2.6691,2.6691,2.6691,2.6691,2.6691,2.6674,2.6572,2.6468,2.6364,2.6239,2.622,2.622,2.622,2.622,2.622,2.622,2.622,2.622,2.622,2.622,2.622,2.622,2.622,2.622,2.622,2.622,2.622,2.622,2.622,2.6168,2.6115,2.6079,0.0,2.6079,2.6079,2.6435,2.7181,2.7289,2.7607,2.83,2.9152,3.0234,3.1546,3.2814,3.3393,3.3393,3.3393,3.3393,3.3393,3.3393,3.3393,3.3393,3.3393,3.3393,3.3393,3.3393,3.3393,3.3393,3.3393,3.3393,3.3393,2.9589,2.9633,2.95,2.9091,2.902,2.8809,2.8274,2.8095,2.7849,2.7399,2.7255,2.6982,2.6502,2.6453,2.6487,2.6521,2.6538,2.6521,2.6453,2.6725,2.6891,2.6891,2.7137,2.7299,2.7299,2.7023,2.6891,2.6891,2.6842,2.6908,2.7103,2.7055,2.6975,2.6926,2.6926,2.6825,2.6725,2.6725,2.6742,2.6742,2.6691,2.6691,2.6691,2.6691,2.6691,2.6691,2.6691,2.6691,2.6691,2.6691,2.6691,2.6691,2.6691,2.6691,2.6691,2.6691,2.6691,2.6691,2.6691,2.6691,2.6674,2.6554,2.6485,2.645,2.6256,2.622,2.622,2.622,2.622,2.622,2.622,2.622,2.622,2.622,2.622,2.622,2.622,0.0,2.622,2.622,2.622,2.622,2.622,2.622,2.622,2.622,2.622,2.622,2.622,2.622,2.6486,2.7117,2.7195,2.76,2.8407,3.007,3.1335,3.2198,3.3013,3.3393,3.3393,3.3393,3.3393,3.3393,3.3393,3.3393,3.3393,3.3393,3.3393,3.3393,3.3393,3.3393,3.3393,3.3393,3.3393,3.3393,3.0182,3.0182,3.0133,3.0077,3.0061,3.0137,3.0268,2.9832,2.9198,2.8469,2.7888,2.7343,2.6809,2.6758,2.6858,2.7154,2.7154,2.7023,2.6758,2.7055,2.7218,2.7218,2.725,2.7299,2.7299,2.725,2.7218,2.7218,2.7218,2.7169,2.7103,2.7103,2.7055,2.6975,2.6975,2.6975,2.6942,2.6876,2.6876,2.6842,2.6742,2.6691,2.6691,2.6691,2.6691,2.6691,2.6691,2.6691,2.6691,2.6691,2.6691,2.6691,2.6691,2.6691,2.6691,2.6691,2.6691,2.6691,2.6691,2.6691,2.6674,2.6554,2.6485,2.645,2.6256,2.622,2.622,2.622,2.622,2.622,2.622,2.622,2.622,2.622,2.622,2.622,2.622,0.0,2.622,2.622,2.622,2.622,2.622,2.622,2.622,2.622,2.622,2.622,2.622,2.622,2.6364,2.6758,2.6791,2.7489,2.8947,3.0209,3.1289,3.2198,3.3013,3.3393,3.3393,3.3393,3.3393,3.3393,3.3393,3.3393,3.3393,3.3393,3.3393,3.3393,3.3393,3.3393,3.3393,3.3393,3.3393,3.3393,3.0584,3.0584,3.0584,3.0584,3.0584,3.0625,3.0804,3.052,2.9978,2.8932,2.8547,2.8012,2.7142,2.7055,2.7137,2.7299,2.7299,2.725,2.7087,2.7218,2.7299,2.7299,2.7299,2.7299,2.7299,2.7299,2.7299,2.7299,2.7299,2.7282,2.7201,2.7201,2.7152,2.7055,2.7055,2.7023,2.7007,2.6959,2.6926,2.6893,2.6859,2.6808,2.6691,2.6792,2.6742,2.6691,2.6691,2.6691,2.6691,2.6691,2.6691,2.6691,2.6691,2.6691,2.6691,2.6691,2.6691,2.6691,2.6691,2.6691,2.6674,2.6572,2.652,2.645,2.6293,2.6239,2.622,2.622,2.622,2.622,2.622,2.622,2.622,2.622,2.622,2.622,2.622,2.622,2.622,2.622,2.622,2.622,2.622,2.622,2.622,2.622,2.622,2.622,2.622,2.622,2.6364,2.6691,2.7036,2.8124,2.9987,3.0553,3.1477,3.285,3.323,3.3393,3.3393,3.3393,3.3393,3.3393,3.3393,3.3393,3.3393,3.3393,3.3393,3.3393,3.3393,3.3393,3.3393,3.3393,3.3393,3.3393,3.0925,3.0925,3.0925,3.0925,3.0925,3.0965,3.1004,3.1044,3.0649,2.953,2.9225,2.8715,2.7663,2.7402,2.7299,2.7299,2.7299,2.7299,2.7299,2.7299,2.7299,2.7299,2.7299,2.7299,2.7299,2.7299,2.7299,2.7299,2.7299,2.7299,2.7299,2.7299,2.725,2.7152,2.7152,2.712,2.7057,2.704,2.7007,2.6942,2.6975,2.6892,2.6775,2.6876,2.6842,2.6742,2.6691,2.6691,2.6691,2.6691,2.6691,2.6691,2.6691,2.6691,2.6691,2.6691,2.6691,2.6691,2.6691,2.6691,2.6674,2.6606,2.6554,2.645,2.633,2.6258,2.622,2.622,2.622,2.622,2.622,2.622,2.622,2.622,0.0,2.622,2.622,2.622,2.622,2.622,2.622,2.622,2.622,2.622,2.622,2.622,2.622,2.622,2.622,2.6274,2.6588,2.7195,2.7722,2.8871,3.0657,3.0959,3.1856,3.3393,3.3393,3.3393,3.3393,3.3393,3.3393,3.3393,3.3393,3.3393,3.3393,3.3393,3.3393,3.3393,3.3393,3.3393,3.3393,3.3393,3.3393,3.3393,3.1334,3.1257,3.1257,3.1257,3.1257,3.1372,3.1671,3.1726,3.147,3.0678,2.992,2.9162,2.8403,2.7713,2.7299,2.7299,2.7299,2.7299,2.7299,2.7299,2.7299,2.7299,2.7299,2.7299,2.7299,2.7299,2.7299,2.7299,2.7299,2.7299,2.7299,2.7299,2.7282,2.7282,2.7282,2.7282,2.725,2.7152,2.7103,2.707,2.704,2.6975,2.6975,2.6926,2.6893,2.6876,2.6742,2.6691,2.6691,2.6691,2.6691,2.6691,2.6691,2.6691,2.6691,2.6691,2.6691,2.6691,2.6691,2.6691,2.6674,2.6606,2.6554,2.645,2.633,2.6258,2.622,2.622,2.622,2.622,2.622,2.622,2.622,2.622,0.0,0.0,2.622,2.622,2.622,2.622,2.622,2.622,2.622,2.622,2.622,2.622,2.622,2.622,2.622,2.6469,2.7296,2.8675,2.8772,2.9299,3.0343,3.1363,3.2397,3.3393,3.3393,3.3393,3.3393,3.3393,3.3393,3.3393,3.3393,3.3393,3.3393,3.3393,3.3393,3.3393,3.3393,3.3393,3.3393,3.3393,3.3393,3.3393,3.1634,3.1634,3.1634,3.1634,3.1634,3.1634,3.18,3.18,3.1541,3.0782,3.0006,2.923,2.8472,2.773,2.7299,2.7299,2.7299,2.7299,2.7299,2.7299,2.7299,2.7299,2.7299,2.7299,2.7299,2.7299,2.7299,2.7299,2.7299,2.7299,2.7299,2.7299,2.7299,2.7299,2.7299,2.7299,2.7299,2.725,2.7184,2.7103,2.7169,2.7089,2.6959,2.6959,2.6876,2.6775,2.6742,2.6691,2.6691,2.6691,2.6691,2.6691,2.6691,2.6691,2.6691,2.6691,2.6691,2.6691,2.6691,2.6691,2.6691,2.6674,2.6572,2.6485,2.6434,2.631,2.622,2.622,2.622,2.622,2.622,2.622,2.622,2.622,0.0,2.622,2.622,2.622,2.622,2.622,2.622,2.622,2.622,2.622,2.622,2.622,2.622,2.631,2.6521,2.7499,2.8328,2.8873,3.0039,3.0879,3.1333,3.1775,3.2451,3.3393,3.3393,3.3393,3.3393,3.3393,3.3393,3.3393,3.3393,3.3393,3.3393,3.3393,3.3393,3.3393,3.3393,3.3393,3.3393,3.3393,3.3393,3.3393,3.18,3.18,3.18,3.18,3.18,3.18,3.18,3.18,3.161,3.1093,3.0144,2.9317,2.8799,2.7885,2.7299,2.7299,2.7299,2.7299,2.7299,2.7299,2.7299,2.7299,2.7299,2.7299,2.7299,2.7299,2.7299,2.7299,2.7299,2.7299,2.7299,2.7299,2.7299,2.7299,2.7299,2.7299,2.7299,2.7299,2.725,2.7184,2.7233,2.7137,2.6975,2.6992,2.6876,2.6742,2.6742,2.6691,2.6691,2.6691,2.6691,2.6691,2.6691,2.6691,2.6691,2.6691,2.6691,2.6691,2.6691,2.6691,2.6691,2.6691,2.6623,2.652,2.6485,2.638,2.6239,2.6203,2.622,2.622,2.622,2.622,2.622,2.622,2.622,2.622,2.622,2.622,2.622,2.622,2.622,2.622,2.622,2.622,2.622,2.622,2.631,2.6656,2.7346,2.8345,2.918,2.9766,3.1044,3.1923,3.2325,3.2373,3.2703,3.3382,3.3411,3.3393,3.3393,3.3393,3.3393,3.3393,3.3393,3.3393,3.3393,3.3393,3.3393,3.3393,3.3393,3.3393,3.3393,3.3393,3.3393,3.3393,3.18,3.18,3.18,3.18,3.18,3.18,3.18,3.18,3.18,3.18,3.0455,2.9506,2.9506,2.8178,2.7299,2.7299,2.7299,2.7299,2.7299,2.7299,2.7299,2.7282,2.7299,2.7299,2.7299,2.7299,2.7299,2.7299,2.7299,2.7299,2.7299,2.7299,2.7299,2.7299,2.7299,2.7299,2.7282,2.7299,2.7299,2.7282,2.7135,2.7103,2.7103,2.6942,2.6893,2.6893,2.6742,2.6691,2.6691,2.6691,2.6691,2.6691,2.6691,2.6691,2.6691,2.6691,2.6691,2.6691,2.6691,2.6691,2.6691,2.6691,2.6657,2.6589,2.652,2.6399,2.6277,2.6203,2.622,2.622,2.622,2.622,2.622,2.622,2.622,2.622,2.622,2.622,2.622,2.622,2.622,2.622,2.622,2.622,2.622,2.6203,2.6521,2.7346,2.8825,2.8908,2.9766,3.1653,3.1706,3.2174,3.3086,3.3086,3.3165,3.331,3.3382,3.3393,3.3393,3.3393,3.3393,3.3393,3.3393,3.3393,3.3393,3.3393,3.3393,3.3393,3.3393,3.3393,3.3393,3.3393,3.3393,3.3393,3.18,3.18,3.18,3.18,3.18,3.18,3.18,3.18,3.18,3.18,3.0955,3.0127,2.9558,2.8644,2.7851,2.7333,2.7299,2.7299,2.7299,2.7299,2.739,2.7569,2.739,2.7299,2.7299,2.7299,2.7299,2.7299,2.7299,2.7299,2.7299,2.7299,2.7299,2.7299,2.7299,2.739,2.7569,2.7376,2.7421,2.7539,2.723,2.707,2.704,2.6926,2.6842,2.6742,2.6691,2.6691,2.6691,2.6691,2.6691,2.6691,2.6691,2.6691,2.6691,2.6691,2.6691,2.6691,2.6691,2.6691,2.6691,2.6691,2.6657,2.6589,2.652,2.6399,2.6277,2.6203,2.622,2.622,2.622,2.622,2.622,2.622,2.622,2.622,2.622,2.622,2.622,2.622,2.622,2.622,2.622,2.622,2.631,2.6538,2.7599,2.8317,2.8528,3.0004,3.1115,3.1671,3.2304,3.2746,3.3042,3.3073,3.3196,3.3382,3.3411,3.3393,3.3393,3.3393,3.3393,3.3393,3.3393,3.3393,3.3393,3.3393,3.3393,3.3393,3.3393,3.3393,3.3393,3.3393,3.3393,3.3393,3.202,3.1984,3.1965,3.1837,3.18,3.18,3.18,3.18,3.18,3.18,3.1145,3.0386,2.9592,2.8834,2.8092,2.7351,2.7299,2.7299,2.7299,2.7299,2.7421,2.7701,2.7539,2.7496,2.7612,2.7526,2.7526,2.763,2.763,2.7569,2.7465,2.7465,2.739,2.7299,2.7299,2.7421,2.7659,2.7341,2.7448,2.7742,2.7352,2.7149,2.7103,2.7055,2.6875,2.6691,2.6691,2.6691,2.6691,2.6691,2.6691,2.6691,2.6691,2.6691,2.6691,2.6691,2.6691,2.6691,2.6691,2.6691,2.6691,2.6691,2.6674,2.664,2.652,2.6434,2.6364,2.6203,2.622,2.622,2.622,2.622,2.622,2.622,2.622,2.622,2.622,2.622,2.622,2.622,2.622,2.622,2.622,2.622,2.6329,2.6657,2.7822,2.8635,2.8995,3.0571,3.1689,3.2152,3.2697,3.2979,3.3042,3.3086,3.3196,3.3352,3.3382,3.3393,3.3393,3.3393,3.3393,3.3393,3.3393,3.3393,3.3393,3.3393,3.3393,3.3393,3.3393,3.3393,3.3393,3.3393,3.3393,3.3393,3.2403,3.2335,3.2249,3.1965,3.1893,3.1893,3.1856,3.1819,3.1819,3.18,3.1232,3.049,2.9592,2.8936,2.8211,2.7368,2.7299,2.7313,2.7345,2.7313,2.7452,2.776,2.773,2.784,2.8183,2.7897,2.784,2.8102,2.8102,2.7982,2.776,2.7713,2.7569,2.7345,2.7313,2.7438,2.7587,2.7261,2.7413,2.784,2.7439,2.7303,2.7303,2.7244,2.7021,2.6725,2.6725,2.6691,2.6691,2.6691,2.6691,2.6691,2.6691,2.6691,2.6691,2.6691,2.6691,2.6691,2.6691,2.6691,2.6691,2.6691,2.6691,2.6674,2.6554,2.6485,2.645,2.6239,2.6203,2.622,2.622,2.622,2.622,2.622,2.622,2.622,2.622,2.622,2.622,2.622,2.622,2.622,2.622,2.6256,2.6397,2.6725,2.7521,2.8596,2.9989,3.0808,3.1762,3.2866,3.2916,3.2979,3.3086,3.3117,3.3165,3.3292,3.3382,3.3393,3.3393,3.3393,3.3393,3.3393,3.3393,3.3393,3.3393,3.3393,3.3393,3.3393,3.3393,3.3393,3.3393,3.3393,3.3393,3.3393,3.2716,3.2684,3.2684,3.2619,3.2586,3.2486,3.2214,3.2179,3.2091,3.1819,3.1881,3.1324,2.9696,2.9602,2.9022,2.7434,2.7299,2.7407,2.76,2.7421,2.7647,2.8352,2.7943,2.8055,2.8791,2.8281,2.8047,2.8102,2.8102,2.8075,2.7992,2.78,2.7672,2.76,2.739,2.7452,2.7642,2.7276,2.7338,2.7654,2.7396,2.7303,2.7303,2.7244,2.7149,2.7053,2.6791,2.6691,2.6691,2.6691,2.6691,2.6691,2.6691,2.6691,2.6691,2.6691,2.6691,2.6691,2.6691,2.6691,2.6691,2.6691,2.6691,2.6674,2.6606,2.6554,2.645,2.6312,2.6222,2.622,2.622,2.622,2.622,2.622,2.622,2.622,2.622,2.622,2.622,2.622,2.622,2.622,2.622,2.6452,2.6739,2.7128,2.8647,2.981,3.0422,3.1767,3.2624,3.2898,3.2948,3.2979,3.3011,3.3183,3.3292,3.3382,3.3393,3.3393,3.3393,3.3393,3.3393,3.3393,3.3393,3.3393,3.3393,3.3393,3.3393,3.3393,3.3393,3.3393,3.3393,3.3393,3.3393,3.3393,3.3063,3.3032,3.3001,3.2827,3.2795,3.2731,3.2553,3.2537,3.247,3.23,3.2437,3.187,3.0176,3.0127,2.951,2.7666,2.76,2.7701,2.7701,2.7569,2.7818,2.8576,2.8147,2.8228,2.8994,2.87,2.8533,2.8533,2.8533,2.8464,2.8334,2.8037,2.7811,2.7701,2.7421,2.7421,2.763,2.723,2.74,2.7904,2.7624,2.7577,2.7678,2.7648,2.7457,2.7181,2.6989,2.6825,2.6691,2.6691,2.6691,2.6691,2.6691,2.6691,2.6691,2.6691,2.6691,2.6691,2.6691,2.6691,2.6691,2.6691,2.6691,2.6674,2.6606,2.6554,2.645,2.633,2.6258,2.622,2.622,2.622,2.622,2.622,2.622,2.622,2.622,2.622,2.622,2.622,2.622,2.622,2.622,2.6681,2.7157,2.7559,2.9091,3.0266,3.0837,3.198,3.2705,3.2884,3.2948,3.2979,3.2979,3.3091,3.3183,3.3256,3.3304,3.3352,3.3352,3.3352,3.3382,3.3393,3.3393,3.3393,3.3393,3.3393,3.3393,3.3393,3.3393,3.3393,3.3393,3.3393,3.3393,3.3393,3.3437,3.3379,3.3321,3.3014,3.2983,3.2952,3.2908,3.289,3.289,3.2795,3.2858,3.2286,3.0672,3.0261,2.9449,2.7906,2.7964,2.802,2.7858,2.78,2.8055,2.8626,2.836,2.8438,2.8994,2.8994,2.8994,2.8994,2.8994,2.8881,2.8651,2.8334,2.8065,2.7829,2.7539,2.7496,2.7569,2.7279,2.7522,2.8119,2.7876,2.7897,2.8102,2.8102,2.7794,2.7352,2.7307,2.7085,2.6791,2.6725,2.6691,2.6691,2.6691,2.6691,2.6691,2.6691,2.6691,2.6691,2.6691,2.6691,2.6691,2.6691,2.6691,2.6708,2.6623,2.6589,2.6485,2.6365,2.6293,2.6203,2.6203,2.6203,2.622,2.622,2.622,2.622,2.622,2.622,2.622,2.622,2.622,2.622,2.622,2.6922,2.759,2.8047,2.9338,3.0484,3.1335,3.1967,3.2488,3.2884,3.2916,3.2916,3.2979,3.2979,3.3011,3.3055,3.3183,3.328,3.331,3.3292,3.3352,3.3393,3.3393,3.3393,3.3393,3.3393,3.3393,3.3393,3.3393,3.3393,3.3393,3.3393,3.3393,3.3393,3.3734,3.3734,3.3707,3.3662,3.3716,3.3616,3.3291,3.3273,3.3196,3.2858,3.3063,3.2529,3.0701,2.9262,2.8307,2.8065,2.8075,2.821,2.8456,2.8201,2.8308,2.8905,2.8676,2.8676,2.8994,2.8994,2.8994,2.8994,2.8994,2.8994,2.8929,2.8651,2.8507,2.8456,2.8147,2.784,2.7612,2.7742,2.7636,2.7487,2.788,2.8075,2.8102,2.8102,2.8047,2.7936,2.7713,2.743,2.7085,2.6791,2.6691,2.6691,2.6691,2.6691,2.6691,2.6691,2.6691,2.6691,2.6691,2.6691,2.6691,2.6691,2.6691,2.6691,2.6691,2.6623,2.6572,2.6572,2.6417,2.6295,2.6295,2.6222,2.622,2.622,2.622,2.622,2.622,2.622,2.622,2.622,2.622,2.622,2.622,2.7192,2.8061,2.8706,2.9863,3.1011,3.2091,3.2265,3.2488,3.2884,3.2916,3.2916,3.2916,3.2979,3.2979,3.2948,3.3011,3.3122,3.3292,3.3352,3.3411,3.3393,3.3393,3.3393,3.3393,3.3393,3.3393,3.3393,3.3393,3.3393,3.3393,3.3393,3.3393,3.3393,3.3842,3.386,3.3868,3.3895,3.3947,3.3895,3.3716,3.3689,3.3616,3.3486,3.3532,3.3113,3.1838,3.0267,2.9029,2.844,2.8533,2.8601,2.8601,2.8456,2.8576,2.8994,2.8743,2.8718,2.8994,2.8994,2.8994,2.8994,2.8994,2.8994,2.8994,2.8718,2.8601,2.8576,2.8255,2.7992,2.7829,2.7869,2.7869,2.7886,2.802,2.8228,2.8396,2.8396,2.8255,2.8075,2.78,2.7474,2.7181,2.7021,2.6858,2.6691,2.6691,2.6691,2.6691,2.6691,2.6691,2.6691,2.6691,2.6691,2.6691,2.6691,2.6691,2.6691,2.6691,2.6674,2.6623,2.6554,2.6417,2.6295,2.6258,2.6239,2.622,2.622,2.622,2.622,2.622,2.622,2.622,2.622,2.622,2.6369,2.6766,2.7631,2.8555,2.9448,3.0548,3.1549,3.2266,3.2521,3.2705,3.2884,3.2916,3.2916,3.2916,3.2916,3.2916,3.2916,3.2979,3.306,3.3122,3.3152,3.3244,3.3352,3.3352,3.3382,3.3393,3.3393,3.3393,3.3393,3.3393,3.3393,3.3393,3.3393,3.3393,3.3393]}]]